<?xml version="1.0" encoding="UTF-8" standalone="no" ?>
<gpx xmlns="http://www.topografix.com/GPX/1/1" xmlns:xsi="http://www.w3.org/2001/XMLSchema-instance" xsi:schemaLocation="http://www.topografix.com/GPX/1/1 http://www.topografix.com/GPX/1/1/gpx.xsd" version="1.1" creator="VisuGPX - https://www.visugpx.com">
  <metadata>
    <name>Maison forestière des petits coins à l\'étang neuf</name>
    <desc><![CDATA[Néo et Ténébra, on part un peu à la découverte !
on découvre même une toute petite chapelle, avec de petits bancs et pots de fleurs !]]></desc>
  </metadata>
  <trk>
    <name><![CDATA[Untitled]]></name>
    <trkseg>
      <trkpt lat="48.70694" lon="1.75518">
        <ele>173.39999389648</ele>
        <time>2014-05-25T13:24:09.000Z</time>
      </trkpt>
      <trkpt lat="48.70691" lon="1.75526">
        <ele>173.80000305176</ele>
        <time>2014-05-25T13:24:15.000Z</time>
      </trkpt>
      <trkpt lat="48.70688" lon="1.7553">
        <ele>174</ele>
        <time>2014-05-25T13:24:18.000Z</time>
      </trkpt>
      <trkpt lat="48.70685" lon="1.75536">
        <ele>174.19999694824</ele>
        <time>2014-05-25T13:24:22.000Z</time>
      </trkpt>
      <trkpt lat="48.70682" lon="1.75544">
        <ele>174.39999389648</ele>
        <time>2014-05-25T13:24:26.000Z</time>
      </trkpt>
      <trkpt lat="48.70682" lon="1.75553">
        <ele>174.60000610352</ele>
        <time>2014-05-25T13:24:31.000Z</time>
      </trkpt>
      <trkpt lat="48.70675" lon="1.75566">
        <ele>175.60000610352</ele>
        <time>2014-05-25T13:24:39.000Z</time>
      </trkpt>
      <trkpt lat="48.7067" lon="1.75577">
        <ele>176.60000610352</ele>
        <time>2014-05-25T13:24:46.000Z</time>
      </trkpt>
      <trkpt lat="48.70667" lon="1.75582">
        <ele>176.80000305176</ele>
        <time>2014-05-25T13:24:49.000Z</time>
      </trkpt>
      <trkpt lat="48.70661" lon="1.75586">
        <ele>177.39999389648</ele>
        <time>2014-05-25T13:24:53.000Z</time>
      </trkpt>
      <trkpt lat="48.70656" lon="1.75595">
        <ele>178</ele>
        <time>2014-05-25T13:24:59.000Z</time>
      </trkpt>
      <trkpt lat="48.70651" lon="1.75604">
        <ele>178.39999389648</ele>
        <time>2014-05-25T13:25:04.000Z</time>
      </trkpt>
      <trkpt lat="48.7065" lon="1.75609">
        <ele>178.60000610352</ele>
        <time>2014-05-25T13:25:08.000Z</time>
      </trkpt>
      <trkpt lat="48.70648" lon="1.75617">
        <ele>178.80000305176</ele>
        <time>2014-05-25T13:25:12.000Z</time>
      </trkpt>
      <trkpt lat="48.70646" lon="1.75626">
        <ele>179.19999694824</ele>
        <time>2014-05-25T13:25:17.000Z</time>
      </trkpt>
      <trkpt lat="48.70642" lon="1.75636">
        <ele>180</ele>
        <time>2014-05-25T13:25:24.000Z</time>
      </trkpt>
      <trkpt lat="48.7064" lon="1.75646">
        <ele>180.39999389648</ele>
        <time>2014-05-25T13:25:29.000Z</time>
      </trkpt>
      <trkpt lat="48.7064" lon="1.75655">
        <ele>180.60000610352</ele>
        <time>2014-05-25T13:25:33.000Z</time>
      </trkpt>
      <trkpt lat="48.70638" lon="1.75659">
        <ele>180.80000305176</ele>
        <time>2014-05-25T13:25:39.000Z</time>
      </trkpt>
      <trkpt lat="48.70641" lon="1.75659">
        <ele>180.39999389648</ele>
        <time>2014-05-25T13:25:56.000Z</time>
      </trkpt>
      <trkpt lat="48.70638" lon="1.7566">
        <ele>180.80000305176</ele>
        <time>2014-05-25T13:26:00.000Z</time>
      </trkpt>
      <trkpt lat="48.70636" lon="1.75659">
        <ele>181</ele>
        <time>2014-05-25T13:26:04.000Z</time>
      </trkpt>
      <trkpt lat="48.70636" lon="1.75657">
        <ele>181</ele>
        <time>2014-05-25T13:26:17.000Z</time>
      </trkpt>
      <trkpt lat="48.70638" lon="1.75657">
        <ele>180.80000305176</ele>
        <time>2014-05-25T13:26:22.000Z</time>
      </trkpt>
      <trkpt lat="48.70638" lon="1.75655">
        <ele>180.80000305176</ele>
        <time>2014-05-25T13:26:25.000Z</time>
      </trkpt>
      <trkpt lat="48.7064" lon="1.75652">
        <ele>180.60000610352</ele>
        <time>2014-05-25T13:26:43.000Z</time>
      </trkpt>
      <trkpt lat="48.70637" lon="1.75656">
        <ele>181</ele>
        <time>2014-05-25T13:26:46.000Z</time>
      </trkpt>
      <trkpt lat="48.70631" lon="1.75653">
        <ele>181.60000610352</ele>
        <time>2014-05-25T13:26:54.000Z</time>
      </trkpt>
      <trkpt lat="48.70629" lon="1.75651">
        <ele>182</ele>
        <time>2014-05-25T13:26:56.000Z</time>
      </trkpt>
      <trkpt lat="48.70626" lon="1.75648">
        <ele>182.19999694824</ele>
        <time>2014-05-25T13:26:59.000Z</time>
      </trkpt>
      <trkpt lat="48.70619" lon="1.75638">
        <ele>182.80000305176</ele>
        <time>2014-05-25T13:27:05.000Z</time>
      </trkpt>
      <trkpt lat="48.70617" lon="1.75635">
        <ele>183</ele>
        <time>2014-05-25T13:27:07.000Z</time>
      </trkpt>
      <trkpt lat="48.70611" lon="1.75626">
        <ele>183.39999389648</ele>
        <time>2014-05-25T13:27:12.000Z</time>
      </trkpt>
      <trkpt lat="48.70605" lon="1.75619">
        <ele>184</ele>
        <time>2014-05-25T13:27:18.000Z</time>
      </trkpt>
      <trkpt lat="48.70602" lon="1.75614">
        <ele>184</ele>
        <time>2014-05-25T13:27:22.000Z</time>
      </trkpt>
      <trkpt lat="48.70598" lon="1.7561">
        <ele>184</ele>
        <time>2014-05-25T13:27:27.000Z</time>
      </trkpt>
      <trkpt lat="48.70595" lon="1.75605">
        <ele>184</ele>
        <time>2014-05-25T13:27:32.000Z</time>
      </trkpt>
      <trkpt lat="48.70594" lon="1.75603">
        <ele>184</ele>
        <time>2014-05-25T13:27:33.000Z</time>
      </trkpt>
      <trkpt lat="48.70586" lon="1.75594">
        <ele>184</ele>
        <time>2014-05-25T13:27:39.000Z</time>
      </trkpt>
      <trkpt lat="48.70578" lon="1.75586">
        <ele>184</ele>
        <time>2014-05-25T13:27:46.000Z</time>
      </trkpt>
      <trkpt lat="48.70571" lon="1.75578">
        <ele>184</ele>
        <time>2014-05-25T13:27:52.000Z</time>
      </trkpt>
      <trkpt lat="48.70565" lon="1.75572">
        <ele>184</ele>
        <time>2014-05-25T13:27:57.000Z</time>
      </trkpt>
      <trkpt lat="48.70561" lon="1.75569">
        <ele>184</ele>
        <time>2014-05-25T13:28:01.000Z</time>
      </trkpt>
      <trkpt lat="48.70555" lon="1.75567">
        <ele>184</ele>
        <time>2014-05-25T13:28:05.000Z</time>
      </trkpt>
      <trkpt lat="48.70552" lon="1.75561">
        <ele>183.80000305176</ele>
        <time>2014-05-25T13:28:08.000Z</time>
      </trkpt>
      <trkpt lat="48.70548" lon="1.75556">
        <ele>183.60000610352</ele>
        <time>2014-05-25T13:28:15.000Z</time>
      </trkpt>
      <trkpt lat="48.70541" lon="1.75553">
        <ele>183.60000610352</ele>
        <time>2014-05-25T13:28:20.000Z</time>
      </trkpt>
      <trkpt lat="48.70535" lon="1.75548">
        <ele>183.60000610352</ele>
        <time>2014-05-25T13:28:25.000Z</time>
      </trkpt>
      <trkpt lat="48.70529" lon="1.75539">
        <ele>183.19999694824</ele>
        <time>2014-05-25T13:28:32.000Z</time>
      </trkpt>
      <trkpt lat="48.7052" lon="1.75532">
        <ele>183.19999694824</ele>
        <time>2014-05-25T13:28:38.000Z</time>
      </trkpt>
      <trkpt lat="48.70514" lon="1.75526">
        <ele>183</ele>
        <time>2014-05-25T13:28:45.000Z</time>
      </trkpt>
      <trkpt lat="48.70506" lon="1.75522">
        <ele>183.19999694824</ele>
        <time>2014-05-25T13:28:50.000Z</time>
      </trkpt>
      <trkpt lat="48.70497" lon="1.75514">
        <ele>183</ele>
        <time>2014-05-25T13:28:56.000Z</time>
      </trkpt>
      <trkpt lat="48.70496" lon="1.75508">
        <ele>182.80000305176</ele>
        <time>2014-05-25T13:28:59.000Z</time>
      </trkpt>
      <trkpt lat="48.7049" lon="1.755">
        <ele>182.60000610352</ele>
        <time>2014-05-25T13:29:06.000Z</time>
      </trkpt>
      <trkpt lat="48.70489" lon="1.75498">
        <ele>182.60000610352</ele>
        <time>2014-05-25T13:29:07.000Z</time>
      </trkpt>
      <trkpt lat="48.70484" lon="1.75491">
        <ele>182.39999389648</ele>
        <time>2014-05-25T13:29:14.000Z</time>
      </trkpt>
      <trkpt lat="48.70482" lon="1.75484">
        <ele>182.19999694824</ele>
        <time>2014-05-25T13:29:19.000Z</time>
      </trkpt>
      <trkpt lat="48.70476" lon="1.75477">
        <ele>182.39999389648</ele>
        <time>2014-05-25T13:29:24.000Z</time>
      </trkpt>
      <trkpt lat="48.70469" lon="1.75469">
        <ele>182.39999389648</ele>
        <time>2014-05-25T13:29:31.000Z</time>
      </trkpt>
      <trkpt lat="48.70467" lon="1.75469">
        <ele>182.39999389648</ele>
        <time>2014-05-25T13:29:32.000Z</time>
      </trkpt>
      <trkpt lat="48.70455" lon="1.75465">
        <ele>182.80000305176</ele>
        <time>2014-05-25T13:29:41.000Z</time>
      </trkpt>
      <trkpt lat="48.7045" lon="1.75463">
        <ele>183</ele>
        <time>2014-05-25T13:29:47.000Z</time>
      </trkpt>
      <trkpt lat="48.70447" lon="1.75462">
        <ele>183</ele>
        <time>2014-05-25T13:29:51.000Z</time>
      </trkpt>
      <trkpt lat="48.70445" lon="1.75462">
        <ele>183</ele>
        <time>2014-05-25T13:29:55.000Z</time>
      </trkpt>
      <trkpt lat="48.70442" lon="1.75461">
        <ele>183.19999694824</ele>
        <time>2014-05-25T13:29:59.000Z</time>
      </trkpt>
      <trkpt lat="48.70436" lon="1.75451">
        <ele>183.19999694824</ele>
        <time>2014-05-25T13:30:03.000Z</time>
      </trkpt>
      <trkpt lat="48.70427" lon="1.75445">
        <ele>182.80000305176</ele>
        <time>2014-05-25T13:30:08.000Z</time>
      </trkpt>
      <trkpt lat="48.7042" lon="1.75439">
        <ele>182.60000610352</ele>
        <time>2014-05-25T13:30:13.000Z</time>
      </trkpt>
      <trkpt lat="48.70408" lon="1.75431">
        <ele>182.39999389648</ele>
        <time>2014-05-25T13:30:19.000Z</time>
      </trkpt>
      <trkpt lat="48.70405" lon="1.75428">
        <ele>182.19999694824</ele>
        <time>2014-05-25T13:30:21.000Z</time>
      </trkpt>
      <trkpt lat="48.70401" lon="1.75423">
        <ele>182</ele>
        <time>2014-05-25T13:30:25.000Z</time>
      </trkpt>
      <trkpt lat="48.70397" lon="1.75419">
        <ele>181.80000305176</ele>
        <time>2014-05-25T13:30:30.000Z</time>
      </trkpt>
      <trkpt lat="48.70393" lon="1.75417">
        <ele>181.80000305176</ele>
        <time>2014-05-25T13:30:34.000Z</time>
      </trkpt>
      <trkpt lat="48.70389" lon="1.75417">
        <ele>181.80000305176</ele>
        <time>2014-05-25T13:30:37.000Z</time>
      </trkpt>
      <trkpt lat="48.70385" lon="1.75416">
        <ele>181.60000610352</ele>
        <time>2014-05-25T13:30:42.000Z</time>
      </trkpt>
      <trkpt lat="48.70383" lon="1.75418">
        <ele>181.60000610352</ele>
        <time>2014-05-25T13:30:48.000Z</time>
      </trkpt>
      <trkpt lat="48.70382" lon="1.75418">
        <ele>181.60000610352</ele>
        <time>2014-05-25T13:30:51.000Z</time>
      </trkpt>
      <trkpt lat="48.70381" lon="1.75416">
        <ele>181.60000610352</ele>
        <time>2014-05-25T13:30:52.000Z</time>
      </trkpt>
      <trkpt lat="48.70374" lon="1.75409">
        <ele>181.39999389648</ele>
        <time>2014-05-25T13:30:57.000Z</time>
      </trkpt>
      <trkpt lat="48.70374" lon="1.75396">
        <ele>181.19999694824</ele>
        <time>2014-05-25T13:31:22.000Z</time>
      </trkpt>
      <trkpt lat="48.70369" lon="1.75401">
        <ele>181.19999694824</ele>
        <time>2014-05-25T13:31:45.000Z</time>
      </trkpt>
      <trkpt lat="48.70367" lon="1.75395">
        <ele>181.19999694824</ele>
        <time>2014-05-25T13:31:49.000Z</time>
      </trkpt>
      <trkpt lat="48.70363" lon="1.75391">
        <ele>181.19999694824</ele>
        <time>2014-05-25T13:31:55.000Z</time>
      </trkpt>
      <trkpt lat="48.70348" lon="1.75382">
        <ele>180.80000305176</ele>
        <time>2014-05-25T13:32:15.000Z</time>
      </trkpt>
      <trkpt lat="48.70337" lon="1.75374">
        <ele>180.60000610352</ele>
        <time>2014-05-25T13:32:20.000Z</time>
      </trkpt>
      <trkpt lat="48.70329" lon="1.75366">
        <ele>180.39999389648</ele>
        <time>2014-05-25T13:32:29.000Z</time>
      </trkpt>
      <trkpt lat="48.70327" lon="1.75364">
        <ele>180.39999389648</ele>
        <time>2014-05-25T13:32:34.000Z</time>
      </trkpt>
      <trkpt lat="48.70323" lon="1.75358">
        <ele>180.19999694824</ele>
        <time>2014-05-25T13:32:38.000Z</time>
      </trkpt>
      <trkpt lat="48.7032" lon="1.75358">
        <ele>180.19999694824</ele>
        <time>2014-05-25T13:32:40.000Z</time>
      </trkpt>
      <trkpt lat="48.70315" lon="1.75357">
        <ele>180</ele>
        <time>2014-05-25T13:32:44.000Z</time>
      </trkpt>
      <trkpt lat="48.70311" lon="1.75345">
        <ele>180</ele>
        <time>2014-05-25T13:32:51.000Z</time>
      </trkpt>
      <trkpt lat="48.70309" lon="1.75342">
        <ele>180</ele>
        <time>2014-05-25T13:32:53.000Z</time>
      </trkpt>
      <trkpt lat="48.70305" lon="1.7533">
        <ele>179.80000305176</ele>
        <time>2014-05-25T13:32:59.000Z</time>
      </trkpt>
      <trkpt lat="48.70306" lon="1.75327">
        <ele>179.80000305176</ele>
        <time>2014-05-25T13:33:05.000Z</time>
      </trkpt>
      <trkpt lat="48.70307" lon="1.75327">
        <ele>179.80000305176</ele>
        <time>2014-05-25T13:33:14.000Z</time>
      </trkpt>
      <trkpt lat="48.70307" lon="1.75326">
        <ele>179.80000305176</ele>
        <time>2014-05-25T13:33:16.000Z</time>
      </trkpt>
      <trkpt lat="48.70309" lon="1.75312">
        <ele>180</ele>
        <time>2014-05-25T13:35:27.000Z</time>
      </trkpt>
      <trkpt lat="48.70307" lon="1.75311">
        <ele>180</ele>
        <time>2014-05-25T13:35:28.000Z</time>
      </trkpt>
      <trkpt lat="48.70301" lon="1.75303">
        <ele>180</ele>
        <time>2014-05-25T13:35:34.000Z</time>
      </trkpt>
      <trkpt lat="48.70296" lon="1.75295">
        <ele>180</ele>
        <time>2014-05-25T13:35:39.000Z</time>
      </trkpt>
      <trkpt lat="48.70295" lon="1.75295">
        <ele>180</ele>
        <time>2014-05-25T13:35:40.000Z</time>
      </trkpt>
      <trkpt lat="48.7029" lon="1.75292">
        <ele>179.80000305176</ele>
        <time>2014-05-25T13:35:46.000Z</time>
      </trkpt>
      <trkpt lat="48.70276" lon="1.7529">
        <ele>179.60000610352</ele>
        <time>2014-05-25T13:35:54.000Z</time>
      </trkpt>
      <trkpt lat="48.7027" lon="1.75284">
        <ele>179.39999389648</ele>
        <time>2014-05-25T13:35:59.000Z</time>
      </trkpt>
      <trkpt lat="48.70268" lon="1.75283">
        <ele>179.39999389648</ele>
        <time>2014-05-25T13:36:00.000Z</time>
      </trkpt>
      <trkpt lat="48.70262" lon="1.75275">
        <ele>179.19999694824</ele>
        <time>2014-05-25T13:36:05.000Z</time>
      </trkpt>
      <trkpt lat="48.70251" lon="1.75269">
        <ele>178.80000305176</ele>
        <time>2014-05-25T13:36:12.000Z</time>
      </trkpt>
      <trkpt lat="48.7025" lon="1.75268">
        <ele>178.60000610352</ele>
        <time>2014-05-25T13:36:15.000Z</time>
      </trkpt>
      <trkpt lat="48.7024" lon="1.75257">
        <ele>178.39999389648</ele>
        <time>2014-05-25T13:36:35.000Z</time>
      </trkpt>
      <trkpt lat="48.70234" lon="1.75254">
        <ele>178</ele>
        <time>2014-05-25T13:36:40.000Z</time>
      </trkpt>
      <trkpt lat="48.70229" lon="1.75254">
        <ele>177.80000305176</ele>
        <time>2014-05-25T13:36:44.000Z</time>
      </trkpt>
      <trkpt lat="48.70222" lon="1.7525">
        <ele>177.60000610352</ele>
        <time>2014-05-25T13:36:51.000Z</time>
      </trkpt>
      <trkpt lat="48.70219" lon="1.75249">
        <ele>177.39999389648</ele>
        <time>2014-05-25T13:36:54.000Z</time>
      </trkpt>
      <trkpt lat="48.70213" lon="1.75245">
        <ele>177.19999694824</ele>
        <time>2014-05-25T13:36:59.000Z</time>
      </trkpt>
      <trkpt lat="48.70208" lon="1.75242">
        <ele>177</ele>
        <time>2014-05-25T13:37:04.000Z</time>
      </trkpt>
      <trkpt lat="48.70203" lon="1.75246">
        <ele>176.60000610352</ele>
        <time>2014-05-25T13:37:10.000Z</time>
      </trkpt>
      <trkpt lat="48.70198" lon="1.75251">
        <ele>176.39999389648</ele>
        <time>2014-05-25T13:37:14.000Z</time>
      </trkpt>
      <trkpt lat="48.70194" lon="1.75254">
        <ele>176.19999694824</ele>
        <time>2014-05-25T13:37:17.000Z</time>
      </trkpt>
      <trkpt lat="48.70188" lon="1.75257">
        <ele>176</ele>
        <time>2014-05-25T13:37:22.000Z</time>
      </trkpt>
      <trkpt lat="48.70176" lon="1.75262">
        <ele>175.80000305176</ele>
        <time>2014-05-25T13:37:30.000Z</time>
      </trkpt>
      <trkpt lat="48.70175" lon="1.75263">
        <ele>175.80000305176</ele>
        <time>2014-05-25T13:37:32.000Z</time>
      </trkpt>
      <trkpt lat="48.70166" lon="1.7527">
        <ele>175.80000305176</ele>
        <time>2014-05-25T13:37:40.000Z</time>
      </trkpt>
      <trkpt lat="48.7016" lon="1.75277">
        <ele>175.60000610352</ele>
        <time>2014-05-25T13:37:45.000Z</time>
      </trkpt>
      <trkpt lat="48.70152" lon="1.75282">
        <ele>175.60000610352</ele>
        <time>2014-05-25T13:37:51.000Z</time>
      </trkpt>
      <trkpt lat="48.7015" lon="1.75288">
        <ele>175.39999389648</ele>
        <time>2014-05-25T13:37:56.000Z</time>
      </trkpt>
      <trkpt lat="48.70143" lon="1.7529">
        <ele>175.19999694824</ele>
        <time>2014-05-25T13:38:02.000Z</time>
      </trkpt>
      <trkpt lat="48.70135" lon="1.75294">
        <ele>174.80000305176</ele>
        <time>2014-05-25T13:38:10.000Z</time>
      </trkpt>
      <trkpt lat="48.70129" lon="1.75299">
        <ele>174.39999389648</ele>
        <time>2014-05-25T13:38:16.000Z</time>
      </trkpt>
      <trkpt lat="48.70127" lon="1.753">
        <ele>174.39999389648</ele>
        <time>2014-05-25T13:38:17.000Z</time>
      </trkpt>
      <trkpt lat="48.70115" lon="1.75303">
        <ele>173.80000305176</ele>
        <time>2014-05-25T13:38:24.000Z</time>
      </trkpt>
      <trkpt lat="48.70114" lon="1.75304">
        <ele>173.80000305176</ele>
        <time>2014-05-25T13:38:25.000Z</time>
      </trkpt>
      <trkpt lat="48.70113" lon="1.75305">
        <ele>173.80000305176</ele>
        <time>2014-05-25T13:38:28.000Z</time>
      </trkpt>
      <trkpt lat="48.7011" lon="1.75308">
        <ele>173.60000610352</ele>
        <time>2014-05-25T13:38:30.000Z</time>
      </trkpt>
      <trkpt lat="48.70107" lon="1.75311">
        <ele>173.39999389648</ele>
        <time>2014-05-25T13:38:33.000Z</time>
      </trkpt>
      <trkpt lat="48.701" lon="1.75312">
        <ele>173.19999694824</ele>
        <time>2014-05-25T13:38:38.000Z</time>
      </trkpt>
      <trkpt lat="48.70094" lon="1.75315">
        <ele>173</ele>
        <time>2014-05-25T13:38:41.000Z</time>
      </trkpt>
      <trkpt lat="48.70085" lon="1.75323">
        <ele>172.60000610352</ele>
        <time>2014-05-25T13:38:48.000Z</time>
      </trkpt>
      <trkpt lat="48.70079" lon="1.75327">
        <ele>172.19999694824</ele>
        <time>2014-05-25T13:38:55.000Z</time>
      </trkpt>
      <trkpt lat="48.70072" lon="1.7533">
        <ele>172</ele>
        <time>2014-05-25T13:39:03.000Z</time>
      </trkpt>
      <trkpt lat="48.70061" lon="1.75334">
        <ele>171.60000610352</ele>
        <time>2014-05-25T13:39:10.000Z</time>
      </trkpt>
      <trkpt lat="48.7005" lon="1.75337">
        <ele>171.19999694824</ele>
        <time>2014-05-25T13:39:16.000Z</time>
      </trkpt>
      <trkpt lat="48.70041" lon="1.75339">
        <ele>171</ele>
        <time>2014-05-25T13:39:23.000Z</time>
      </trkpt>
      <trkpt lat="48.70037" lon="1.75338">
        <ele>171</ele>
        <time>2014-05-25T13:39:28.000Z</time>
      </trkpt>
      <trkpt lat="48.70033" lon="1.75341">
        <ele>170.80000305176</ele>
        <time>2014-05-25T13:39:33.000Z</time>
      </trkpt>
      <trkpt lat="48.70028" lon="1.75343">
        <ele>170.80000305176</ele>
        <time>2014-05-25T13:39:37.000Z</time>
      </trkpt>
      <trkpt lat="48.70019" lon="1.75353">
        <ele>170.39999389648</ele>
        <time>2014-05-25T13:39:45.000Z</time>
      </trkpt>
      <trkpt lat="48.70012" lon="1.75357">
        <ele>170.39999389648</ele>
        <time>2014-05-25T13:39:51.000Z</time>
      </trkpt>
      <trkpt lat="48.70009" lon="1.75355">
        <ele>170.39999389648</ele>
        <time>2014-05-25T13:39:55.000Z</time>
      </trkpt>
      <trkpt lat="48.70002" lon="1.75354">
        <ele>170.60000610352</ele>
        <time>2014-05-25T13:40:00.000Z</time>
      </trkpt>
      <trkpt lat="48.6999" lon="1.75356">
        <ele>170.80000305176</ele>
        <time>2014-05-25T13:40:06.000Z</time>
      </trkpt>
      <trkpt lat="48.69985" lon="1.7536">
        <ele>170.60000610352</ele>
        <time>2014-05-25T13:40:13.000Z</time>
      </trkpt>
      <trkpt lat="48.6998" lon="1.75362">
        <ele>170.60000610352</ele>
        <time>2014-05-25T13:40:19.000Z</time>
      </trkpt>
      <trkpt lat="48.69973" lon="1.75367">
        <ele>170.80000305176</ele>
        <time>2014-05-25T13:40:25.000Z</time>
      </trkpt>
      <trkpt lat="48.69962" lon="1.75368">
        <ele>171.19999694824</ele>
        <time>2014-05-25T13:40:30.000Z</time>
      </trkpt>
      <trkpt lat="48.69951" lon="1.75372">
        <ele>171.60000610352</ele>
        <time>2014-05-25T13:40:37.000Z</time>
      </trkpt>
      <trkpt lat="48.69948" lon="1.75377">
        <ele>171.80000305176</ele>
        <time>2014-05-25T13:40:44.000Z</time>
      </trkpt>
      <trkpt lat="48.69943" lon="1.7538">
        <ele>172</ele>
        <time>2014-05-25T13:40:49.000Z</time>
      </trkpt>
      <trkpt lat="48.69942" lon="1.7538">
        <ele>172</ele>
        <time>2014-05-25T13:40:50.000Z</time>
      </trkpt>
      <trkpt lat="48.69937" lon="1.75383">
        <ele>172.19999694824</ele>
        <time>2014-05-25T13:40:53.000Z</time>
      </trkpt>
      <trkpt lat="48.69929" lon="1.75389">
        <ele>172</ele>
        <time>2014-05-25T13:40:58.000Z</time>
      </trkpt>
      <trkpt lat="48.69915" lon="1.75396">
        <ele>171.60000610352</ele>
        <time>2014-05-25T13:41:06.000Z</time>
      </trkpt>
      <trkpt lat="48.69914" lon="1.75395">
        <ele>171.60000610352</ele>
        <time>2014-05-25T13:41:07.000Z</time>
      </trkpt>
      <trkpt lat="48.69911" lon="1.75396">
        <ele>171.60000610352</ele>
        <time>2014-05-25T13:41:11.000Z</time>
      </trkpt>
      <trkpt lat="48.69902" lon="1.75404">
        <ele>171.19999694824</ele>
        <time>2014-05-25T13:41:19.000Z</time>
      </trkpt>
      <trkpt lat="48.69894" lon="1.75407">
        <ele>171</ele>
        <time>2014-05-25T13:41:26.000Z</time>
      </trkpt>
      <trkpt lat="48.69887" lon="1.7541">
        <ele>170.60000610352</ele>
        <time>2014-05-25T13:41:33.000Z</time>
      </trkpt>
      <trkpt lat="48.69885" lon="1.75413">
        <ele>170.60000610352</ele>
        <time>2014-05-25T13:41:37.000Z</time>
      </trkpt>
      <trkpt lat="48.69884" lon="1.75414">
        <ele>170.60000610352</ele>
        <time>2014-05-25T13:41:40.000Z</time>
      </trkpt>
      <trkpt lat="48.6988" lon="1.75416">
        <ele>170.39999389648</ele>
        <time>2014-05-25T13:41:41.000Z</time>
      </trkpt>
      <trkpt lat="48.69872" lon="1.75419">
        <ele>170</ele>
        <time>2014-05-25T13:41:45.000Z</time>
      </trkpt>
      <trkpt lat="48.6987" lon="1.75421">
        <ele>170</ele>
        <time>2014-05-25T13:41:51.000Z</time>
      </trkpt>
      <trkpt lat="48.69864" lon="1.7542">
        <ele>169.80000305176</ele>
        <time>2014-05-25T13:41:58.000Z</time>
      </trkpt>
      <trkpt lat="48.69854" lon="1.75421">
        <ele>169.39999389648</ele>
        <time>2014-05-25T13:42:04.000Z</time>
      </trkpt>
      <trkpt lat="48.69853" lon="1.75421">
        <ele>169.39999389648</ele>
        <time>2014-05-25T13:42:05.000Z</time>
      </trkpt>
      <trkpt lat="48.69844" lon="1.75421">
        <ele>169</ele>
        <time>2014-05-25T13:42:12.000Z</time>
      </trkpt>
      <trkpt lat="48.69842" lon="1.75421">
        <ele>169</ele>
        <time>2014-05-25T13:42:13.000Z</time>
      </trkpt>
      <trkpt lat="48.69835" lon="1.75425">
        <ele>168.60000610352</ele>
        <time>2014-05-25T13:42:20.000Z</time>
      </trkpt>
      <trkpt lat="48.69829" lon="1.75432">
        <ele>168.19999694824</ele>
        <time>2014-05-25T13:42:26.000Z</time>
      </trkpt>
      <trkpt lat="48.69821" lon="1.75436">
        <ele>167.60000610352</ele>
        <time>2014-05-25T13:42:32.000Z</time>
      </trkpt>
      <trkpt lat="48.69819" lon="1.75441">
        <ele>167.39999389648</ele>
        <time>2014-05-25T13:42:36.000Z</time>
      </trkpt>
      <trkpt lat="48.6981" lon="1.75444">
        <ele>167</ele>
        <time>2014-05-25T13:42:43.000Z</time>
      </trkpt>
      <trkpt lat="48.69803" lon="1.75445">
        <ele>166.60000610352</ele>
        <time>2014-05-25T13:42:48.000Z</time>
      </trkpt>
      <trkpt lat="48.69797" lon="1.75445">
        <ele>166.39999389648</ele>
        <time>2014-05-25T13:42:52.000Z</time>
      </trkpt>
      <trkpt lat="48.69787" lon="1.75452">
        <ele>165.60000610352</ele>
        <time>2014-05-25T13:42:59.000Z</time>
      </trkpt>
      <trkpt lat="48.69777" lon="1.75456">
        <ele>164.80000305176</ele>
        <time>2014-05-25T13:43:05.000Z</time>
      </trkpt>
      <trkpt lat="48.69771" lon="1.75459">
        <ele>164.39999389648</ele>
        <time>2014-05-25T13:43:09.000Z</time>
      </trkpt>
      <trkpt lat="48.69767" lon="1.75459">
        <ele>164.19999694824</ele>
        <time>2014-05-25T13:43:13.000Z</time>
      </trkpt>
      <trkpt lat="48.69765" lon="1.7546">
        <ele>164</ele>
        <time>2014-05-25T13:43:15.000Z</time>
      </trkpt>
      <trkpt lat="48.69756" lon="1.75464">
        <ele>163.39999389648</ele>
        <time>2014-05-25T13:43:22.000Z</time>
      </trkpt>
      <trkpt lat="48.69754" lon="1.75466">
        <ele>163.19999694824</ele>
        <time>2014-05-25T13:43:24.000Z</time>
      </trkpt>
      <trkpt lat="48.69752" lon="1.75468">
        <ele>163</ele>
        <time>2014-05-25T13:43:26.000Z</time>
      </trkpt>
      <trkpt lat="48.69741" lon="1.75476">
        <ele>162.19999694824</ele>
        <time>2014-05-25T13:43:33.000Z</time>
      </trkpt>
      <trkpt lat="48.69735" lon="1.75481">
        <ele>161.60000610352</ele>
        <time>2014-05-25T13:43:38.000Z</time>
      </trkpt>
      <trkpt lat="48.69724" lon="1.75482">
        <ele>161</ele>
        <time>2014-05-25T13:43:45.000Z</time>
      </trkpt>
      <trkpt lat="48.6972" lon="1.75482">
        <ele>160.80000305176</ele>
        <time>2014-05-25T13:43:50.000Z</time>
      </trkpt>
      <trkpt lat="48.69714" lon="1.75484">
        <ele>160.39999389648</ele>
        <time>2014-05-25T13:43:56.000Z</time>
      </trkpt>
      <trkpt lat="48.69704" lon="1.75488">
        <ele>159.80000305176</ele>
        <time>2014-05-25T13:44:01.000Z</time>
      </trkpt>
      <trkpt lat="48.69695" lon="1.7549">
        <ele>159.39999389648</ele>
        <time>2014-05-25T13:44:07.000Z</time>
      </trkpt>
      <trkpt lat="48.69685" lon="1.75494">
        <ele>158.80000305176</ele>
        <time>2014-05-25T13:44:15.000Z</time>
      </trkpt>
      <trkpt lat="48.69677" lon="1.75499">
        <ele>158.39999389648</ele>
        <time>2014-05-25T13:44:21.000Z</time>
      </trkpt>
      <trkpt lat="48.69668" lon="1.75502">
        <ele>158</ele>
        <time>2014-05-25T13:44:29.000Z</time>
      </trkpt>
      <trkpt lat="48.6966" lon="1.75505">
        <ele>157.60000610352</ele>
        <time>2014-05-25T13:44:36.000Z</time>
      </trkpt>
      <trkpt lat="48.69654" lon="1.75507">
        <ele>157.39999389648</ele>
        <time>2014-05-25T13:44:42.000Z</time>
      </trkpt>
      <trkpt lat="48.69647" lon="1.75513">
        <ele>157</ele>
        <time>2014-05-25T13:44:49.000Z</time>
      </trkpt>
      <trkpt lat="48.69646" lon="1.75514">
        <ele>157</ele>
        <time>2014-05-25T13:44:50.000Z</time>
      </trkpt>
      <trkpt lat="48.69641" lon="1.75516">
        <ele>156.60000610352</ele>
        <time>2014-05-25T13:44:54.000Z</time>
      </trkpt>
      <trkpt lat="48.69631" lon="1.75521">
        <ele>156.39999389648</ele>
        <time>2014-05-25T13:45:03.000Z</time>
      </trkpt>
      <trkpt lat="48.69622" lon="1.75524">
        <ele>156.19999694824</ele>
        <time>2014-05-25T13:45:10.000Z</time>
      </trkpt>
      <trkpt lat="48.69614" lon="1.75527">
        <ele>156.19999694824</ele>
        <time>2014-05-25T13:45:16.000Z</time>
      </trkpt>
      <trkpt lat="48.69608" lon="1.7553">
        <ele>156</ele>
        <time>2014-05-25T13:45:21.000Z</time>
      </trkpt>
      <trkpt lat="48.69604" lon="1.75531">
        <ele>156</ele>
        <time>2014-05-25T13:45:24.000Z</time>
      </trkpt>
      <trkpt lat="48.69597" lon="1.75535">
        <ele>155.80000305176</ele>
        <time>2014-05-25T13:45:30.000Z</time>
      </trkpt>
      <trkpt lat="48.69595" lon="1.75538">
        <ele>155.80000305176</ele>
        <time>2014-05-25T13:45:32.000Z</time>
      </trkpt>
      <trkpt lat="48.6959" lon="1.75541">
        <ele>155.60000610352</ele>
        <time>2014-05-25T13:45:39.000Z</time>
      </trkpt>
      <trkpt lat="48.69583" lon="1.75545">
        <ele>155.60000610352</ele>
        <time>2014-05-25T13:45:45.000Z</time>
      </trkpt>
      <trkpt lat="48.69578" lon="1.75546">
        <ele>155.39999389648</ele>
        <time>2014-05-25T13:45:49.000Z</time>
      </trkpt>
      <trkpt lat="48.69568" lon="1.75549">
        <ele>155.39999389648</ele>
        <time>2014-05-25T13:45:56.000Z</time>
      </trkpt>
      <trkpt lat="48.69558" lon="1.75555">
        <ele>155.60000610352</ele>
        <time>2014-05-25T13:46:04.000Z</time>
      </trkpt>
      <trkpt lat="48.69548" lon="1.75558">
        <ele>155.60000610352</ele>
        <time>2014-05-25T13:46:11.000Z</time>
      </trkpt>
      <trkpt lat="48.69541" lon="1.75561">
        <ele>155.80000305176</ele>
        <time>2014-05-25T13:46:18.000Z</time>
      </trkpt>
      <trkpt lat="48.6953" lon="1.75565">
        <ele>155.80000305176</ele>
        <time>2014-05-25T13:46:25.000Z</time>
      </trkpt>
      <trkpt lat="48.69522" lon="1.75569">
        <ele>156</ele>
        <time>2014-05-25T13:46:31.000Z</time>
      </trkpt>
      <trkpt lat="48.69516" lon="1.75571">
        <ele>156.19999694824</ele>
        <time>2014-05-25T13:46:36.000Z</time>
      </trkpt>
      <trkpt lat="48.69509" lon="1.75576">
        <ele>156.60000610352</ele>
        <time>2014-05-25T13:46:42.000Z</time>
      </trkpt>
      <trkpt lat="48.69502" lon="1.75579">
        <ele>157</ele>
        <time>2014-05-25T13:46:48.000Z</time>
      </trkpt>
      <trkpt lat="48.69496" lon="1.75582">
        <ele>157.39999389648</ele>
        <time>2014-05-25T13:46:54.000Z</time>
      </trkpt>
      <trkpt lat="48.69488" lon="1.75586">
        <ele>157.80000305176</ele>
        <time>2014-05-25T13:47:01.000Z</time>
      </trkpt>
      <trkpt lat="48.69481" lon="1.7559">
        <ele>158.39999389648</ele>
        <time>2014-05-25T13:47:07.000Z</time>
      </trkpt>
      <trkpt lat="48.69474" lon="1.75598">
        <ele>159</ele>
        <time>2014-05-25T13:47:15.000Z</time>
      </trkpt>
      <trkpt lat="48.69465" lon="1.75599">
        <ele>159.39999389648</ele>
        <time>2014-05-25T13:47:23.000Z</time>
      </trkpt>
      <trkpt lat="48.69462" lon="1.75602">
        <ele>159.60000610352</ele>
        <time>2014-05-25T13:47:27.000Z</time>
      </trkpt>
      <trkpt lat="48.69459" lon="1.75602">
        <ele>159.80000305176</ele>
        <time>2014-05-25T13:47:30.000Z</time>
      </trkpt>
      <trkpt lat="48.69454" lon="1.75604">
        <ele>160</ele>
        <time>2014-05-25T13:47:34.000Z</time>
      </trkpt>
      <trkpt lat="48.69448" lon="1.75606">
        <ele>160.19999694824</ele>
        <time>2014-05-25T13:47:39.000Z</time>
      </trkpt>
      <trkpt lat="48.69441" lon="1.75606">
        <ele>160.60000610352</ele>
        <time>2014-05-25T13:47:46.000Z</time>
      </trkpt>
      <trkpt lat="48.69432" lon="1.75606">
        <ele>160.80000305176</ele>
        <time>2014-05-25T13:47:52.000Z</time>
      </trkpt>
      <trkpt lat="48.69423" lon="1.75607">
        <ele>161</ele>
        <time>2014-05-25T13:47:58.000Z</time>
      </trkpt>
      <trkpt lat="48.69414" lon="1.75607">
        <ele>161.19999694824</ele>
        <time>2014-05-25T13:48:06.000Z</time>
      </trkpt>
      <trkpt lat="48.69411" lon="1.75606">
        <ele>161.39999389648</ele>
        <time>2014-05-25T13:48:08.000Z</time>
      </trkpt>
      <trkpt lat="48.69405" lon="1.75604">
        <ele>161.39999389648</ele>
        <time>2014-05-25T13:48:13.000Z</time>
      </trkpt>
      <trkpt lat="48.69396" lon="1.75605">
        <ele>161.60000610352</ele>
        <time>2014-05-25T13:48:20.000Z</time>
      </trkpt>
      <trkpt lat="48.69383" lon="1.75601">
        <ele>161.80000305176</ele>
        <time>2014-05-25T13:48:29.000Z</time>
      </trkpt>
      <trkpt lat="48.69373" lon="1.756">
        <ele>161.60000610352</ele>
        <time>2014-05-25T13:48:36.000Z</time>
      </trkpt>
      <trkpt lat="48.69362" lon="1.756">
        <ele>161.60000610352</ele>
        <time>2014-05-25T13:48:43.000Z</time>
      </trkpt>
      <trkpt lat="48.69351" lon="1.75597">
        <ele>161.60000610352</ele>
        <time>2014-05-25T13:48:49.000Z</time>
      </trkpt>
      <trkpt lat="48.69345" lon="1.75593">
        <ele>161.19999694824</ele>
        <time>2014-05-25T13:48:55.000Z</time>
      </trkpt>
      <trkpt lat="48.69339" lon="1.75591">
        <ele>161</ele>
        <time>2014-05-25T13:49:01.000Z</time>
      </trkpt>
      <trkpt lat="48.69331" lon="1.75585">
        <ele>160.60000610352</ele>
        <time>2014-05-25T13:49:08.000Z</time>
      </trkpt>
      <trkpt lat="48.69323" lon="1.7558">
        <ele>160.19999694824</ele>
        <time>2014-05-25T13:49:14.000Z</time>
      </trkpt>
      <trkpt lat="48.69322" lon="1.75579">
        <ele>160</ele>
        <time>2014-05-25T13:49:15.000Z</time>
      </trkpt>
      <trkpt lat="48.69316" lon="1.75575">
        <ele>159.80000305176</ele>
        <time>2014-05-25T13:49:20.000Z</time>
      </trkpt>
      <trkpt lat="48.69309" lon="1.75569">
        <ele>159.39999389648</ele>
        <time>2014-05-25T13:49:25.000Z</time>
      </trkpt>
      <trkpt lat="48.69305" lon="1.75565">
        <ele>159.19999694824</ele>
        <time>2014-05-25T13:49:28.000Z</time>
      </trkpt>
      <trkpt lat="48.69299" lon="1.75557">
        <ele>159</ele>
        <time>2014-05-25T13:49:36.000Z</time>
      </trkpt>
      <trkpt lat="48.69294" lon="1.75549">
        <ele>158.80000305176</ele>
        <time>2014-05-25T13:49:43.000Z</time>
      </trkpt>
      <trkpt lat="48.69287" lon="1.75539">
        <ele>158.60000610352</ele>
        <time>2014-05-25T13:49:51.000Z</time>
      </trkpt>
      <trkpt lat="48.6928" lon="1.75535">
        <ele>158.39999389648</ele>
        <time>2014-05-25T13:49:58.000Z</time>
      </trkpt>
      <trkpt lat="48.69272" lon="1.75527">
        <ele>158</ele>
        <time>2014-05-25T13:50:05.000Z</time>
      </trkpt>
      <trkpt lat="48.69265" lon="1.75521">
        <ele>158</ele>
        <time>2014-05-25T13:50:11.000Z</time>
      </trkpt>
      <trkpt lat="48.6926" lon="1.75515">
        <ele>157.80000305176</ele>
        <time>2014-05-25T13:50:17.000Z</time>
      </trkpt>
      <trkpt lat="48.69252" lon="1.75507">
        <ele>157.80000305176</ele>
        <time>2014-05-25T13:50:23.000Z</time>
      </trkpt>
      <trkpt lat="48.69246" lon="1.75501">
        <ele>157.80000305176</ele>
        <time>2014-05-25T13:50:29.000Z</time>
      </trkpt>
      <trkpt lat="48.69238" lon="1.75494">
        <ele>157.60000610352</ele>
        <time>2014-05-25T13:50:36.000Z</time>
      </trkpt>
      <trkpt lat="48.69233" lon="1.7549">
        <ele>157.60000610352</ele>
        <time>2014-05-25T13:50:41.000Z</time>
      </trkpt>
      <trkpt lat="48.69229" lon="1.75488">
        <ele>157.60000610352</ele>
        <time>2014-05-25T13:50:46.000Z</time>
      </trkpt>
      <trkpt lat="48.69227" lon="1.75481">
        <ele>157.60000610352</ele>
        <time>2014-05-25T13:50:53.000Z</time>
      </trkpt>
      <trkpt lat="48.69221" lon="1.75474">
        <ele>157.60000610352</ele>
        <time>2014-05-25T13:51:00.000Z</time>
      </trkpt>
      <trkpt lat="48.69216" lon="1.75469">
        <ele>157.60000610352</ele>
        <time>2014-05-25T13:51:06.000Z</time>
      </trkpt>
      <trkpt lat="48.69209" lon="1.75465">
        <ele>157.60000610352</ele>
        <time>2014-05-25T13:51:12.000Z</time>
      </trkpt>
      <trkpt lat="48.69208" lon="1.75463">
        <ele>157.60000610352</ele>
        <time>2014-05-25T13:51:14.000Z</time>
      </trkpt>
      <trkpt lat="48.69203" lon="1.75456">
        <ele>157.60000610352</ele>
        <time>2014-05-25T13:51:19.000Z</time>
      </trkpt>
      <trkpt lat="48.69196" lon="1.75448">
        <ele>157.60000610352</ele>
        <time>2014-05-25T13:51:27.000Z</time>
      </trkpt>
      <trkpt lat="48.69193" lon="1.75443">
        <ele>157.60000610352</ele>
        <time>2014-05-25T13:51:31.000Z</time>
      </trkpt>
      <trkpt lat="48.69192" lon="1.75442">
        <ele>157.60000610352</ele>
        <time>2014-05-25T13:51:32.000Z</time>
      </trkpt>
      <trkpt lat="48.69185" lon="1.75439">
        <ele>157.60000610352</ele>
        <time>2014-05-25T13:51:38.000Z</time>
      </trkpt>
      <trkpt lat="48.6918" lon="1.75435">
        <ele>157.39999389648</ele>
        <time>2014-05-25T13:51:43.000Z</time>
      </trkpt>
      <trkpt lat="48.69172" lon="1.75426">
        <ele>157.39999389648</ele>
        <time>2014-05-25T13:51:50.000Z</time>
      </trkpt>
      <trkpt lat="48.6916" lon="1.75419">
        <ele>157.19999694824</ele>
        <time>2014-05-25T13:51:58.000Z</time>
      </trkpt>
      <trkpt lat="48.69153" lon="1.75413">
        <ele>157</ele>
        <time>2014-05-25T13:52:05.000Z</time>
      </trkpt>
      <trkpt lat="48.69144" lon="1.75402">
        <ele>157</ele>
        <time>2014-05-25T13:52:13.000Z</time>
      </trkpt>
      <trkpt lat="48.69138" lon="1.75395">
        <ele>157</ele>
        <time>2014-05-25T13:52:19.000Z</time>
      </trkpt>
      <trkpt lat="48.69134" lon="1.7539">
        <ele>157</ele>
        <time>2014-05-25T13:52:25.000Z</time>
      </trkpt>
      <trkpt lat="48.69128" lon="1.75384">
        <ele>157</ele>
        <time>2014-05-25T13:52:30.000Z</time>
      </trkpt>
      <trkpt lat="48.69119" lon="1.75376">
        <ele>157</ele>
        <time>2014-05-25T13:52:37.000Z</time>
      </trkpt>
      <trkpt lat="48.69113" lon="1.75371">
        <ele>157</ele>
        <time>2014-05-25T13:52:42.000Z</time>
      </trkpt>
      <trkpt lat="48.69102" lon="1.75365">
        <ele>157</ele>
        <time>2014-05-25T13:52:49.000Z</time>
      </trkpt>
      <trkpt lat="48.69099" lon="1.75361">
        <ele>157</ele>
        <time>2014-05-25T13:52:52.000Z</time>
      </trkpt>
      <trkpt lat="48.69094" lon="1.75353">
        <ele>157.19999694824</ele>
        <time>2014-05-25T13:52:58.000Z</time>
      </trkpt>
      <trkpt lat="48.69091" lon="1.75351">
        <ele>157.19999694824</ele>
        <time>2014-05-25T13:53:00.000Z</time>
      </trkpt>
      <trkpt lat="48.69082" lon="1.7534">
        <ele>157.19999694824</ele>
        <time>2014-05-25T13:53:10.000Z</time>
      </trkpt>
      <trkpt lat="48.69073" lon="1.75335">
        <ele>157.19999694824</ele>
        <time>2014-05-25T13:53:17.000Z</time>
      </trkpt>
      <trkpt lat="48.69072" lon="1.75334">
        <ele>157.39999389648</ele>
        <time>2014-05-25T13:53:18.000Z</time>
      </trkpt>
      <trkpt lat="48.69069" lon="1.75328">
        <ele>157.39999389648</ele>
        <time>2014-05-25T13:53:22.000Z</time>
      </trkpt>
      <trkpt lat="48.69061" lon="1.75322">
        <ele>157.39999389648</ele>
        <time>2014-05-25T13:53:28.000Z</time>
      </trkpt>
      <trkpt lat="48.69054" lon="1.75315">
        <ele>157.19999694824</ele>
        <time>2014-05-25T13:53:35.000Z</time>
      </trkpt>
      <trkpt lat="48.69046" lon="1.75309">
        <ele>157</ele>
        <time>2014-05-25T13:53:42.000Z</time>
      </trkpt>
      <trkpt lat="48.6904" lon="1.75306">
        <ele>156.80000305176</ele>
        <time>2014-05-25T13:53:47.000Z</time>
      </trkpt>
      <trkpt lat="48.69033" lon="1.75296">
        <ele>156.60000610352</ele>
        <time>2014-05-25T13:53:53.000Z</time>
      </trkpt>
      <trkpt lat="48.69032" lon="1.75295">
        <ele>156.60000610352</ele>
        <time>2014-05-25T13:53:54.000Z</time>
      </trkpt>
      <trkpt lat="48.6903" lon="1.75293">
        <ele>156.39999389648</ele>
        <time>2014-05-25T13:53:56.000Z</time>
      </trkpt>
      <trkpt lat="48.69026" lon="1.75288">
        <ele>156.19999694824</ele>
        <time>2014-05-25T13:54:00.000Z</time>
      </trkpt>
      <trkpt lat="48.69021" lon="1.75283">
        <ele>156.19999694824</ele>
        <time>2014-05-25T13:54:05.000Z</time>
      </trkpt>
      <trkpt lat="48.69015" lon="1.75277">
        <ele>155.80000305176</ele>
        <time>2014-05-25T13:54:09.000Z</time>
      </trkpt>
      <trkpt lat="48.69009" lon="1.75274">
        <ele>155.60000610352</ele>
        <time>2014-05-25T13:54:16.000Z</time>
      </trkpt>
      <trkpt lat="48.69008" lon="1.75274">
        <ele>155.60000610352</ele>
        <time>2014-05-25T13:54:17.000Z</time>
      </trkpt>
      <trkpt lat="48.68997" lon="1.75276">
        <ele>155.39999389648</ele>
        <time>2014-05-25T13:54:25.000Z</time>
      </trkpt>
      <trkpt lat="48.68989" lon="1.75277">
        <ele>155.19999694824</ele>
        <time>2014-05-25T13:54:31.000Z</time>
      </trkpt>
      <trkpt lat="48.68978" lon="1.75275">
        <ele>155</ele>
        <time>2014-05-25T13:54:39.000Z</time>
      </trkpt>
      <trkpt lat="48.68977" lon="1.75274">
        <ele>154.80000305176</ele>
        <time>2014-05-25T13:54:40.000Z</time>
      </trkpt>
      <trkpt lat="48.68972" lon="1.75274">
        <ele>154.80000305176</ele>
        <time>2014-05-25T13:54:44.000Z</time>
      </trkpt>
      <trkpt lat="48.68958" lon="1.75275">
        <ele>154.19999694824</ele>
        <time>2014-05-25T13:54:54.000Z</time>
      </trkpt>
      <trkpt lat="48.68952" lon="1.75269">
        <ele>154</ele>
        <time>2014-05-25T13:55:00.000Z</time>
      </trkpt>
      <trkpt lat="48.68943" lon="1.75259">
        <ele>153.39999389648</ele>
        <time>2014-05-25T13:55:06.000Z</time>
      </trkpt>
      <trkpt lat="48.68938" lon="1.75246">
        <ele>153.19999694824</ele>
        <time>2014-05-25T13:55:13.000Z</time>
      </trkpt>
      <trkpt lat="48.68929" lon="1.75242">
        <ele>153.19999694824</ele>
        <time>2014-05-25T13:55:20.000Z</time>
      </trkpt>
      <trkpt lat="48.68921" lon="1.75239">
        <ele>153.19999694824</ele>
        <time>2014-05-25T13:55:27.000Z</time>
      </trkpt>
      <trkpt lat="48.68915" lon="1.75234">
        <ele>153.39999389648</ele>
        <time>2014-05-25T13:55:33.000Z</time>
      </trkpt>
      <trkpt lat="48.6891" lon="1.7523">
        <ele>153.39999389648</ele>
        <time>2014-05-25T13:55:37.000Z</time>
      </trkpt>
      <trkpt lat="48.68906" lon="1.75226">
        <ele>153.60000610352</ele>
        <time>2014-05-25T13:55:42.000Z</time>
      </trkpt>
      <trkpt lat="48.68901" lon="1.75223">
        <ele>153.60000610352</ele>
        <time>2014-05-25T13:55:47.000Z</time>
      </trkpt>
      <trkpt lat="48.68896" lon="1.75216">
        <ele>153.80000305176</ele>
        <time>2014-05-25T13:55:52.000Z</time>
      </trkpt>
      <trkpt lat="48.68902" lon="1.75215">
        <ele>153.60000610352</ele>
        <time>2014-05-25T13:55:59.000Z</time>
      </trkpt>
      <trkpt lat="48.68905" lon="1.75216">
        <ele>153.60000610352</ele>
        <time>2014-05-25T13:56:05.000Z</time>
      </trkpt>
      <trkpt lat="48.68908" lon="1.75212">
        <ele>153.60000610352</ele>
        <time>2014-05-25T13:56:08.000Z</time>
      </trkpt>
      <trkpt lat="48.68913" lon="1.75203">
        <ele>153.60000610352</ele>
        <time>2014-05-25T13:56:13.000Z</time>
      </trkpt>
      <trkpt lat="48.68916" lon="1.75201">
        <ele>153.39999389648</ele>
        <time>2014-05-25T13:56:15.000Z</time>
      </trkpt>
      <trkpt lat="48.68913" lon="1.75191">
        <ele>153.60000610352</ele>
        <time>2014-05-25T13:56:21.000Z</time>
      </trkpt>
      <trkpt lat="48.68905" lon="1.75186">
        <ele>153.80000305176</ele>
        <time>2014-05-25T13:56:28.000Z</time>
      </trkpt>
      <trkpt lat="48.68903" lon="1.7518">
        <ele>153.80000305176</ele>
        <time>2014-05-25T13:56:32.000Z</time>
      </trkpt>
      <trkpt lat="48.68901" lon="1.75171">
        <ele>153.80000305176</ele>
        <time>2014-05-25T13:56:37.000Z</time>
      </trkpt>
      <trkpt lat="48.68899" lon="1.75155">
        <ele>153.80000305176</ele>
        <time>2014-05-25T13:56:46.000Z</time>
      </trkpt>
      <trkpt lat="48.68894" lon="1.75146">
        <ele>154</ele>
        <time>2014-05-25T13:56:52.000Z</time>
      </trkpt>
      <trkpt lat="48.68891" lon="1.75141">
        <ele>154</ele>
        <time>2014-05-25T13:56:56.000Z</time>
      </trkpt>
      <trkpt lat="48.68884" lon="1.75131">
        <ele>154.19999694824</ele>
        <time>2014-05-25T13:57:02.000Z</time>
      </trkpt>
      <trkpt lat="48.68877" lon="1.75115">
        <ele>154.39999389648</ele>
        <time>2014-05-25T13:57:10.000Z</time>
      </trkpt>
      <trkpt lat="48.68871" lon="1.75103">
        <ele>154.60000610352</ele>
        <time>2014-05-25T13:57:16.000Z</time>
      </trkpt>
      <trkpt lat="48.68863" lon="1.75089">
        <ele>154.80000305176</ele>
        <time>2014-05-25T13:57:24.000Z</time>
      </trkpt>
      <trkpt lat="48.68861" lon="1.75084">
        <ele>154.80000305176</ele>
        <time>2014-05-25T13:57:27.000Z</time>
      </trkpt>
      <trkpt lat="48.68853" lon="1.75074">
        <ele>155</ele>
        <time>2014-05-25T13:57:33.000Z</time>
      </trkpt>
      <trkpt lat="48.68848" lon="1.75068">
        <ele>155</ele>
        <time>2014-05-25T13:57:38.000Z</time>
      </trkpt>
      <trkpt lat="48.68846" lon="1.75058">
        <ele>155</ele>
        <time>2014-05-25T13:57:44.000Z</time>
      </trkpt>
      <trkpt lat="48.68838" lon="1.75047">
        <ele>155.19999694824</ele>
        <time>2014-05-25T13:57:51.000Z</time>
      </trkpt>
      <trkpt lat="48.68833" lon="1.75038">
        <ele>155.19999694824</ele>
        <time>2014-05-25T13:57:55.000Z</time>
      </trkpt>
      <trkpt lat="48.68829" lon="1.75028">
        <ele>155.19999694824</ele>
        <time>2014-05-25T13:58:01.000Z</time>
      </trkpt>
      <trkpt lat="48.68826" lon="1.75022">
        <ele>155.39999389648</ele>
        <time>2014-05-25T13:58:04.000Z</time>
      </trkpt>
      <trkpt lat="48.68822" lon="1.75014">
        <ele>155.39999389648</ele>
        <time>2014-05-25T13:58:09.000Z</time>
      </trkpt>
      <trkpt lat="48.68819" lon="1.75007">
        <ele>155.39999389648</ele>
        <time>2014-05-25T13:58:13.000Z</time>
      </trkpt>
      <trkpt lat="48.68817" lon="1.74999">
        <ele>155.39999389648</ele>
        <time>2014-05-25T13:58:18.000Z</time>
      </trkpt>
      <trkpt lat="48.68814" lon="1.7499">
        <ele>155.39999389648</ele>
        <time>2014-05-25T13:58:24.000Z</time>
      </trkpt>
      <trkpt lat="48.68813" lon="1.74989">
        <ele>155.39999389648</ele>
        <time>2014-05-25T13:58:25.000Z</time>
      </trkpt>
      <trkpt lat="48.6881" lon="1.74977">
        <ele>155.60000610352</ele>
        <time>2014-05-25T13:58:32.000Z</time>
      </trkpt>
      <trkpt lat="48.68808" lon="1.74972">
        <ele>155.80000305176</ele>
        <time>2014-05-25T13:58:35.000Z</time>
      </trkpt>
      <trkpt lat="48.68807" lon="1.74963">
        <ele>155.80000305176</ele>
        <time>2014-05-25T13:58:40.000Z</time>
      </trkpt>
      <trkpt lat="48.68805" lon="1.7496">
        <ele>156</ele>
        <time>2014-05-25T13:58:42.000Z</time>
      </trkpt>
      <trkpt lat="48.688" lon="1.74951">
        <ele>156</ele>
        <time>2014-05-25T13:58:49.000Z</time>
      </trkpt>
      <trkpt lat="48.68796" lon="1.74946">
        <ele>156.19999694824</ele>
        <time>2014-05-25T13:58:54.000Z</time>
      </trkpt>
      <trkpt lat="48.68795" lon="1.74945">
        <ele>156.19999694824</ele>
        <time>2014-05-25T13:58:55.000Z</time>
      </trkpt>
      <trkpt lat="48.6879" lon="1.74936">
        <ele>156.39999389648</ele>
        <time>2014-05-25T13:59:01.000Z</time>
      </trkpt>
      <trkpt lat="48.68782" lon="1.74929">
        <ele>156.60000610352</ele>
        <time>2014-05-25T13:59:07.000Z</time>
      </trkpt>
      <trkpt lat="48.68777" lon="1.74921">
        <ele>156.80000305176</ele>
        <time>2014-05-25T13:59:12.000Z</time>
      </trkpt>
      <trkpt lat="48.68773" lon="1.74917">
        <ele>156.80000305176</ele>
        <time>2014-05-25T13:59:19.000Z</time>
      </trkpt>
      <trkpt lat="48.68768" lon="1.74908">
        <ele>157</ele>
        <time>2014-05-25T13:59:24.000Z</time>
      </trkpt>
      <trkpt lat="48.68767" lon="1.74903">
        <ele>157.19999694824</ele>
        <time>2014-05-25T13:59:27.000Z</time>
      </trkpt>
      <trkpt lat="48.68767" lon="1.74898">
        <ele>157.39999389648</ele>
        <time>2014-05-25T13:59:30.000Z</time>
      </trkpt>
      <trkpt lat="48.68762" lon="1.74891">
        <ele>158</ele>
        <time>2014-05-25T13:59:35.000Z</time>
      </trkpt>
      <trkpt lat="48.68754" lon="1.74878">
        <ele>159</ele>
        <time>2014-05-25T13:59:43.000Z</time>
      </trkpt>
      <trkpt lat="48.6875" lon="1.74871">
        <ele>159.60000610352</ele>
        <time>2014-05-25T13:59:47.000Z</time>
      </trkpt>
      <trkpt lat="48.68745" lon="1.74865">
        <ele>160</ele>
        <time>2014-05-25T13:59:50.000Z</time>
      </trkpt>
      <trkpt lat="48.68745" lon="1.74862">
        <ele>160.19999694824</ele>
        <time>2014-05-25T13:59:52.000Z</time>
      </trkpt>
      <trkpt lat="48.68741" lon="1.7485">
        <ele>160.80000305176</ele>
        <time>2014-05-25T13:59:58.000Z</time>
      </trkpt>
      <trkpt lat="48.68736" lon="1.74843">
        <ele>161.39999389648</ele>
        <time>2014-05-25T14:00:03.000Z</time>
      </trkpt>
      <trkpt lat="48.68729" lon="1.74836">
        <ele>162</ele>
        <time>2014-05-25T14:00:08.000Z</time>
      </trkpt>
      <trkpt lat="48.68723" lon="1.74827">
        <ele>162.80000305176</ele>
        <time>2014-05-25T14:00:14.000Z</time>
      </trkpt>
      <trkpt lat="48.68723" lon="1.74825">
        <ele>162.80000305176</ele>
        <time>2014-05-25T14:00:15.000Z</time>
      </trkpt>
      <trkpt lat="48.68716" lon="1.7481">
        <ele>163.80000305176</ele>
        <time>2014-05-25T14:00:23.000Z</time>
      </trkpt>
      <trkpt lat="48.68713" lon="1.74798">
        <ele>164.60000610352</ele>
        <time>2014-05-25T14:00:28.000Z</time>
      </trkpt>
      <trkpt lat="48.68712" lon="1.74793">
        <ele>164.80000305176</ele>
        <time>2014-05-25T14:00:30.000Z</time>
      </trkpt>
      <trkpt lat="48.68713" lon="1.74788">
        <ele>165</ele>
        <time>2014-05-25T14:00:33.000Z</time>
      </trkpt>
      <trkpt lat="48.68711" lon="1.74784">
        <ele>165.19999694824</ele>
        <time>2014-05-25T14:00:38.000Z</time>
      </trkpt>
      <trkpt lat="48.68708" lon="1.74781">
        <ele>165.60000610352</ele>
        <time>2014-05-25T14:00:41.000Z</time>
      </trkpt>
      <trkpt lat="48.68701" lon="1.74769">
        <ele>166.60000610352</ele>
        <time>2014-05-25T14:00:47.000Z</time>
      </trkpt>
      <trkpt lat="48.68695" lon="1.7476">
        <ele>167.60000610352</ele>
        <time>2014-05-25T14:00:52.000Z</time>
      </trkpt>
      <trkpt lat="48.68685" lon="1.74741">
        <ele>169</ele>
        <time>2014-05-25T14:01:02.000Z</time>
      </trkpt>
      <trkpt lat="48.6868" lon="1.74732">
        <ele>169</ele>
        <time>2014-05-25T14:01:08.000Z</time>
      </trkpt>
      <trkpt lat="48.68679" lon="1.74725">
        <ele>169.19999694824</ele>
        <time>2014-05-25T14:01:14.000Z</time>
      </trkpt>
      <trkpt lat="48.68674" lon="1.74718">
        <ele>169.19999694824</ele>
        <time>2014-05-25T14:01:20.000Z</time>
      </trkpt>
      <trkpt lat="48.68672" lon="1.74712">
        <ele>169.39999389648</ele>
        <time>2014-05-25T14:01:25.000Z</time>
      </trkpt>
      <trkpt lat="48.68672" lon="1.74702">
        <ele>169.39999389648</ele>
        <time>2014-05-25T14:01:30.000Z</time>
      </trkpt>
      <trkpt lat="48.68665" lon="1.74691">
        <ele>169.60000610352</ele>
        <time>2014-05-25T14:01:37.000Z</time>
      </trkpt>
      <trkpt lat="48.68663" lon="1.74687">
        <ele>169.60000610352</ele>
        <time>2014-05-25T14:01:39.000Z</time>
      </trkpt>
      <trkpt lat="48.68656" lon="1.74674">
        <ele>169.80000305176</ele>
        <time>2014-05-25T14:01:47.000Z</time>
      </trkpt>
      <trkpt lat="48.68649" lon="1.74659">
        <ele>170</ele>
        <time>2014-05-25T14:01:55.000Z</time>
      </trkpt>
      <trkpt lat="48.68644" lon="1.74649">
        <ele>169.80000305176</ele>
        <time>2014-05-25T14:02:01.000Z</time>
      </trkpt>
      <trkpt lat="48.68643" lon="1.74638">
        <ele>169.39999389648</ele>
        <time>2014-05-25T14:02:09.000Z</time>
      </trkpt>
      <trkpt lat="48.68642" lon="1.74635">
        <ele>169.39999389648</ele>
        <time>2014-05-25T14:02:11.000Z</time>
      </trkpt>
      <trkpt lat="48.68636" lon="1.74621">
        <ele>168.80000305176</ele>
        <time>2014-05-25T14:02:19.000Z</time>
      </trkpt>
      <trkpt lat="48.68629" lon="1.74611">
        <ele>168.39999389648</ele>
        <time>2014-05-25T14:02:25.000Z</time>
      </trkpt>
      <trkpt lat="48.68627" lon="1.74603">
        <ele>168.19999694824</ele>
        <time>2014-05-25T14:02:29.000Z</time>
      </trkpt>
      <trkpt lat="48.68624" lon="1.74595">
        <ele>167.80000305176</ele>
        <time>2014-05-25T14:02:33.000Z</time>
      </trkpt>
      <trkpt lat="48.68622" lon="1.74586">
        <ele>167.60000610352</ele>
        <time>2014-05-25T14:02:37.000Z</time>
      </trkpt>
      <trkpt lat="48.68615" lon="1.74576">
        <ele>167.39999389648</ele>
        <time>2014-05-25T14:02:44.000Z</time>
      </trkpt>
      <trkpt lat="48.68607" lon="1.74567">
        <ele>167</ele>
        <time>2014-05-25T14:02:50.000Z</time>
      </trkpt>
      <trkpt lat="48.68603" lon="1.74559">
        <ele>166.39999389648</ele>
        <time>2014-05-25T14:02:55.000Z</time>
      </trkpt>
      <trkpt lat="48.68602" lon="1.74556">
        <ele>166</ele>
        <time>2014-05-25T14:02:57.000Z</time>
      </trkpt>
      <trkpt lat="48.68597" lon="1.74545">
        <ele>165</ele>
        <time>2014-05-25T14:03:03.000Z</time>
      </trkpt>
      <trkpt lat="48.68592" lon="1.74538">
        <ele>164.19999694824</ele>
        <time>2014-05-25T14:03:07.000Z</time>
      </trkpt>
      <trkpt lat="48.68587" lon="1.74529">
        <ele>163.19999694824</ele>
        <time>2014-05-25T14:03:13.000Z</time>
      </trkpt>
      <trkpt lat="48.68581" lon="1.74512">
        <ele>161.60000610352</ele>
        <time>2014-05-25T14:03:21.000Z</time>
      </trkpt>
      <trkpt lat="48.68575" lon="1.74502">
        <ele>160.39999389648</ele>
        <time>2014-05-25T14:03:28.000Z</time>
      </trkpt>
      <trkpt lat="48.68572" lon="1.74494">
        <ele>159.80000305176</ele>
        <time>2014-05-25T14:03:32.000Z</time>
      </trkpt>
      <trkpt lat="48.68567" lon="1.7448">
        <ele>158.39999389648</ele>
        <time>2014-05-25T14:03:40.000Z</time>
      </trkpt>
      <trkpt lat="48.68563" lon="1.74467">
        <ele>157.19999694824</ele>
        <time>2014-05-25T14:03:46.000Z</time>
      </trkpt>
      <trkpt lat="48.68568" lon="1.74456">
        <ele>156.80000305176</ele>
        <time>2014-05-25T14:03:51.000Z</time>
      </trkpt>
      <trkpt lat="48.68569" lon="1.74453">
        <ele>156.60000610352</ele>
        <time>2014-05-25T14:03:53.000Z</time>
      </trkpt>
      <trkpt lat="48.68574" lon="1.7444">
        <ele>156.19999694824</ele>
        <time>2014-05-25T14:04:00.000Z</time>
      </trkpt>
      <trkpt lat="48.68574" lon="1.74438">
        <ele>156</ele>
        <time>2014-05-25T14:04:01.000Z</time>
      </trkpt>
      <trkpt lat="48.68581" lon="1.74426">
        <ele>155.60000610352</ele>
        <time>2014-05-25T14:04:08.000Z</time>
      </trkpt>
      <trkpt lat="48.68586" lon="1.74417">
        <ele>155.39999389648</ele>
        <time>2014-05-25T14:04:14.000Z</time>
      </trkpt>
      <trkpt lat="48.68593" lon="1.74405">
        <ele>155.19999694824</ele>
        <time>2014-05-25T14:04:20.000Z</time>
      </trkpt>
      <trkpt lat="48.68594" lon="1.74404">
        <ele>155.19999694824</ele>
        <time>2014-05-25T14:04:21.000Z</time>
      </trkpt>
      <trkpt lat="48.68597" lon="1.74393">
        <ele>155.80000305176</ele>
        <time>2014-05-25T14:04:26.000Z</time>
      </trkpt>
      <trkpt lat="48.68601" lon="1.74384">
        <ele>155.80000305176</ele>
        <time>2014-05-25T14:04:31.000Z</time>
      </trkpt>
      <trkpt lat="48.68606" lon="1.74374">
        <ele>156</ele>
        <time>2014-05-25T14:04:37.000Z</time>
      </trkpt>
      <trkpt lat="48.68608" lon="1.74371">
        <ele>156.19999694824</ele>
        <time>2014-05-25T14:04:39.000Z</time>
      </trkpt>
      <trkpt lat="48.68614" lon="1.7436">
        <ele>156.60000610352</ele>
        <time>2014-05-25T14:04:45.000Z</time>
      </trkpt>
      <trkpt lat="48.68617" lon="1.74356">
        <ele>157</ele>
        <time>2014-05-25T14:04:48.000Z</time>
      </trkpt>
      <trkpt lat="48.68622" lon="1.74347">
        <ele>157.39999389648</ele>
        <time>2014-05-25T14:04:53.000Z</time>
      </trkpt>
      <trkpt lat="48.68633" lon="1.74335">
        <ele>157.39999389648</ele>
        <time>2014-05-25T14:05:01.000Z</time>
      </trkpt>
      <trkpt lat="48.68637" lon="1.74329">
        <ele>157.19999694824</ele>
        <time>2014-05-25T14:05:05.000Z</time>
      </trkpt>
      <trkpt lat="48.68646" lon="1.74316">
        <ele>157.19999694824</ele>
        <time>2014-05-25T14:05:13.000Z</time>
      </trkpt>
      <trkpt lat="48.68646" lon="1.74315">
        <ele>157.19999694824</ele>
        <time>2014-05-25T14:05:14.000Z</time>
      </trkpt>
      <trkpt lat="48.6865" lon="1.74307">
        <ele>157.80000305176</ele>
        <time>2014-05-25T14:05:20.000Z</time>
      </trkpt>
      <trkpt lat="48.68656" lon="1.743">
        <ele>158.19999694824</ele>
        <time>2014-05-25T14:05:25.000Z</time>
      </trkpt>
      <trkpt lat="48.68664" lon="1.74292">
        <ele>158.60000610352</ele>
        <time>2014-05-25T14:05:31.000Z</time>
      </trkpt>
      <trkpt lat="48.68665" lon="1.7429">
        <ele>158.60000610352</ele>
        <time>2014-05-25T14:05:32.000Z</time>
      </trkpt>
      <trkpt lat="48.6867" lon="1.74284">
        <ele>158.39999389648</ele>
        <time>2014-05-25T14:05:37.000Z</time>
      </trkpt>
      <trkpt lat="48.68675" lon="1.74277">
        <ele>158</ele>
        <time>2014-05-25T14:05:41.000Z</time>
      </trkpt>
      <trkpt lat="48.68681" lon="1.7427">
        <ele>157.80000305176</ele>
        <time>2014-05-25T14:05:48.000Z</time>
      </trkpt>
      <trkpt lat="48.68687" lon="1.74261">
        <ele>157.60000610352</ele>
        <time>2014-05-25T14:05:55.000Z</time>
      </trkpt>
      <trkpt lat="48.68693" lon="1.7425">
        <ele>158</ele>
        <time>2014-05-25T14:06:02.000Z</time>
      </trkpt>
      <trkpt lat="48.68694" lon="1.74248">
        <ele>158</ele>
        <time>2014-05-25T14:06:03.000Z</time>
      </trkpt>
      <trkpt lat="48.68698" lon="1.74237">
        <ele>157</ele>
        <time>2014-05-25T14:06:10.000Z</time>
      </trkpt>
      <trkpt lat="48.68699" lon="1.74233">
        <ele>157</ele>
        <time>2014-05-25T14:06:12.000Z</time>
      </trkpt>
      <trkpt lat="48.68699" lon="1.74218">
        <ele>157.19999694824</ele>
        <time>2014-05-25T14:06:19.000Z</time>
      </trkpt>
      <trkpt lat="48.68699" lon="1.74204">
        <ele>157.39999389648</ele>
        <time>2014-05-25T14:06:26.000Z</time>
      </trkpt>
      <trkpt lat="48.68698" lon="1.7419">
        <ele>157.60000610352</ele>
        <time>2014-05-25T14:06:33.000Z</time>
      </trkpt>
      <trkpt lat="48.68697" lon="1.74178">
        <ele>157.80000305176</ele>
        <time>2014-05-25T14:06:39.000Z</time>
      </trkpt>
      <trkpt lat="48.68699" lon="1.74177">
        <ele>157.80000305176</ele>
        <time>2014-05-25T14:06:40.000Z</time>
      </trkpt>
      <trkpt lat="48.68697" lon="1.74172">
        <ele>157.80000305176</ele>
        <time>2014-05-25T14:06:43.000Z</time>
      </trkpt>
      <trkpt lat="48.68695" lon="1.74163">
        <ele>157.80000305176</ele>
        <time>2014-05-25T14:06:48.000Z</time>
      </trkpt>
      <trkpt lat="48.68695" lon="1.74152">
        <ele>157.80000305176</ele>
        <time>2014-05-25T14:06:53.000Z</time>
      </trkpt>
      <trkpt lat="48.68695" lon="1.7414">
        <ele>158.39999389648</ele>
        <time>2014-05-25T14:06:59.000Z</time>
      </trkpt>
      <trkpt lat="48.68694" lon="1.74135">
        <ele>158.80000305176</ele>
        <time>2014-05-25T14:07:02.000Z</time>
      </trkpt>
      <trkpt lat="48.68693" lon="1.74129">
        <ele>159.19999694824</ele>
        <time>2014-05-25T14:07:06.000Z</time>
      </trkpt>
      <trkpt lat="48.68691" lon="1.74118">
        <ele>160</ele>
        <time>2014-05-25T14:07:11.000Z</time>
      </trkpt>
      <trkpt lat="48.6869" lon="1.74109">
        <ele>160.60000610352</ele>
        <time>2014-05-25T14:07:17.000Z</time>
      </trkpt>
      <trkpt lat="48.68689" lon="1.741">
        <ele>161.19999694824</ele>
        <time>2014-05-25T14:07:22.000Z</time>
      </trkpt>
      <trkpt lat="48.68681" lon="1.74085">
        <ele>162.19999694824</ele>
        <time>2014-05-25T14:07:29.000Z</time>
      </trkpt>
      <trkpt lat="48.6868" lon="1.7408">
        <ele>162.60000610352</ele>
        <time>2014-05-25T14:07:32.000Z</time>
      </trkpt>
      <trkpt lat="48.68676" lon="1.74067">
        <ele>163.19999694824</ele>
        <time>2014-05-25T14:07:38.000Z</time>
      </trkpt>
      <trkpt lat="48.68675" lon="1.74063">
        <ele>163.39999389648</ele>
        <time>2014-05-25T14:07:40.000Z</time>
      </trkpt>
      <trkpt lat="48.68676" lon="1.74057">
        <ele>163.39999389648</ele>
        <time>2014-05-25T14:07:44.000Z</time>
      </trkpt>
      <trkpt lat="48.68676" lon="1.74051">
        <ele>163.80000305176</ele>
        <time>2014-05-25T14:07:48.000Z</time>
      </trkpt>
      <trkpt lat="48.68676" lon="1.74045">
        <ele>164</ele>
        <time>2014-05-25T14:07:52.000Z</time>
      </trkpt>
      <trkpt lat="48.68673" lon="1.74034">
        <ele>164.39999389648</ele>
        <time>2014-05-25T14:07:59.000Z</time>
      </trkpt>
      <trkpt lat="48.68672" lon="1.7402">
        <ele>164.80000305176</ele>
        <time>2014-05-25T14:08:05.000Z</time>
      </trkpt>
      <trkpt lat="48.6867" lon="1.74014">
        <ele>165</ele>
        <time>2014-05-25T14:08:08.000Z</time>
      </trkpt>
      <trkpt lat="48.68669" lon="1.74004">
        <ele>165.39999389648</ele>
        <time>2014-05-25T14:08:14.000Z</time>
      </trkpt>
      <trkpt lat="48.68669" lon="1.7399">
        <ele>165.80000305176</ele>
        <time>2014-05-25T14:08:21.000Z</time>
      </trkpt>
      <trkpt lat="48.68669" lon="1.73982">
        <ele>166</ele>
        <time>2014-05-25T14:08:25.000Z</time>
      </trkpt>
      <trkpt lat="48.68668" lon="1.7397">
        <ele>166</ele>
        <time>2014-05-25T14:08:31.000Z</time>
      </trkpt>
      <trkpt lat="48.68668" lon="1.73962">
        <ele>166.19999694824</ele>
        <time>2014-05-25T14:08:35.000Z</time>
      </trkpt>
      <trkpt lat="48.68666" lon="1.7396">
        <ele>166.19999694824</ele>
        <time>2014-05-25T14:08:38.000Z</time>
      </trkpt>
      <trkpt lat="48.68665" lon="1.73953">
        <ele>166.39999389648</ele>
        <time>2014-05-25T14:08:42.000Z</time>
      </trkpt>
      <trkpt lat="48.68661" lon="1.7394">
        <ele>166.80000305176</ele>
        <time>2014-05-25T14:08:48.000Z</time>
      </trkpt>
      <trkpt lat="48.68659" lon="1.7393">
        <ele>167</ele>
        <time>2014-05-25T14:08:52.000Z</time>
      </trkpt>
      <trkpt lat="48.68655" lon="1.73922">
        <ele>167.19999694824</ele>
        <time>2014-05-25T14:08:57.000Z</time>
      </trkpt>
      <trkpt lat="48.68648" lon="1.7391">
        <ele>167.39999389648</ele>
        <time>2014-05-25T14:09:04.000Z</time>
      </trkpt>
      <trkpt lat="48.68645" lon="1.73894">
        <ele>167.80000305176</ele>
        <time>2014-05-25T14:09:11.000Z</time>
      </trkpt>
      <trkpt lat="48.6864" lon="1.73878">
        <ele>168</ele>
        <time>2014-05-25T14:09:18.000Z</time>
      </trkpt>
      <trkpt lat="48.68636" lon="1.73861">
        <ele>168.19999694824</ele>
        <time>2014-05-25T14:09:26.000Z</time>
      </trkpt>
      <trkpt lat="48.68634" lon="1.73849">
        <ele>168.39999389648</ele>
        <time>2014-05-25T14:09:32.000Z</time>
      </trkpt>
      <trkpt lat="48.68633" lon="1.73838">
        <ele>168.60000610352</ele>
        <time>2014-05-25T14:09:38.000Z</time>
      </trkpt>
      <trkpt lat="48.68634" lon="1.73837">
        <ele>168.80000305176</ele>
        <time>2014-05-25T14:09:39.000Z</time>
      </trkpt>
      <trkpt lat="48.68633" lon="1.73821">
        <ele>169</ele>
        <time>2014-05-25T14:09:47.000Z</time>
      </trkpt>
      <trkpt lat="48.68635" lon="1.73807">
        <ele>169</ele>
        <time>2014-05-25T14:09:54.000Z</time>
      </trkpt>
      <trkpt lat="48.68635" lon="1.73801">
        <ele>169</ele>
        <time>2014-05-25T14:09:57.000Z</time>
      </trkpt>
      <trkpt lat="48.68636" lon="1.73793">
        <ele>168.80000305176</ele>
        <time>2014-05-25T14:10:01.000Z</time>
      </trkpt>
      <trkpt lat="48.68631" lon="1.73773">
        <ele>168.39999389648</ele>
        <time>2014-05-25T14:10:11.000Z</time>
      </trkpt>
      <trkpt lat="48.68629" lon="1.73763">
        <ele>168.19999694824</ele>
        <time>2014-05-25T14:10:16.000Z</time>
      </trkpt>
      <trkpt lat="48.68629" lon="1.73753">
        <ele>168.39999389648</ele>
        <time>2014-05-25T14:10:21.000Z</time>
      </trkpt>
      <trkpt lat="48.68628" lon="1.73738">
        <ele>168.39999389648</ele>
        <time>2014-05-25T14:10:29.000Z</time>
      </trkpt>
      <trkpt lat="48.68627" lon="1.73728">
        <ele>167.80000305176</ele>
        <time>2014-05-25T14:10:35.000Z</time>
      </trkpt>
      <trkpt lat="48.68628" lon="1.73711">
        <ele>167</ele>
        <time>2014-05-25T14:10:43.000Z</time>
      </trkpt>
      <trkpt lat="48.68626" lon="1.73702">
        <ele>166.19999694824</ele>
        <time>2014-05-25T14:10:48.000Z</time>
      </trkpt>
      <trkpt lat="48.68626" lon="1.73695">
        <ele>165.80000305176</ele>
        <time>2014-05-25T14:10:52.000Z</time>
      </trkpt>
      <trkpt lat="48.68626" lon="1.73682">
        <ele>165</ele>
        <time>2014-05-25T14:10:58.000Z</time>
      </trkpt>
      <trkpt lat="48.68623" lon="1.73668">
        <ele>164.19999694824</ele>
        <time>2014-05-25T14:11:05.000Z</time>
      </trkpt>
      <trkpt lat="48.68621" lon="1.73654">
        <ele>163.80000305176</ele>
        <time>2014-05-25T14:11:12.000Z</time>
      </trkpt>
      <trkpt lat="48.68619" lon="1.73638">
        <ele>163.39999389648</ele>
        <time>2014-05-25T14:11:19.000Z</time>
      </trkpt>
      <trkpt lat="48.68618" lon="1.73625">
        <ele>163.39999389648</ele>
        <time>2014-05-25T14:11:25.000Z</time>
      </trkpt>
      <trkpt lat="48.68616" lon="1.73613">
        <ele>163.19999694824</ele>
        <time>2014-05-25T14:11:31.000Z</time>
      </trkpt>
      <trkpt lat="48.68614" lon="1.73607">
        <ele>163</ele>
        <time>2014-05-25T14:11:35.000Z</time>
      </trkpt>
      <trkpt lat="48.68612" lon="1.73598">
        <ele>162.80000305176</ele>
        <time>2014-05-25T14:11:41.000Z</time>
      </trkpt>
      <trkpt lat="48.68611" lon="1.73596">
        <ele>162.80000305176</ele>
        <time>2014-05-25T14:11:42.000Z</time>
      </trkpt>
      <trkpt lat="48.68609" lon="1.73591">
        <ele>162.60000610352</ele>
        <time>2014-05-25T14:11:45.000Z</time>
      </trkpt>
      <trkpt lat="48.68605" lon="1.73575">
        <ele>162.19999694824</ele>
        <time>2014-05-25T14:11:54.000Z</time>
      </trkpt>
      <trkpt lat="48.68605" lon="1.73573">
        <ele>162.19999694824</ele>
        <time>2014-05-25T14:11:55.000Z</time>
      </trkpt>
      <trkpt lat="48.68609" lon="1.73563">
        <ele>162.39999389648</ele>
        <time>2014-05-25T14:12:00.000Z</time>
      </trkpt>
      <trkpt lat="48.6861" lon="1.7356">
        <ele>162.60000610352</ele>
        <time>2014-05-25T14:12:04.000Z</time>
      </trkpt>
      <trkpt lat="48.68609" lon="1.73543">
        <ele>163</ele>
        <time>2014-05-25T14:12:16.000Z</time>
      </trkpt>
      <trkpt lat="48.68607" lon="1.73529">
        <ele>163.19999694824</ele>
        <time>2014-05-25T14:12:21.000Z</time>
      </trkpt>
      <trkpt lat="48.68605" lon="1.73521">
        <ele>163.19999694824</ele>
        <time>2014-05-25T14:12:25.000Z</time>
      </trkpt>
      <trkpt lat="48.686" lon="1.73507">
        <ele>163.80000305176</ele>
        <time>2014-05-25T14:12:31.000Z</time>
      </trkpt>
      <trkpt lat="48.68593" lon="1.73488">
        <ele>164.60000610352</ele>
        <time>2014-05-25T14:12:39.000Z</time>
      </trkpt>
      <trkpt lat="48.68593" lon="1.73476">
        <ele>164.80000305176</ele>
        <time>2014-05-25T14:12:46.000Z</time>
      </trkpt>
      <trkpt lat="48.68589" lon="1.73468">
        <ele>165.39999389648</ele>
        <time>2014-05-25T14:12:52.000Z</time>
      </trkpt>
      <trkpt lat="48.68589" lon="1.73466">
        <ele>165.39999389648</ele>
        <time>2014-05-25T14:12:53.000Z</time>
      </trkpt>
      <trkpt lat="48.6859" lon="1.73459">
        <ele>165.60000610352</ele>
        <time>2014-05-25T14:12:57.000Z</time>
      </trkpt>
      <trkpt lat="48.68591" lon="1.7345">
        <ele>166</ele>
        <time>2014-05-25T14:13:02.000Z</time>
      </trkpt>
      <trkpt lat="48.6859" lon="1.73443">
        <ele>166.19999694824</ele>
        <time>2014-05-25T14:13:06.000Z</time>
      </trkpt>
      <trkpt lat="48.68592" lon="1.73436">
        <ele>166.39999389648</ele>
        <time>2014-05-25T14:13:10.000Z</time>
      </trkpt>
      <trkpt lat="48.68592" lon="1.7343">
        <ele>166.60000610352</ele>
        <time>2014-05-25T14:13:14.000Z</time>
      </trkpt>
      <trkpt lat="48.68587" lon="1.73414">
        <ele>167.39999389648</ele>
        <time>2014-05-25T14:13:22.000Z</time>
      </trkpt>
      <trkpt lat="48.68587" lon="1.73405">
        <ele>167.80000305176</ele>
        <time>2014-05-25T14:13:27.000Z</time>
      </trkpt>
      <trkpt lat="48.68585" lon="1.73396">
        <ele>167.60000610352</ele>
        <time>2014-05-25T14:13:32.000Z</time>
      </trkpt>
      <trkpt lat="48.68583" lon="1.73395">
        <ele>167.80000305176</ele>
        <time>2014-05-25T14:13:33.000Z</time>
      </trkpt>
      <trkpt lat="48.68582" lon="1.73382">
        <ele>167.60000610352</ele>
        <time>2014-05-25T14:13:39.000Z</time>
      </trkpt>
      <trkpt lat="48.6858" lon="1.73376">
        <ele>167.60000610352</ele>
        <time>2014-05-25T14:13:42.000Z</time>
      </trkpt>
      <trkpt lat="48.68577" lon="1.73361">
        <ele>167.60000610352</ele>
        <time>2014-05-25T14:13:51.000Z</time>
      </trkpt>
      <trkpt lat="48.68574" lon="1.73351">
        <ele>167.80000305176</ele>
        <time>2014-05-25T14:13:56.000Z</time>
      </trkpt>
      <trkpt lat="48.68573" lon="1.73349">
        <ele>167.80000305176</ele>
        <time>2014-05-25T14:13:57.000Z</time>
      </trkpt>
      <trkpt lat="48.68568" lon="1.7333">
        <ele>167.80000305176</ele>
        <time>2014-05-25T14:14:06.000Z</time>
      </trkpt>
      <trkpt lat="48.68567" lon="1.73318">
        <ele>167.80000305176</ele>
        <time>2014-05-25T14:14:12.000Z</time>
      </trkpt>
      <trkpt lat="48.68567" lon="1.73315">
        <ele>167.80000305176</ele>
        <time>2014-05-25T14:14:13.000Z</time>
      </trkpt>
      <trkpt lat="48.68565" lon="1.73301">
        <ele>167.39999389648</ele>
        <time>2014-05-25T14:14:20.000Z</time>
      </trkpt>
      <trkpt lat="48.68563" lon="1.73282">
        <ele>167</ele>
        <time>2014-05-25T14:14:29.000Z</time>
      </trkpt>
      <trkpt lat="48.68563" lon="1.73272">
        <ele>166.80000305176</ele>
        <time>2014-05-25T14:14:34.000Z</time>
      </trkpt>
      <trkpt lat="48.68563" lon="1.7326">
        <ele>166.80000305176</ele>
        <time>2014-05-25T14:14:40.000Z</time>
      </trkpt>
      <trkpt lat="48.68564" lon="1.73258">
        <ele>166.80000305176</ele>
        <time>2014-05-25T14:14:41.000Z</time>
      </trkpt>
      <trkpt lat="48.68563" lon="1.73251">
        <ele>166.60000610352</ele>
        <time>2014-05-25T14:14:45.000Z</time>
      </trkpt>
      <trkpt lat="48.6856" lon="1.73232">
        <ele>166.39999389648</ele>
        <time>2014-05-25T14:14:55.000Z</time>
      </trkpt>
      <trkpt lat="48.68558" lon="1.73216">
        <ele>166.19999694824</ele>
        <time>2014-05-25T14:15:03.000Z</time>
      </trkpt>
      <trkpt lat="48.68555" lon="1.73204">
        <ele>166.19999694824</ele>
        <time>2014-05-25T14:15:09.000Z</time>
      </trkpt>
      <trkpt lat="48.68554" lon="1.73194">
        <ele>166</ele>
        <time>2014-05-25T14:15:14.000Z</time>
      </trkpt>
      <trkpt lat="48.68555" lon="1.7318">
        <ele>166.39999389648</ele>
        <time>2014-05-25T14:15:21.000Z</time>
      </trkpt>
      <trkpt lat="48.68554" lon="1.7317">
        <ele>166.80000305176</ele>
        <time>2014-05-25T14:15:27.000Z</time>
      </trkpt>
      <trkpt lat="48.6855" lon="1.73154">
        <ele>167.39999389648</ele>
        <time>2014-05-25T14:15:36.000Z</time>
      </trkpt>
      <trkpt lat="48.6855" lon="1.73152">
        <ele>167.39999389648</ele>
        <time>2014-05-25T14:15:37.000Z</time>
      </trkpt>
      <trkpt lat="48.68549" lon="1.73143">
        <ele>167.60000610352</ele>
        <time>2014-05-25T14:15:42.000Z</time>
      </trkpt>
      <trkpt lat="48.68545" lon="1.73123">
        <ele>167.60000610352</ele>
        <time>2014-05-25T14:15:52.000Z</time>
      </trkpt>
      <trkpt lat="48.68543" lon="1.73108">
        <ele>167.60000610352</ele>
        <time>2014-05-25T14:15:59.000Z</time>
      </trkpt>
      <trkpt lat="48.68543" lon="1.73101">
        <ele>167.80000305176</ele>
        <time>2014-05-25T14:16:03.000Z</time>
      </trkpt>
      <trkpt lat="48.6854" lon="1.7309">
        <ele>167.80000305176</ele>
        <time>2014-05-25T14:16:09.000Z</time>
      </trkpt>
      <trkpt lat="48.68538" lon="1.73075">
        <ele>167.39999389648</ele>
        <time>2014-05-25T14:16:17.000Z</time>
      </trkpt>
      <trkpt lat="48.68538" lon="1.73062">
        <ele>167.60000610352</ele>
        <time>2014-05-25T14:16:24.000Z</time>
      </trkpt>
      <trkpt lat="48.68537" lon="1.73049">
        <ele>167.60000610352</ele>
        <time>2014-05-25T14:16:31.000Z</time>
      </trkpt>
      <trkpt lat="48.68536" lon="1.73045">
        <ele>167.60000610352</ele>
        <time>2014-05-25T14:16:33.000Z</time>
      </trkpt>
      <trkpt lat="48.68533" lon="1.73029">
        <ele>167.80000305176</ele>
        <time>2014-05-25T14:16:41.000Z</time>
      </trkpt>
      <trkpt lat="48.68532" lon="1.73023">
        <ele>167.80000305176</ele>
        <time>2014-05-25T14:16:44.000Z</time>
      </trkpt>
      <trkpt lat="48.6853" lon="1.73012">
        <ele>168</ele>
        <time>2014-05-25T14:16:50.000Z</time>
      </trkpt>
      <trkpt lat="48.68529" lon="1.7301">
        <ele>168</ele>
        <time>2014-05-25T14:16:51.000Z</time>
      </trkpt>
      <trkpt lat="48.68526" lon="1.72991">
        <ele>168.19999694824</ele>
        <time>2014-05-25T14:17:00.000Z</time>
      </trkpt>
      <trkpt lat="48.68524" lon="1.72971">
        <ele>168.80000305176</ele>
        <time>2014-05-25T14:17:10.000Z</time>
      </trkpt>
      <trkpt lat="48.68524" lon="1.72969">
        <ele>168.80000305176</ele>
        <time>2014-05-25T14:17:11.000Z</time>
      </trkpt>
      <trkpt lat="48.68524" lon="1.72962">
        <ele>169</ele>
        <time>2014-05-25T14:17:15.000Z</time>
      </trkpt>
      <trkpt lat="48.68522" lon="1.72949">
        <ele>169.39999389648</ele>
        <time>2014-05-25T14:17:21.000Z</time>
      </trkpt>
      <trkpt lat="48.6852" lon="1.72933">
        <ele>170</ele>
        <time>2014-05-25T14:17:29.000Z</time>
      </trkpt>
      <trkpt lat="48.68521" lon="1.72919">
        <ele>170.39999389648</ele>
        <time>2014-05-25T14:17:36.000Z</time>
      </trkpt>
      <trkpt lat="48.68519" lon="1.729">
        <ele>171.19999694824</ele>
        <time>2014-05-25T14:17:45.000Z</time>
      </trkpt>
      <trkpt lat="48.68518" lon="1.72892">
        <ele>171.39999389648</ele>
        <time>2014-05-25T14:17:49.000Z</time>
      </trkpt>
      <trkpt lat="48.68519" lon="1.72877">
        <ele>172</ele>
        <time>2014-05-25T14:17:57.000Z</time>
      </trkpt>
      <trkpt lat="48.68519" lon="1.72869">
        <ele>172.19999694824</ele>
        <time>2014-05-25T14:18:01.000Z</time>
      </trkpt>
      <trkpt lat="48.68517" lon="1.72858">
        <ele>172.60000610352</ele>
        <time>2014-05-25T14:18:07.000Z</time>
      </trkpt>
      <trkpt lat="48.68515" lon="1.72851">
        <ele>173</ele>
        <time>2014-05-25T14:18:11.000Z</time>
      </trkpt>
      <trkpt lat="48.68514" lon="1.72847">
        <ele>173</ele>
        <time>2014-05-25T14:18:13.000Z</time>
      </trkpt>
      <trkpt lat="48.68515" lon="1.72828">
        <ele>173.80000305176</ele>
        <time>2014-05-25T14:18:21.000Z</time>
      </trkpt>
      <trkpt lat="48.68514" lon="1.72811">
        <ele>174.19999694824</ele>
        <time>2014-05-25T14:18:29.000Z</time>
      </trkpt>
      <trkpt lat="48.68513" lon="1.72794">
        <ele>174.19999694824</ele>
        <time>2014-05-25T14:18:37.000Z</time>
      </trkpt>
      <trkpt lat="48.68514" lon="1.72785">
        <ele>174.19999694824</ele>
        <time>2014-05-25T14:18:41.000Z</time>
      </trkpt>
      <trkpt lat="48.68514" lon="1.72783">
        <ele>174.19999694824</ele>
        <time>2014-05-25T14:18:45.000Z</time>
      </trkpt>
      <trkpt lat="48.68508" lon="1.72712">
        <ele>174.60000610352</ele>
        <time>2014-05-25T14:19:51.000Z</time>
      </trkpt>
      <trkpt lat="48.68507" lon="1.72707">
        <ele>174.60000610352</ele>
        <time>2014-05-25T14:19:53.000Z</time>
      </trkpt>
      <trkpt lat="48.68507" lon="1.72694">
        <ele>174.80000305176</ele>
        <time>2014-05-25T14:20:00.000Z</time>
      </trkpt>
      <trkpt lat="48.68506" lon="1.72681">
        <ele>175</ele>
        <time>2014-05-25T14:20:07.000Z</time>
      </trkpt>
      <trkpt lat="48.68509" lon="1.72674">
        <ele>175</ele>
        <time>2014-05-25T14:20:11.000Z</time>
      </trkpt>
      <trkpt lat="48.68507" lon="1.7266">
        <ele>175.19999694824</ele>
        <time>2014-05-25T14:20:19.000Z</time>
      </trkpt>
      <trkpt lat="48.68507" lon="1.72655">
        <ele>175.19999694824</ele>
        <time>2014-05-25T14:20:22.000Z</time>
      </trkpt>
      <trkpt lat="48.68506" lon="1.72646">
        <ele>175</ele>
        <time>2014-05-25T14:20:26.000Z</time>
      </trkpt>
      <trkpt lat="48.68508" lon="1.72628">
        <ele>175</ele>
        <time>2014-05-25T14:20:34.000Z</time>
      </trkpt>
      <trkpt lat="48.68508" lon="1.72626">
        <ele>175</ele>
        <time>2014-05-25T14:20:35.000Z</time>
      </trkpt>
      <trkpt lat="48.68509" lon="1.7262">
        <ele>175.19999694824</ele>
        <time>2014-05-25T14:20:39.000Z</time>
      </trkpt>
      <trkpt lat="48.68507" lon="1.72612">
        <ele>175.19999694824</ele>
        <time>2014-05-25T14:20:44.000Z</time>
      </trkpt>
      <trkpt lat="48.68506" lon="1.72607">
        <ele>175.19999694824</ele>
        <time>2014-05-25T14:20:47.000Z</time>
      </trkpt>
      <trkpt lat="48.68503" lon="1.72599">
        <ele>175.19999694824</ele>
        <time>2014-05-25T14:20:51.000Z</time>
      </trkpt>
      <trkpt lat="48.685" lon="1.72593">
        <ele>175.19999694824</ele>
        <time>2014-05-25T14:20:55.000Z</time>
      </trkpt>
      <trkpt lat="48.68496" lon="1.72582">
        <ele>175.39999389648</ele>
        <time>2014-05-25T14:21:01.000Z</time>
      </trkpt>
      <trkpt lat="48.68493" lon="1.72565">
        <ele>175.19999694824</ele>
        <time>2014-05-25T14:21:09.000Z</time>
      </trkpt>
      <trkpt lat="48.68487" lon="1.7255">
        <ele>175</ele>
        <time>2014-05-25T14:21:16.000Z</time>
      </trkpt>
      <trkpt lat="48.68483" lon="1.72531">
        <ele>174.60000610352</ele>
        <time>2014-05-25T14:21:25.000Z</time>
      </trkpt>
      <trkpt lat="48.68484" lon="1.72528">
        <ele>174.80000305176</ele>
        <time>2014-05-25T14:21:27.000Z</time>
      </trkpt>
      <trkpt lat="48.68489" lon="1.7251">
        <ele>175</ele>
        <time>2014-05-25T14:21:36.000Z</time>
      </trkpt>
      <trkpt lat="48.68492" lon="1.72499">
        <ele>175</ele>
        <time>2014-05-25T14:21:42.000Z</time>
      </trkpt>
      <trkpt lat="48.68493" lon="1.72494">
        <ele>175</ele>
        <time>2014-05-25T14:21:45.000Z</time>
      </trkpt>
      <trkpt lat="48.68493" lon="1.72483">
        <ele>175.19999694824</ele>
        <time>2014-05-25T14:21:52.000Z</time>
      </trkpt>
      <trkpt lat="48.6849" lon="1.72477">
        <ele>175.60000610352</ele>
        <time>2014-05-25T14:21:56.000Z</time>
      </trkpt>
      <trkpt lat="48.6849" lon="1.72461">
        <ele>176.39999389648</ele>
        <time>2014-05-25T14:22:04.000Z</time>
      </trkpt>
      <trkpt lat="48.68488" lon="1.72456">
        <ele>176.80000305176</ele>
        <time>2014-05-25T14:22:07.000Z</time>
      </trkpt>
      <trkpt lat="48.68488" lon="1.7244">
        <ele>177.19999694824</ele>
        <time>2014-05-25T14:22:15.000Z</time>
      </trkpt>
      <trkpt lat="48.68486" lon="1.72429">
        <ele>177.39999389648</ele>
        <time>2014-05-25T14:22:21.000Z</time>
      </trkpt>
      <trkpt lat="48.68484" lon="1.7242">
        <ele>177.60000610352</ele>
        <time>2014-05-25T14:22:26.000Z</time>
      </trkpt>
      <trkpt lat="48.68483" lon="1.72414">
        <ele>177.80000305176</ele>
        <time>2014-05-25T14:22:29.000Z</time>
      </trkpt>
      <trkpt lat="48.68483" lon="1.724">
        <ele>178</ele>
        <time>2014-05-25T14:22:36.000Z</time>
      </trkpt>
      <trkpt lat="48.68482" lon="1.72397">
        <ele>178</ele>
        <time>2014-05-25T14:22:38.000Z</time>
      </trkpt>
      <trkpt lat="48.68481" lon="1.72381">
        <ele>178.19999694824</ele>
        <time>2014-05-25T14:22:46.000Z</time>
      </trkpt>
      <trkpt lat="48.6848" lon="1.72369">
        <ele>178.39999389648</ele>
        <time>2014-05-25T14:22:52.000Z</time>
      </trkpt>
      <trkpt lat="48.6848" lon="1.72362">
        <ele>178.39999389648</ele>
        <time>2014-05-25T14:22:56.000Z</time>
      </trkpt>
      <trkpt lat="48.68481" lon="1.72352">
        <ele>178.39999389648</ele>
        <time>2014-05-25T14:23:02.000Z</time>
      </trkpt>
      <trkpt lat="48.68481" lon="1.72351">
        <ele>178.39999389648</ele>
        <time>2014-05-25T14:23:03.000Z</time>
      </trkpt>
      <trkpt lat="48.68482" lon="1.72337">
        <ele>178.19999694824</ele>
        <time>2014-05-25T14:23:10.000Z</time>
      </trkpt>
      <trkpt lat="48.68483" lon="1.72322">
        <ele>178</ele>
        <time>2014-05-25T14:23:17.000Z</time>
      </trkpt>
      <trkpt lat="48.68482" lon="1.72313">
        <ele>178</ele>
        <time>2014-05-25T14:23:21.000Z</time>
      </trkpt>
      <trkpt lat="48.68482" lon="1.72306">
        <ele>177.80000305176</ele>
        <time>2014-05-25T14:23:25.000Z</time>
      </trkpt>
      <trkpt lat="48.68483" lon="1.72293">
        <ele>177.80000305176</ele>
        <time>2014-05-25T14:23:32.000Z</time>
      </trkpt>
      <trkpt lat="48.68483" lon="1.72278">
        <ele>178</ele>
        <time>2014-05-25T14:23:40.000Z</time>
      </trkpt>
      <trkpt lat="48.68482" lon="1.7226">
        <ele>178.19999694824</ele>
        <time>2014-05-25T14:23:50.000Z</time>
      </trkpt>
      <trkpt lat="48.68479" lon="1.72246">
        <ele>178.39999389648</ele>
        <time>2014-05-25T14:23:58.000Z</time>
      </trkpt>
      <trkpt lat="48.6848" lon="1.72233">
        <ele>178.39999389648</ele>
        <time>2014-05-25T14:24:05.000Z</time>
      </trkpt>
      <trkpt lat="48.6848" lon="1.7223">
        <ele>178.39999389648</ele>
        <time>2014-05-25T14:24:07.000Z</time>
      </trkpt>
      <trkpt lat="48.68479" lon="1.72218">
        <ele>178.39999389648</ele>
        <time>2014-05-25T14:24:13.000Z</time>
      </trkpt>
      <trkpt lat="48.6848" lon="1.72213">
        <ele>178.39999389648</ele>
        <time>2014-05-25T14:24:16.000Z</time>
      </trkpt>
      <trkpt lat="48.68479" lon="1.72199">
        <ele>178.39999389648</ele>
        <time>2014-05-25T14:24:24.000Z</time>
      </trkpt>
      <trkpt lat="48.68477" lon="1.72194">
        <ele>178.60000610352</ele>
        <time>2014-05-25T14:24:28.000Z</time>
      </trkpt>
      <trkpt lat="48.68475" lon="1.72191">
        <ele>178.60000610352</ele>
        <time>2014-05-25T14:24:30.000Z</time>
      </trkpt>
      <trkpt lat="48.68475" lon="1.72178">
        <ele>178.80000305176</ele>
        <time>2014-05-25T14:24:37.000Z</time>
      </trkpt>
      <trkpt lat="48.68473" lon="1.72166">
        <ele>178.80000305176</ele>
        <time>2014-05-25T14:24:43.000Z</time>
      </trkpt>
      <trkpt lat="48.68474" lon="1.72153">
        <ele>179</ele>
        <time>2014-05-25T14:24:49.000Z</time>
      </trkpt>
      <trkpt lat="48.68473" lon="1.72148">
        <ele>179</ele>
        <time>2014-05-25T14:24:52.000Z</time>
      </trkpt>
      <trkpt lat="48.68472" lon="1.72134">
        <ele>179</ele>
        <time>2014-05-25T14:25:00.000Z</time>
      </trkpt>
      <trkpt lat="48.68471" lon="1.72119">
        <ele>179</ele>
        <time>2014-05-25T14:25:07.000Z</time>
      </trkpt>
      <trkpt lat="48.68473" lon="1.72106">
        <ele>179</ele>
        <time>2014-05-25T14:25:14.000Z</time>
      </trkpt>
      <trkpt lat="48.68473" lon="1.72096">
        <ele>178.80000305176</ele>
        <time>2014-05-25T14:25:20.000Z</time>
      </trkpt>
      <trkpt lat="48.68473" lon="1.72095">
        <ele>178.80000305176</ele>
        <time>2014-05-25T14:25:23.000Z</time>
      </trkpt>
      <trkpt lat="48.68474" lon="1.72085">
        <ele>178.39999389648</ele>
        <time>2014-05-25T14:25:32.000Z</time>
      </trkpt>
      <trkpt lat="48.68472" lon="1.72073">
        <ele>178.19999694824</ele>
        <time>2014-05-25T14:25:37.000Z</time>
      </trkpt>
      <trkpt lat="48.6847" lon="1.72061">
        <ele>178.19999694824</ele>
        <time>2014-05-25T14:25:43.000Z</time>
      </trkpt>
      <trkpt lat="48.6847" lon="1.72059">
        <ele>178.19999694824</ele>
        <time>2014-05-25T14:25:44.000Z</time>
      </trkpt>
      <trkpt lat="48.68469" lon="1.72042">
        <ele>178.19999694824</ele>
        <time>2014-05-25T14:25:52.000Z</time>
      </trkpt>
      <trkpt lat="48.68468" lon="1.72028">
        <ele>178.19999694824</ele>
        <time>2014-05-25T14:25:59.000Z</time>
      </trkpt>
      <trkpt lat="48.68469" lon="1.72017">
        <ele>178.19999694824</ele>
        <time>2014-05-25T14:26:05.000Z</time>
      </trkpt>
      <trkpt lat="48.68468" lon="1.72008">
        <ele>178.39999389648</ele>
        <time>2014-05-25T14:26:11.000Z</time>
      </trkpt>
      <trkpt lat="48.68467" lon="1.71998">
        <ele>178.39999389648</ele>
        <time>2014-05-25T14:26:16.000Z</time>
      </trkpt>
      <trkpt lat="48.68467" lon="1.71993">
        <ele>178.60000610352</ele>
        <time>2014-05-25T14:26:18.000Z</time>
      </trkpt>
      <trkpt lat="48.68467" lon="1.71988">
        <ele>178.60000610352</ele>
        <time>2014-05-25T14:26:20.000Z</time>
      </trkpt>
      <trkpt lat="48.68466" lon="1.71973">
        <ele>178.80000305176</ele>
        <time>2014-05-25T14:26:27.000Z</time>
      </trkpt>
      <trkpt lat="48.68465" lon="1.71958">
        <ele>179</ele>
        <time>2014-05-25T14:26:35.000Z</time>
      </trkpt>
      <trkpt lat="48.68462" lon="1.71941">
        <ele>179.19999694824</ele>
        <time>2014-05-25T14:26:43.000Z</time>
      </trkpt>
      <trkpt lat="48.68458" lon="1.71923">
        <ele>179.39999389648</ele>
        <time>2014-05-25T14:26:51.000Z</time>
      </trkpt>
      <trkpt lat="48.68459" lon="1.71919">
        <ele>179.39999389648</ele>
        <time>2014-05-25T14:26:53.000Z</time>
      </trkpt>
      <trkpt lat="48.68458" lon="1.71912">
        <ele>179.39999389648</ele>
        <time>2014-05-25T14:26:57.000Z</time>
      </trkpt>
      <trkpt lat="48.68457" lon="1.719">
        <ele>179.60000610352</ele>
        <time>2014-05-25T14:27:04.000Z</time>
      </trkpt>
      <trkpt lat="48.68457" lon="1.71895">
        <ele>179.60000610352</ele>
        <time>2014-05-25T14:27:06.000Z</time>
      </trkpt>
      <trkpt lat="48.68457" lon="1.71879">
        <ele>179.80000305176</ele>
        <time>2014-05-25T14:27:13.000Z</time>
      </trkpt>
      <trkpt lat="48.68456" lon="1.71868">
        <ele>180</ele>
        <time>2014-05-25T14:27:17.000Z</time>
      </trkpt>
      <trkpt lat="48.68454" lon="1.71855">
        <ele>180.19999694824</ele>
        <time>2014-05-25T14:27:24.000Z</time>
      </trkpt>
      <trkpt lat="48.68452" lon="1.71845">
        <ele>180.39999389648</ele>
        <time>2014-05-25T14:27:29.000Z</time>
      </trkpt>
      <trkpt lat="48.68452" lon="1.71832">
        <ele>180.39999389648</ele>
        <time>2014-05-25T14:27:36.000Z</time>
      </trkpt>
      <trkpt lat="48.6845" lon="1.71824">
        <ele>180.39999389648</ele>
        <time>2014-05-25T14:27:40.000Z</time>
      </trkpt>
      <trkpt lat="48.68446" lon="1.71825">
        <ele>180.60000610352</ele>
        <time>2014-05-25T14:27:46.000Z</time>
      </trkpt>
      <trkpt lat="48.68442" lon="1.71832">
        <ele>180.80000305176</ele>
        <time>2014-05-25T14:27:49.000Z</time>
      </trkpt>
      <trkpt lat="48.68427" lon="1.71857">
        <ele>180.60000610352</ele>
        <time>2014-05-25T14:27:56.000Z</time>
      </trkpt>
      <trkpt lat="48.68417" lon="1.71874">
        <ele>180.39999389648</ele>
        <time>2014-05-25T14:28:01.000Z</time>
      </trkpt>
      <trkpt lat="48.68406" lon="1.71892">
        <ele>180.60000610352</ele>
        <time>2014-05-25T14:28:06.000Z</time>
      </trkpt>
      <trkpt lat="48.68389" lon="1.71918">
        <ele>181</ele>
        <time>2014-05-25T14:28:13.000Z</time>
      </trkpt>
      <trkpt lat="48.68372" lon="1.71945">
        <ele>180.80000305176</ele>
        <time>2014-05-25T14:28:20.000Z</time>
      </trkpt>
      <trkpt lat="48.68359" lon="1.71966">
        <ele>180.39999389648</ele>
        <time>2014-05-25T14:28:26.000Z</time>
      </trkpt>
      <trkpt lat="48.68343" lon="1.71991">
        <ele>180.39999389648</ele>
        <time>2014-05-25T14:28:33.000Z</time>
      </trkpt>
      <trkpt lat="48.68324" lon="1.72022">
        <ele>181.39999389648</ele>
        <time>2014-05-25T14:28:41.000Z</time>
      </trkpt>
      <trkpt lat="48.6831" lon="1.72046">
        <ele>181.60000610352</ele>
        <time>2014-05-25T14:28:47.000Z</time>
      </trkpt>
      <trkpt lat="48.68297" lon="1.72068">
        <ele>181.39999389648</ele>
        <time>2014-05-25T14:28:53.000Z</time>
      </trkpt>
      <trkpt lat="48.68281" lon="1.72092">
        <ele>181.39999389648</ele>
        <time>2014-05-25T14:29:00.000Z</time>
      </trkpt>
      <trkpt lat="48.68266" lon="1.72115">
        <ele>181</ele>
        <time>2014-05-25T14:29:07.000Z</time>
      </trkpt>
      <trkpt lat="48.6826" lon="1.72124">
        <ele>180.80000305176</ele>
        <time>2014-05-25T14:29:13.000Z</time>
      </trkpt>
      <trkpt lat="48.68258" lon="1.72129">
        <ele>180.80000305176</ele>
        <time>2014-05-25T14:29:15.000Z</time>
      </trkpt>
      <trkpt lat="48.68254" lon="1.72138">
        <ele>180.60000610352</ele>
        <time>2014-05-25T14:29:21.000Z</time>
      </trkpt>
      <trkpt lat="48.68244" lon="1.72157">
        <ele>180.80000305176</ele>
        <time>2014-05-25T14:29:30.000Z</time>
      </trkpt>
      <trkpt lat="48.6824" lon="1.72163">
        <ele>181</ele>
        <time>2014-05-25T14:29:35.000Z</time>
      </trkpt>
      <trkpt lat="48.68232" lon="1.72176">
        <ele>181</ele>
        <time>2014-05-25T14:29:42.000Z</time>
      </trkpt>
      <trkpt lat="48.68225" lon="1.72187">
        <ele>181.19999694824</ele>
        <time>2014-05-25T14:29:49.000Z</time>
      </trkpt>
      <trkpt lat="48.68219" lon="1.72201">
        <ele>180.80000305176</ele>
        <time>2014-05-25T14:29:56.000Z</time>
      </trkpt>
      <trkpt lat="48.68215" lon="1.7221">
        <ele>180.60000610352</ele>
        <time>2014-05-25T14:30:01.000Z</time>
      </trkpt>
      <trkpt lat="48.68212" lon="1.72215">
        <ele>180.60000610352</ele>
        <time>2014-05-25T14:30:05.000Z</time>
      </trkpt>
      <trkpt lat="48.68203" lon="1.72227">
        <ele>180.19999694824</ele>
        <time>2014-05-25T14:30:14.000Z</time>
      </trkpt>
      <trkpt lat="48.68201" lon="1.72229">
        <ele>180.19999694824</ele>
        <time>2014-05-25T14:30:16.000Z</time>
      </trkpt>
      <trkpt lat="48.68195" lon="1.72241">
        <ele>180</ele>
        <time>2014-05-25T14:30:23.000Z</time>
      </trkpt>
      <trkpt lat="48.68187" lon="1.7225">
        <ele>179.80000305176</ele>
        <time>2014-05-25T14:30:30.000Z</time>
      </trkpt>
      <trkpt lat="48.68181" lon="1.72261">
        <ele>179.39999389648</ele>
        <time>2014-05-25T14:30:36.000Z</time>
      </trkpt>
      <trkpt lat="48.68177" lon="1.72267">
        <ele>179.19999694824</ele>
        <time>2014-05-25T14:30:40.000Z</time>
      </trkpt>
      <trkpt lat="48.68173" lon="1.72278">
        <ele>178.80000305176</ele>
        <time>2014-05-25T14:30:45.000Z</time>
      </trkpt>
      <trkpt lat="48.68164" lon="1.72291">
        <ele>178.19999694824</ele>
        <time>2014-05-25T14:30:54.000Z</time>
      </trkpt>
      <trkpt lat="48.68157" lon="1.72301">
        <ele>178.39999389648</ele>
        <time>2014-05-25T14:31:01.000Z</time>
      </trkpt>
      <trkpt lat="48.68156" lon="1.72303">
        <ele>178.39999389648</ele>
        <time>2014-05-25T14:31:02.000Z</time>
      </trkpt>
      <trkpt lat="48.6815" lon="1.72315">
        <ele>178.80000305176</ele>
        <time>2014-05-25T14:31:09.000Z</time>
      </trkpt>
      <trkpt lat="48.68144" lon="1.72327">
        <ele>179</ele>
        <time>2014-05-25T14:31:15.000Z</time>
      </trkpt>
      <trkpt lat="48.68139" lon="1.72338">
        <ele>178.80000305176</ele>
        <time>2014-05-25T14:31:21.000Z</time>
      </trkpt>
      <trkpt lat="48.68131" lon="1.72343">
        <ele>178.80000305176</ele>
        <time>2014-05-25T14:31:28.000Z</time>
      </trkpt>
      <trkpt lat="48.68127" lon="1.72348">
        <ele>178.80000305176</ele>
        <time>2014-05-25T14:31:34.000Z</time>
      </trkpt>
      <trkpt lat="48.68127" lon="1.72348">
        <ele>178.80000305176</ele>
        <time>2014-05-25T14:31:35.000Z</time>
      </trkpt>
      <trkpt lat="48.68119" lon="1.72338">
        <ele>179</ele>
        <time>2014-05-25T14:32:00.000Z</time>
      </trkpt>
      <trkpt lat="48.68103" lon="1.72329">
        <ele>179.39999389648</ele>
        <time>2014-05-25T14:32:05.000Z</time>
      </trkpt>
      <trkpt lat="48.68085" lon="1.72318">
        <ele>178.19999694824</ele>
        <time>2014-05-25T14:32:12.000Z</time>
      </trkpt>
      <trkpt lat="48.68061" lon="1.72306">
        <ele>177</ele>
        <time>2014-05-25T14:32:21.000Z</time>
      </trkpt>
      <trkpt lat="48.68036" lon="1.72292">
        <ele>175.80000305176</ele>
        <time>2014-05-25T14:32:30.000Z</time>
      </trkpt>
      <trkpt lat="48.6801" lon="1.72278">
        <ele>175.19999694824</ele>
        <time>2014-05-25T14:32:39.000Z</time>
      </trkpt>
      <trkpt lat="48.67982" lon="1.72264">
        <ele>175.39999389648</ele>
        <time>2014-05-25T14:32:48.000Z</time>
      </trkpt>
      <trkpt lat="48.67955" lon="1.7225">
        <ele>175.80000305176</ele>
        <time>2014-05-25T14:32:57.000Z</time>
      </trkpt>
      <trkpt lat="48.67934" lon="1.72238">
        <ele>176</ele>
        <time>2014-05-25T14:33:04.000Z</time>
      </trkpt>
      <trkpt lat="48.67909" lon="1.72225">
        <ele>176.19999694824</ele>
        <time>2014-05-25T14:33:12.000Z</time>
      </trkpt>
      <trkpt lat="48.67888" lon="1.72214">
        <ele>176.19999694824</ele>
        <time>2014-05-25T14:33:19.000Z</time>
      </trkpt>
      <trkpt lat="48.67858" lon="1.72199">
        <ele>176.39999389648</ele>
        <time>2014-05-25T14:33:28.000Z</time>
      </trkpt>
      <trkpt lat="48.67829" lon="1.72183">
        <ele>175.80000305176</ele>
        <time>2014-05-25T14:33:38.000Z</time>
      </trkpt>
      <trkpt lat="48.67807" lon="1.72171">
        <ele>175.19999694824</ele>
        <time>2014-05-25T14:33:46.000Z</time>
      </trkpt>
      <trkpt lat="48.67778" lon="1.72156">
        <ele>174.39999389648</ele>
        <time>2014-05-25T14:33:56.000Z</time>
      </trkpt>
      <trkpt lat="48.67751" lon="1.72142">
        <ele>173</ele>
        <time>2014-05-25T14:34:05.000Z</time>
      </trkpt>
      <trkpt lat="48.67733" lon="1.72133">
        <ele>171.80000305176</ele>
        <time>2014-05-25T14:34:12.000Z</time>
      </trkpt>
      <trkpt lat="48.67724" lon="1.72128">
        <ele>171.39999389648</ele>
        <time>2014-05-25T14:34:18.000Z</time>
      </trkpt>
      <trkpt lat="48.67713" lon="1.7212">
        <ele>170.80000305176</ele>
        <time>2014-05-25T14:34:26.000Z</time>
      </trkpt>
      <trkpt lat="48.67705" lon="1.7211">
        <ele>170.39999389648</ele>
        <time>2014-05-25T14:34:33.000Z</time>
      </trkpt>
      <trkpt lat="48.67702" lon="1.721">
        <ele>170.39999389648</ele>
        <time>2014-05-25T14:34:38.000Z</time>
      </trkpt>
      <trkpt lat="48.67693" lon="1.72087">
        <ele>170.19999694824</ele>
        <time>2014-05-25T14:34:47.000Z</time>
      </trkpt>
      <trkpt lat="48.67685" lon="1.72073">
        <ele>169.80000305176</ele>
        <time>2014-05-25T14:34:56.000Z</time>
      </trkpt>
      <trkpt lat="48.67678" lon="1.72062">
        <ele>169.39999389648</ele>
        <time>2014-05-25T14:35:03.000Z</time>
      </trkpt>
      <trkpt lat="48.67668" lon="1.72048">
        <ele>168.39999389648</ele>
        <time>2014-05-25T14:35:12.000Z</time>
      </trkpt>
      <trkpt lat="48.67659" lon="1.72033">
        <ele>167.60000610352</ele>
        <time>2014-05-25T14:35:21.000Z</time>
      </trkpt>
      <trkpt lat="48.67651" lon="1.72021">
        <ele>167</ele>
        <time>2014-05-25T14:35:28.000Z</time>
      </trkpt>
      <trkpt lat="48.67645" lon="1.72011">
        <ele>166.60000610352</ele>
        <time>2014-05-25T14:35:34.000Z</time>
      </trkpt>
      <trkpt lat="48.67637" lon="1.71998">
        <ele>165.80000305176</ele>
        <time>2014-05-25T14:35:42.000Z</time>
      </trkpt>
      <trkpt lat="48.6763" lon="1.71991">
        <ele>165.19999694824</ele>
        <time>2014-05-25T14:35:48.000Z</time>
      </trkpt>
      <trkpt lat="48.67621" lon="1.71982">
        <ele>164.39999389648</ele>
        <time>2014-05-25T14:35:55.000Z</time>
      </trkpt>
      <trkpt lat="48.67611" lon="1.7198">
        <ele>163.60000610352</ele>
        <time>2014-05-25T14:36:01.000Z</time>
      </trkpt>
      <trkpt lat="48.67602" lon="1.71973">
        <ele>162.60000610352</ele>
        <time>2014-05-25T14:36:06.000Z</time>
      </trkpt>
      <trkpt lat="48.67592" lon="1.71965">
        <ele>162.19999694824</ele>
        <time>2014-05-25T14:36:14.000Z</time>
      </trkpt>
      <trkpt lat="48.67583" lon="1.71958">
        <ele>161.80000305176</ele>
        <time>2014-05-25T14:36:22.000Z</time>
      </trkpt>
      <trkpt lat="48.67573" lon="1.7195">
        <ele>161.39999389648</ele>
        <time>2014-05-25T14:36:30.000Z</time>
      </trkpt>
      <trkpt lat="48.67567" lon="1.71941">
        <ele>161</ele>
        <time>2014-05-25T14:36:37.000Z</time>
      </trkpt>
      <trkpt lat="48.67561" lon="1.71936">
        <ele>160.80000305176</ele>
        <time>2014-05-25T14:36:43.000Z</time>
      </trkpt>
      <trkpt lat="48.67553" lon="1.71932">
        <ele>160.39999389648</ele>
        <time>2014-05-25T14:36:50.000Z</time>
      </trkpt>
      <trkpt lat="48.67543" lon="1.71919">
        <ele>160</ele>
        <time>2014-05-25T14:36:58.000Z</time>
      </trkpt>
      <trkpt lat="48.67533" lon="1.71908">
        <ele>159.39999389648</ele>
        <time>2014-05-25T14:37:06.000Z</time>
      </trkpt>
      <trkpt lat="48.67533" lon="1.71907">
        <ele>159.39999389648</ele>
        <time>2014-05-25T14:37:07.000Z</time>
      </trkpt>
      <trkpt lat="48.67522" lon="1.71908">
        <ele>159.19999694824</ele>
        <time>2014-05-25T14:37:14.000Z</time>
      </trkpt>
      <trkpt lat="48.67519" lon="1.71908">
        <ele>159</ele>
        <time>2014-05-25T14:37:16.000Z</time>
      </trkpt>
      <trkpt lat="48.6751" lon="1.71912">
        <ele>159</ele>
        <time>2014-05-25T14:37:24.000Z</time>
      </trkpt>
      <trkpt lat="48.67514" lon="1.71919">
        <ele>159.19999694824</ele>
        <time>2014-05-25T14:37:29.000Z</time>
      </trkpt>
      <trkpt lat="48.67519" lon="1.71929">
        <ele>159.19999694824</ele>
        <time>2014-05-25T14:37:33.000Z</time>
      </trkpt>
      <trkpt lat="48.67519" lon="1.71935">
        <ele>159.39999389648</ele>
        <time>2014-05-25T14:37:36.000Z</time>
      </trkpt>
      <trkpt lat="48.67519" lon="1.71951">
        <ele>159.60000610352</ele>
        <time>2014-05-25T14:37:43.000Z</time>
      </trkpt>
      <trkpt lat="48.67523" lon="1.71962">
        <ele>159.80000305176</ele>
        <time>2014-05-25T14:37:49.000Z</time>
      </trkpt>
      <trkpt lat="48.67526" lon="1.71976">
        <ele>160</ele>
        <time>2014-05-25T14:37:56.000Z</time>
      </trkpt>
      <trkpt lat="48.67529" lon="1.71988">
        <ele>160.39999389648</ele>
        <time>2014-05-25T14:38:02.000Z</time>
      </trkpt>
      <trkpt lat="48.67533" lon="1.71997">
        <ele>160.80000305176</ele>
        <time>2014-05-25T14:38:07.000Z</time>
      </trkpt>
      <trkpt lat="48.67536" lon="1.72016">
        <ele>160.80000305176</ele>
        <time>2014-05-25T14:38:14.000Z</time>
      </trkpt>
      <trkpt lat="48.67537" lon="1.7202">
        <ele>160.80000305176</ele>
        <time>2014-05-25T14:38:16.000Z</time>
      </trkpt>
      <trkpt lat="48.67538" lon="1.72036">
        <ele>160.80000305176</ele>
        <time>2014-05-25T14:38:22.000Z</time>
      </trkpt>
      <trkpt lat="48.6754" lon="1.72046">
        <ele>160.80000305176</ele>
        <time>2014-05-25T14:38:26.000Z</time>
      </trkpt>
      <trkpt lat="48.67543" lon="1.72065">
        <ele>160.80000305176</ele>
        <time>2014-05-25T14:38:34.000Z</time>
      </trkpt>
      <trkpt lat="48.67544" lon="1.72066">
        <ele>160.80000305176</ele>
        <time>2014-05-25T14:38:35.000Z</time>
      </trkpt>
      <trkpt lat="48.67543" lon="1.72079">
        <ele>160.80000305176</ele>
        <time>2014-05-25T14:38:41.000Z</time>
      </trkpt>
      <trkpt lat="48.67543" lon="1.72081">
        <ele>160.80000305176</ele>
        <time>2014-05-25T14:38:42.000Z</time>
      </trkpt>
      <trkpt lat="48.67543" lon="1.72097">
        <ele>161</ele>
        <time>2014-05-25T14:38:48.000Z</time>
      </trkpt>
      <trkpt lat="48.67541" lon="1.7211">
        <ele>161</ele>
        <time>2014-05-25T14:38:54.000Z</time>
      </trkpt>
      <trkpt lat="48.67533" lon="1.72123">
        <ele>160.60000610352</ele>
        <time>2014-05-25T14:39:01.000Z</time>
      </trkpt>
      <trkpt lat="48.67527" lon="1.72131">
        <ele>160.19999694824</ele>
        <time>2014-05-25T14:39:07.000Z</time>
      </trkpt>
      <trkpt lat="48.67514" lon="1.72148">
        <ele>160</ele>
        <time>2014-05-25T14:39:15.000Z</time>
      </trkpt>
      <trkpt lat="48.67511" lon="1.72159">
        <ele>159.60000610352</ele>
        <time>2014-05-25T14:39:21.000Z</time>
      </trkpt>
      <trkpt lat="48.67511" lon="1.72162">
        <ele>159.60000610352</ele>
        <time>2014-05-25T14:39:25.000Z</time>
      </trkpt>
      <trkpt lat="48.67509" lon="1.72163">
        <ele>159.60000610352</ele>
        <time>2014-05-25T14:39:28.000Z</time>
      </trkpt>
      <trkpt lat="48.67504" lon="1.72168">
        <ele>159.39999389648</ele>
        <time>2014-05-25T14:39:31.000Z</time>
      </trkpt>
      <trkpt lat="48.67497" lon="1.72181">
        <ele>159.19999694824</ele>
        <time>2014-05-25T14:39:38.000Z</time>
      </trkpt>
      <trkpt lat="48.67492" lon="1.7219">
        <ele>159.19999694824</ele>
        <time>2014-05-25T14:39:44.000Z</time>
      </trkpt>
      <trkpt lat="48.67487" lon="1.72197">
        <ele>159</ele>
        <time>2014-05-25T14:39:49.000Z</time>
      </trkpt>
      <trkpt lat="48.67485" lon="1.722">
        <ele>158.80000305176</ele>
        <time>2014-05-25T14:39:53.000Z</time>
      </trkpt>
      <trkpt lat="48.67481" lon="1.72206">
        <ele>158.60000610352</ele>
        <time>2014-05-25T14:39:58.000Z</time>
      </trkpt>
      <trkpt lat="48.67474" lon="1.72216">
        <ele>157.60000610352</ele>
        <time>2014-05-25T14:40:04.000Z</time>
      </trkpt>
      <trkpt lat="48.6746" lon="1.72232">
        <ele>156.19999694824</ele>
        <time>2014-05-25T14:40:13.000Z</time>
      </trkpt>
      <trkpt lat="48.67455" lon="1.72242">
        <ele>155.80000305176</ele>
        <time>2014-05-25T14:40:18.000Z</time>
      </trkpt>
      <trkpt lat="48.67452" lon="1.72252">
        <ele>155.80000305176</ele>
        <time>2014-05-25T14:40:23.000Z</time>
      </trkpt>
      <trkpt lat="48.67453" lon="1.72261">
        <ele>156</ele>
        <time>2014-05-25T14:40:28.000Z</time>
      </trkpt>
      <trkpt lat="48.67454" lon="1.72277">
        <ele>155.80000305176</ele>
        <time>2014-05-25T14:40:36.000Z</time>
      </trkpt>
      <trkpt lat="48.67453" lon="1.7228">
        <ele>155.80000305176</ele>
        <time>2014-05-25T14:40:37.000Z</time>
      </trkpt>
      <trkpt lat="48.67451" lon="1.72292">
        <ele>155.19999694824</ele>
        <time>2014-05-25T14:40:43.000Z</time>
      </trkpt>
      <trkpt lat="48.67458" lon="1.72305">
        <ele>156</ele>
        <time>2014-05-25T14:40:50.000Z</time>
      </trkpt>
      <trkpt lat="48.67458" lon="1.72312">
        <ele>156</ele>
        <time>2014-05-25T14:40:54.000Z</time>
      </trkpt>
      <trkpt lat="48.67457" lon="1.72325">
        <ele>155.80000305176</ele>
        <time>2014-05-25T14:41:00.000Z</time>
      </trkpt>
      <trkpt lat="48.67454" lon="1.72337">
        <ele>155.60000610352</ele>
        <time>2014-05-25T14:41:06.000Z</time>
      </trkpt>
      <trkpt lat="48.67454" lon="1.72339">
        <ele>155.60000610352</ele>
        <time>2014-05-25T14:41:07.000Z</time>
      </trkpt>
      <trkpt lat="48.67451" lon="1.72347">
        <ele>155.60000610352</ele>
        <time>2014-05-25T14:41:12.000Z</time>
      </trkpt>
      <trkpt lat="48.67448" lon="1.72362">
        <ele>155.80000305176</ele>
        <time>2014-05-25T14:41:20.000Z</time>
      </trkpt>
      <trkpt lat="48.67442" lon="1.72375">
        <ele>155.60000610352</ele>
        <time>2014-05-25T14:41:26.000Z</time>
      </trkpt>
      <trkpt lat="48.67439" lon="1.72382">
        <ele>155.60000610352</ele>
        <time>2014-05-25T14:41:30.000Z</time>
      </trkpt>
      <trkpt lat="48.67432" lon="1.72393">
        <ele>155.60000610352</ele>
        <time>2014-05-25T14:41:37.000Z</time>
      </trkpt>
      <trkpt lat="48.67431" lon="1.72404">
        <ele>155.80000305176</ele>
        <time>2014-05-25T14:41:42.000Z</time>
      </trkpt>
      <trkpt lat="48.67427" lon="1.72415">
        <ele>156.19999694824</ele>
        <time>2014-05-25T14:41:47.000Z</time>
      </trkpt>
      <trkpt lat="48.67423" lon="1.72423">
        <ele>156.39999389648</ele>
        <time>2014-05-25T14:41:51.000Z</time>
      </trkpt>
      <trkpt lat="48.67417" lon="1.72426">
        <ele>156.19999694824</ele>
        <time>2014-05-25T14:41:56.000Z</time>
      </trkpt>
      <trkpt lat="48.67412" lon="1.72433">
        <ele>156.19999694824</ele>
        <time>2014-05-25T14:42:03.000Z</time>
      </trkpt>
      <trkpt lat="48.67411" lon="1.72433">
        <ele>156.19999694824</ele>
        <time>2014-05-25T14:42:05.000Z</time>
      </trkpt>
      <trkpt lat="48.67404" lon="1.7244">
        <ele>156.19999694824</ele>
        <time>2014-05-25T14:42:10.000Z</time>
      </trkpt>
      <trkpt lat="48.67397" lon="1.72443">
        <ele>156</ele>
        <time>2014-05-25T14:42:15.000Z</time>
      </trkpt>
      <trkpt lat="48.67392" lon="1.72448">
        <ele>155.80000305176</ele>
        <time>2014-05-25T14:42:19.000Z</time>
      </trkpt>
      <trkpt lat="48.67388" lon="1.72463">
        <ele>155.60000610352</ele>
        <time>2014-05-25T14:42:27.000Z</time>
      </trkpt>
      <trkpt lat="48.67385" lon="1.72478">
        <ele>155.60000610352</ele>
        <time>2014-05-25T14:42:34.000Z</time>
      </trkpt>
      <trkpt lat="48.67383" lon="1.72491">
        <ele>155.80000305176</ele>
        <time>2014-05-25T14:42:40.000Z</time>
      </trkpt>
      <trkpt lat="48.67381" lon="1.72497">
        <ele>155.80000305176</ele>
        <time>2014-05-25T14:42:43.000Z</time>
      </trkpt>
      <trkpt lat="48.67374" lon="1.7251">
        <ele>155.80000305176</ele>
        <time>2014-05-25T14:42:49.000Z</time>
      </trkpt>
      <trkpt lat="48.67369" lon="1.72534">
        <ele>155.39999389648</ele>
        <time>2014-05-25T14:42:55.000Z</time>
      </trkpt>
      <trkpt lat="48.67366" lon="1.72548">
        <ele>155.19999694824</ele>
        <time>2014-05-25T14:43:01.000Z</time>
      </trkpt>
      <trkpt lat="48.67363" lon="1.7256">
        <ele>155</ele>
        <time>2014-05-25T14:43:06.000Z</time>
      </trkpt>
      <trkpt lat="48.67363" lon="1.7257">
        <ele>155.19999694824</ele>
        <time>2014-05-25T14:43:11.000Z</time>
      </trkpt>
      <trkpt lat="48.67362" lon="1.72573">
        <ele>155.19999694824</ele>
        <time>2014-05-25T14:43:12.000Z</time>
      </trkpt>
      <trkpt lat="48.67359" lon="1.72578">
        <ele>155</ele>
        <time>2014-05-25T14:43:16.000Z</time>
      </trkpt>
      <trkpt lat="48.67357" lon="1.72589">
        <ele>155</ele>
        <time>2014-05-25T14:43:23.000Z</time>
      </trkpt>
      <trkpt lat="48.67355" lon="1.72598">
        <ele>154.80000305176</ele>
        <time>2014-05-25T14:43:27.000Z</time>
      </trkpt>
      <trkpt lat="48.67352" lon="1.7261">
        <ele>154.80000305176</ele>
        <time>2014-05-25T14:43:32.000Z</time>
      </trkpt>
      <trkpt lat="48.6735" lon="1.72612">
        <ele>154.80000305176</ele>
        <time>2014-05-25T14:43:33.000Z</time>
      </trkpt>
      <trkpt lat="48.67341" lon="1.72627">
        <ele>154.39999389648</ele>
        <time>2014-05-25T14:43:39.000Z</time>
      </trkpt>
      <trkpt lat="48.67341" lon="1.72628">
        <ele>154.39999389648</ele>
        <time>2014-05-25T14:43:40.000Z</time>
      </trkpt>
      <trkpt lat="48.67335" lon="1.72646">
        <ele>154.19999694824</ele>
        <time>2014-05-25T14:43:48.000Z</time>
      </trkpt>
      <trkpt lat="48.67331" lon="1.72659">
        <ele>154</ele>
        <time>2014-05-25T14:43:53.000Z</time>
      </trkpt>
      <trkpt lat="48.67327" lon="1.72676">
        <ele>153.80000305176</ele>
        <time>2014-05-25T14:44:00.000Z</time>
      </trkpt>
      <trkpt lat="48.67324" lon="1.72684">
        <ele>153.60000610352</ele>
        <time>2014-05-25T14:44:06.000Z</time>
      </trkpt>
      <trkpt lat="48.6732" lon="1.72691">
        <ele>153.19999694824</ele>
        <time>2014-05-25T14:44:10.000Z</time>
      </trkpt>
      <trkpt lat="48.67317" lon="1.72703">
        <ele>153.19999694824</ele>
        <time>2014-05-25T14:44:17.000Z</time>
      </trkpt>
      <trkpt lat="48.67311" lon="1.72716">
        <ele>152.80000305176</ele>
        <time>2014-05-25T14:44:24.000Z</time>
      </trkpt>
      <trkpt lat="48.67306" lon="1.72734">
        <ele>152.39999389648</ele>
        <time>2014-05-25T14:44:32.000Z</time>
      </trkpt>
      <trkpt lat="48.67301" lon="1.72747">
        <ele>152.19999694824</ele>
        <time>2014-05-25T14:44:38.000Z</time>
      </trkpt>
      <trkpt lat="48.67293" lon="1.72766">
        <ele>151.80000305176</ele>
        <time>2014-05-25T14:44:45.000Z</time>
      </trkpt>
      <trkpt lat="48.67287" lon="1.7278">
        <ele>151.39999389648</ele>
        <time>2014-05-25T14:44:51.000Z</time>
      </trkpt>
      <trkpt lat="48.67286" lon="1.72784">
        <ele>151.39999389648</ele>
        <time>2014-05-25T14:44:53.000Z</time>
      </trkpt>
      <trkpt lat="48.67288" lon="1.72798">
        <ele>151.80000305176</ele>
        <time>2014-05-25T14:45:00.000Z</time>
      </trkpt>
      <trkpt lat="48.67288" lon="1.72815">
        <ele>151.80000305176</ele>
        <time>2014-05-25T14:45:07.000Z</time>
      </trkpt>
      <trkpt lat="48.67284" lon="1.72822">
        <ele>151.60000610352</ele>
        <time>2014-05-25T14:45:10.000Z</time>
      </trkpt>
      <trkpt lat="48.67281" lon="1.72832">
        <ele>151</ele>
        <time>2014-05-25T14:45:15.000Z</time>
      </trkpt>
      <trkpt lat="48.67273" lon="1.72847">
        <ele>152.39999389648</ele>
        <time>2014-05-25T14:45:21.000Z</time>
      </trkpt>
      <trkpt lat="48.67266" lon="1.72851">
        <ele>152.39999389648</ele>
        <time>2014-05-25T14:45:27.000Z</time>
      </trkpt>
      <trkpt lat="48.67256" lon="1.72858">
        <ele>152.60000610352</ele>
        <time>2014-05-25T14:45:33.000Z</time>
      </trkpt>
      <trkpt lat="48.67249" lon="1.72862">
        <ele>152.39999389648</ele>
        <time>2014-05-25T14:45:40.000Z</time>
      </trkpt>
      <trkpt lat="48.67239" lon="1.72861">
        <ele>152</ele>
        <time>2014-05-25T14:45:47.000Z</time>
      </trkpt>
      <trkpt lat="48.67235" lon="1.72861">
        <ele>151.80000305176</ele>
        <time>2014-05-25T14:45:52.000Z</time>
      </trkpt>
      <trkpt lat="48.6723" lon="1.72863">
        <ele>151.60000610352</ele>
        <time>2014-05-25T14:45:57.000Z</time>
      </trkpt>
      <trkpt lat="48.67227" lon="1.72867">
        <ele>151.80000305176</ele>
        <time>2014-05-25T14:46:01.000Z</time>
      </trkpt>
      <trkpt lat="48.6722" lon="1.72871">
        <ele>151.60000610352</ele>
        <time>2014-05-25T14:46:05.000Z</time>
      </trkpt>
      <trkpt lat="48.67211" lon="1.72878">
        <ele>151.19999694824</ele>
        <time>2014-05-25T14:46:12.000Z</time>
      </trkpt>
      <trkpt lat="48.672" lon="1.72881">
        <ele>150.60000610352</ele>
        <time>2014-05-25T14:46:20.000Z</time>
      </trkpt>
      <trkpt lat="48.67191" lon="1.72888">
        <ele>150.39999389648</ele>
        <time>2014-05-25T14:46:25.000Z</time>
      </trkpt>
      <trkpt lat="48.67184" lon="1.72887">
        <ele>150</ele>
        <time>2014-05-25T14:46:31.000Z</time>
      </trkpt>
      <trkpt lat="48.67183" lon="1.72887">
        <ele>150</ele>
        <time>2014-05-25T14:46:32.000Z</time>
      </trkpt>
      <trkpt lat="48.67181" lon="1.72886">
        <ele>150</ele>
        <time>2014-05-25T14:46:36.000Z</time>
      </trkpt>
      <trkpt lat="48.67176" lon="1.72888">
        <ele>150.39999389648</ele>
        <time>2014-05-25T14:46:39.000Z</time>
      </trkpt>
      <trkpt lat="48.67166" lon="1.7289">
        <ele>150.60000610352</ele>
        <time>2014-05-25T14:46:46.000Z</time>
      </trkpt>
      <trkpt lat="48.67159" lon="1.72892">
        <ele>150.80000305176</ele>
        <time>2014-05-25T14:46:52.000Z</time>
      </trkpt>
      <trkpt lat="48.67155" lon="1.72894">
        <ele>151</ele>
        <time>2014-05-25T14:46:55.000Z</time>
      </trkpt>
      <trkpt lat="48.67146" lon="1.72894">
        <ele>151</ele>
        <time>2014-05-25T14:47:01.000Z</time>
      </trkpt>
      <trkpt lat="48.67132" lon="1.72902">
        <ele>151.60000610352</ele>
        <time>2014-05-25T14:47:10.000Z</time>
      </trkpt>
      <trkpt lat="48.6713" lon="1.72903">
        <ele>151.60000610352</ele>
        <time>2014-05-25T14:47:11.000Z</time>
      </trkpt>
      <trkpt lat="48.6712" lon="1.72913">
        <ele>152.39999389648</ele>
        <time>2014-05-25T14:47:18.000Z</time>
      </trkpt>
      <trkpt lat="48.67118" lon="1.72915">
        <ele>152.60000610352</ele>
        <time>2014-05-25T14:47:19.000Z</time>
      </trkpt>
      <trkpt lat="48.6711" lon="1.72926">
        <ele>152.60000610352</ele>
        <time>2014-05-25T14:47:26.000Z</time>
      </trkpt>
      <trkpt lat="48.67105" lon="1.72932">
        <ele>152.39999389648</ele>
        <time>2014-05-25T14:47:32.000Z</time>
      </trkpt>
      <trkpt lat="48.67101" lon="1.72942">
        <ele>152.39999389648</ele>
        <time>2014-05-25T14:47:38.000Z</time>
      </trkpt>
      <trkpt lat="48.67095" lon="1.72953">
        <ele>152.19999694824</ele>
        <time>2014-05-25T14:47:45.000Z</time>
      </trkpt>
      <trkpt lat="48.67092" lon="1.72966">
        <ele>152.19999694824</ele>
        <time>2014-05-25T14:47:50.000Z</time>
      </trkpt>
      <trkpt lat="48.67089" lon="1.7298">
        <ele>152.19999694824</ele>
        <time>2014-05-25T14:47:56.000Z</time>
      </trkpt>
      <trkpt lat="48.67088" lon="1.72988">
        <ele>152.19999694824</ele>
        <time>2014-05-25T14:48:00.000Z</time>
      </trkpt>
      <trkpt lat="48.67087" lon="1.73001">
        <ele>151.80000305176</ele>
        <time>2014-05-25T14:48:06.000Z</time>
      </trkpt>
      <trkpt lat="48.67082" lon="1.73012">
        <ele>151.39999389648</ele>
        <time>2014-05-25T14:48:12.000Z</time>
      </trkpt>
      <trkpt lat="48.67078" lon="1.73028">
        <ele>150.80000305176</ele>
        <time>2014-05-25T14:48:18.000Z</time>
      </trkpt>
      <trkpt lat="48.67078" lon="1.73034">
        <ele>150.60000610352</ele>
        <time>2014-05-25T14:48:20.000Z</time>
      </trkpt>
      <trkpt lat="48.67074" lon="1.73051">
        <ele>150</ele>
        <time>2014-05-25T14:48:27.000Z</time>
      </trkpt>
      <trkpt lat="48.67073" lon="1.73063">
        <ele>149.39999389648</ele>
        <time>2014-05-25T14:48:32.000Z</time>
      </trkpt>
      <trkpt lat="48.67071" lon="1.73076">
        <ele>148.60000610352</ele>
        <time>2014-05-25T14:48:39.000Z</time>
      </trkpt>
      <trkpt lat="48.6707" lon="1.73085">
        <ele>148</ele>
        <time>2014-05-25T14:48:43.000Z</time>
      </trkpt>
      <trkpt lat="48.67076" lon="1.73098">
        <ele>147.39999389648</ele>
        <time>2014-05-25T14:48:49.000Z</time>
      </trkpt>
      <trkpt lat="48.67093" lon="1.73117">
        <ele>147</ele>
        <time>2014-05-25T14:48:57.000Z</time>
      </trkpt>
      <trkpt lat="48.67108" lon="1.73132">
        <ele>147</ele>
        <time>2014-05-25T14:49:03.000Z</time>
      </trkpt>
      <trkpt lat="48.67122" lon="1.73146">
        <ele>147.39999389648</ele>
        <time>2014-05-25T14:49:08.000Z</time>
      </trkpt>
      <trkpt lat="48.67136" lon="1.73158">
        <ele>147.80000305176</ele>
        <time>2014-05-25T14:49:13.000Z</time>
      </trkpt>
      <trkpt lat="48.67157" lon="1.73178">
        <ele>148.19999694824</ele>
        <time>2014-05-25T14:49:21.000Z</time>
      </trkpt>
      <trkpt lat="48.67174" lon="1.73199">
        <ele>148</ele>
        <time>2014-05-25T14:49:27.000Z</time>
      </trkpt>
      <trkpt lat="48.67193" lon="1.73219">
        <ele>148.19999694824</ele>
        <time>2014-05-25T14:49:34.000Z</time>
      </trkpt>
      <trkpt lat="48.67206" lon="1.73231">
        <ele>148.60000610352</ele>
        <time>2014-05-25T14:49:39.000Z</time>
      </trkpt>
      <trkpt lat="48.67215" lon="1.7324">
        <ele>149</ele>
        <time>2014-05-25T14:49:43.000Z</time>
      </trkpt>
      <trkpt lat="48.67224" lon="1.73254">
        <ele>148.80000305176</ele>
        <time>2014-05-25T14:49:48.000Z</time>
      </trkpt>
      <trkpt lat="48.67234" lon="1.73274">
        <ele>148.39999389648</ele>
        <time>2014-05-25T14:49:52.000Z</time>
      </trkpt>
      <trkpt lat="48.67244" lon="1.733">
        <ele>148</ele>
        <time>2014-05-25T14:49:57.000Z</time>
      </trkpt>
      <trkpt lat="48.67257" lon="1.73337">
        <ele>148</ele>
        <time>2014-05-25T14:50:04.000Z</time>
      </trkpt>
      <trkpt lat="48.67261" lon="1.73358">
        <ele>147.60000610352</ele>
        <time>2014-05-25T14:50:09.000Z</time>
      </trkpt>
      <trkpt lat="48.67267" lon="1.73381">
        <ele>147.39999389648</ele>
        <time>2014-05-25T14:50:14.000Z</time>
      </trkpt>
      <trkpt lat="48.67273" lon="1.73408">
        <ele>147.39999389648</ele>
        <time>2014-05-25T14:50:19.000Z</time>
      </trkpt>
      <trkpt lat="48.6728" lon="1.73426">
        <ele>148.39999389648</ele>
        <time>2014-05-25T14:50:25.000Z</time>
      </trkpt>
      <trkpt lat="48.67281" lon="1.73429">
        <ele>148.60000610352</ele>
        <time>2014-05-25T14:50:29.000Z</time>
      </trkpt>
      <trkpt lat="48.6729" lon="1.7345">
        <ele>149.60000610352</ele>
        <time>2014-05-25T14:50:35.000Z</time>
      </trkpt>
      <trkpt lat="48.67294" lon="1.73471">
        <ele>150.19999694824</ele>
        <time>2014-05-25T14:50:40.000Z</time>
      </trkpt>
      <trkpt lat="48.67296" lon="1.73487">
        <ele>150.39999389648</ele>
        <time>2014-05-25T14:50:44.000Z</time>
      </trkpt>
      <trkpt lat="48.67298" lon="1.73501">
        <ele>149.39999389648</ele>
        <time>2014-05-25T14:50:47.000Z</time>
      </trkpt>
      <trkpt lat="48.67304" lon="1.73523">
        <ele>148.19999694824</ele>
        <time>2014-05-25T14:50:53.000Z</time>
      </trkpt>
      <trkpt lat="48.67308" lon="1.73539">
        <ele>148.80000305176</ele>
        <time>2014-05-25T14:51:00.000Z</time>
      </trkpt>
      <trkpt lat="48.67315" lon="1.73562">
        <ele>149.39999389648</ele>
        <time>2014-05-25T14:51:09.000Z</time>
      </trkpt>
      <trkpt lat="48.67323" lon="1.73591">
        <ele>149</ele>
        <time>2014-05-25T14:51:16.000Z</time>
      </trkpt>
      <trkpt lat="48.67333" lon="1.73595">
        <ele>148.80000305176</ele>
        <time>2014-05-25T14:51:22.000Z</time>
      </trkpt>
      <trkpt lat="48.67338" lon="1.73598">
        <ele>148.80000305176</ele>
        <time>2014-05-25T14:51:26.000Z</time>
      </trkpt>
      <trkpt lat="48.67345" lon="1.73604">
        <ele>148.60000610352</ele>
        <time>2014-05-25T14:51:31.000Z</time>
      </trkpt>
      <trkpt lat="48.67354" lon="1.73614">
        <ele>148.60000610352</ele>
        <time>2014-05-25T14:51:37.000Z</time>
      </trkpt>
      <trkpt lat="48.67355" lon="1.73615">
        <ele>148.60000610352</ele>
        <time>2014-05-25T14:51:38.000Z</time>
      </trkpt>
      <trkpt lat="48.67362" lon="1.73622">
        <ele>148.60000610352</ele>
        <time>2014-05-25T14:51:44.000Z</time>
      </trkpt>
      <trkpt lat="48.67365" lon="1.73625">
        <ele>148.80000305176</ele>
        <time>2014-05-25T14:51:46.000Z</time>
      </trkpt>
      <trkpt lat="48.67375" lon="1.73633">
        <ele>149</ele>
        <time>2014-05-25T14:51:54.000Z</time>
      </trkpt>
      <trkpt lat="48.67384" lon="1.73645">
        <ele>149.19999694824</ele>
        <time>2014-05-25T14:52:01.000Z</time>
      </trkpt>
      <trkpt lat="48.67392" lon="1.73646">
        <ele>149.60000610352</ele>
        <time>2014-05-25T14:52:07.000Z</time>
      </trkpt>
      <trkpt lat="48.67401" lon="1.73644">
        <ele>150.19999694824</ele>
        <time>2014-05-25T14:52:14.000Z</time>
      </trkpt>
      <trkpt lat="48.67402" lon="1.73642">
        <ele>150.39999389648</ele>
        <time>2014-05-25T14:52:15.000Z</time>
      </trkpt>
      <trkpt lat="48.67407" lon="1.73638">
        <ele>150.80000305176</ele>
        <time>2014-05-25T14:52:19.000Z</time>
      </trkpt>
      <trkpt lat="48.67415" lon="1.73635">
        <ele>151.39999389648</ele>
        <time>2014-05-25T14:52:26.000Z</time>
      </trkpt>
      <trkpt lat="48.6742" lon="1.73632">
        <ele>152.19999694824</ele>
        <time>2014-05-25T14:52:31.000Z</time>
      </trkpt>
      <trkpt lat="48.67421" lon="1.73631">
        <ele>152.60000610352</ele>
        <time>2014-05-25T14:52:32.000Z</time>
      </trkpt>
      <trkpt lat="48.67431" lon="1.73623">
        <ele>155</ele>
        <time>2014-05-25T14:52:38.000Z</time>
      </trkpt>
      <trkpt lat="48.67435" lon="1.73625">
        <ele>155.39999389648</ele>
        <time>2014-05-25T14:52:43.000Z</time>
      </trkpt>
      <trkpt lat="48.67443" lon="1.73619">
        <ele>157</ele>
        <time>2014-05-25T14:52:49.000Z</time>
      </trkpt>
      <trkpt lat="48.67448" lon="1.73614">
        <ele>158.19999694824</ele>
        <time>2014-05-25T14:52:54.000Z</time>
      </trkpt>
      <trkpt lat="48.67462" lon="1.73604">
        <ele>161</ele>
        <time>2014-05-25T14:53:03.000Z</time>
      </trkpt>
      <trkpt lat="48.67466" lon="1.73603">
        <ele>161.80000305176</ele>
        <time>2014-05-25T14:53:06.000Z</time>
      </trkpt>
      <trkpt lat="48.67476" lon="1.73598">
        <ele>162.19999694824</ele>
        <time>2014-05-25T14:53:12.000Z</time>
      </trkpt>
      <trkpt lat="48.67488" lon="1.73592">
        <ele>162.39999389648</ele>
        <time>2014-05-25T14:53:17.000Z</time>
      </trkpt>
      <trkpt lat="48.67494" lon="1.73588">
        <ele>162.39999389648</ele>
        <time>2014-05-25T14:53:21.000Z</time>
      </trkpt>
      <trkpt lat="48.67504" lon="1.73588">
        <ele>162.60000610352</ele>
        <time>2014-05-25T14:53:29.000Z</time>
      </trkpt>
      <trkpt lat="48.67509" lon="1.73584">
        <ele>162.80000305176</ele>
        <time>2014-05-25T14:53:33.000Z</time>
      </trkpt>
      <trkpt lat="48.67519" lon="1.73578">
        <ele>163</ele>
        <time>2014-05-25T14:53:40.000Z</time>
      </trkpt>
      <trkpt lat="48.67527" lon="1.7357">
        <ele>163.60000610352</ele>
        <time>2014-05-25T14:53:47.000Z</time>
      </trkpt>
      <trkpt lat="48.67534" lon="1.73566">
        <ele>164.39999389648</ele>
        <time>2014-05-25T14:53:53.000Z</time>
      </trkpt>
      <trkpt lat="48.67541" lon="1.73561">
        <ele>165.19999694824</ele>
        <time>2014-05-25T14:53:58.000Z</time>
      </trkpt>
      <trkpt lat="48.6755" lon="1.73558">
        <ele>166</ele>
        <time>2014-05-25T14:54:04.000Z</time>
      </trkpt>
      <trkpt lat="48.6755" lon="1.73558">
        <ele>166</ele>
        <time>2014-05-25T14:54:05.000Z</time>
      </trkpt>
      <trkpt lat="48.67557" lon="1.73557">
        <ele>166.60000610352</ele>
        <time>2014-05-25T14:54:10.000Z</time>
      </trkpt>
      <trkpt lat="48.67559" lon="1.73554">
        <ele>167</ele>
        <time>2014-05-25T14:54:13.000Z</time>
      </trkpt>
      <trkpt lat="48.67568" lon="1.73547">
        <ele>168</ele>
        <time>2014-05-25T14:54:20.000Z</time>
      </trkpt>
      <trkpt lat="48.67571" lon="1.73544">
        <ele>168.19999694824</ele>
        <time>2014-05-25T14:54:23.000Z</time>
      </trkpt>
      <trkpt lat="48.67577" lon="1.7354">
        <ele>168.80000305176</ele>
        <time>2014-05-25T14:54:28.000Z</time>
      </trkpt>
      <trkpt lat="48.67585" lon="1.73536">
        <ele>169.60000610352</ele>
        <time>2014-05-25T14:54:35.000Z</time>
      </trkpt>
      <trkpt lat="48.67592" lon="1.73532">
        <ele>170.19999694824</ele>
        <time>2014-05-25T14:54:42.000Z</time>
      </trkpt>
      <trkpt lat="48.67602" lon="1.73528">
        <ele>171</ele>
        <time>2014-05-25T14:54:48.000Z</time>
      </trkpt>
      <trkpt lat="48.6761" lon="1.73525">
        <ele>171.80000305176</ele>
        <time>2014-05-25T14:54:56.000Z</time>
      </trkpt>
      <trkpt lat="48.67614" lon="1.73526">
        <ele>172.19999694824</ele>
        <time>2014-05-25T14:54:59.000Z</time>
      </trkpt>
      <trkpt lat="48.67622" lon="1.73522">
        <ele>173.19999694824</ele>
        <time>2014-05-25T14:55:04.000Z</time>
      </trkpt>
      <trkpt lat="48.67628" lon="1.73519">
        <ele>174</ele>
        <time>2014-05-25T14:55:10.000Z</time>
      </trkpt>
      <trkpt lat="48.67635" lon="1.73514">
        <ele>174.60000610352</ele>
        <time>2014-05-25T14:55:15.000Z</time>
      </trkpt>
      <trkpt lat="48.67636" lon="1.73511">
        <ele>174.80000305176</ele>
        <time>2014-05-25T14:55:17.000Z</time>
      </trkpt>
      <trkpt lat="48.67643" lon="1.73504">
        <ele>175.39999389648</ele>
        <time>2014-05-25T14:55:23.000Z</time>
      </trkpt>
      <trkpt lat="48.6765" lon="1.73501">
        <ele>176</ele>
        <time>2014-05-25T14:55:27.000Z</time>
      </trkpt>
      <trkpt lat="48.67653" lon="1.73502">
        <ele>176.19999694824</ele>
        <time>2014-05-25T14:55:29.000Z</time>
      </trkpt>
      <trkpt lat="48.67661" lon="1.735">
        <ele>177</ele>
        <time>2014-05-25T14:55:36.000Z</time>
      </trkpt>
      <trkpt lat="48.67668" lon="1.73495">
        <ele>177.39999389648</ele>
        <time>2014-05-25T14:55:41.000Z</time>
      </trkpt>
      <trkpt lat="48.67678" lon="1.73484">
        <ele>178.39999389648</ele>
        <time>2014-05-25T14:55:48.000Z</time>
      </trkpt>
      <trkpt lat="48.67685" lon="1.73479">
        <ele>179</ele>
        <time>2014-05-25T14:55:53.000Z</time>
      </trkpt>
      <trkpt lat="48.67692" lon="1.73475">
        <ele>179.19999694824</ele>
        <time>2014-05-25T14:56:00.000Z</time>
      </trkpt>
      <trkpt lat="48.67701" lon="1.73468">
        <ele>179.80000305176</ele>
        <time>2014-05-25T14:56:06.000Z</time>
      </trkpt>
      <trkpt lat="48.6771" lon="1.73461">
        <ele>180.19999694824</ele>
        <time>2014-05-25T14:56:14.000Z</time>
      </trkpt>
      <trkpt lat="48.67713" lon="1.73459">
        <ele>180.39999389648</ele>
        <time>2014-05-25T14:56:18.000Z</time>
      </trkpt>
      <trkpt lat="48.67717" lon="1.73456">
        <ele>180.39999389648</ele>
        <time>2014-05-25T14:56:22.000Z</time>
      </trkpt>
      <trkpt lat="48.67725" lon="1.73456">
        <ele>180.80000305176</ele>
        <time>2014-05-25T14:56:27.000Z</time>
      </trkpt>
      <trkpt lat="48.67727" lon="1.73453">
        <ele>181</ele>
        <time>2014-05-25T14:56:29.000Z</time>
      </trkpt>
      <trkpt lat="48.67735" lon="1.73451">
        <ele>181.39999389648</ele>
        <time>2014-05-25T14:56:34.000Z</time>
      </trkpt>
      <trkpt lat="48.67749" lon="1.73452">
        <ele>181.80000305176</ele>
        <time>2014-05-25T14:56:41.000Z</time>
      </trkpt>
      <trkpt lat="48.67753" lon="1.73446">
        <ele>181.80000305176</ele>
        <time>2014-05-25T14:56:45.000Z</time>
      </trkpt>
      <trkpt lat="48.67762" lon="1.73444">
        <ele>182.19999694824</ele>
        <time>2014-05-25T14:56:51.000Z</time>
      </trkpt>
      <trkpt lat="48.67773" lon="1.73447">
        <ele>182.39999389648</ele>
        <time>2014-05-25T14:56:57.000Z</time>
      </trkpt>
      <trkpt lat="48.67782" lon="1.73453">
        <ele>182.19999694824</ele>
        <time>2014-05-25T14:57:04.000Z</time>
      </trkpt>
      <trkpt lat="48.67793" lon="1.73451">
        <ele>182</ele>
        <time>2014-05-25T14:57:10.000Z</time>
      </trkpt>
      <trkpt lat="48.67801" lon="1.73453">
        <ele>181.80000305176</ele>
        <time>2014-05-25T14:57:15.000Z</time>
      </trkpt>
      <trkpt lat="48.67809" lon="1.73455">
        <ele>181.60000610352</ele>
        <time>2014-05-25T14:57:19.000Z</time>
      </trkpt>
      <trkpt lat="48.67815" lon="1.73458">
        <ele>181.60000610352</ele>
        <time>2014-05-25T14:57:25.000Z</time>
      </trkpt>
      <trkpt lat="48.67822" lon="1.73459">
        <ele>181.39999389648</ele>
        <time>2014-05-25T14:57:30.000Z</time>
      </trkpt>
      <trkpt lat="48.67835" lon="1.7346">
        <ele>181</ele>
        <time>2014-05-25T14:57:37.000Z</time>
      </trkpt>
      <trkpt lat="48.67842" lon="1.73461">
        <ele>180.80000305176</ele>
        <time>2014-05-25T14:57:42.000Z</time>
      </trkpt>
      <trkpt lat="48.67851" lon="1.73462">
        <ele>180.39999389648</ele>
        <time>2014-05-25T14:57:49.000Z</time>
      </trkpt>
      <trkpt lat="48.6786" lon="1.73462">
        <ele>180.19999694824</ele>
        <time>2014-05-25T14:57:55.000Z</time>
      </trkpt>
      <trkpt lat="48.67868" lon="1.73464">
        <ele>180</ele>
        <time>2014-05-25T14:58:01.000Z</time>
      </trkpt>
      <trkpt lat="48.67874" lon="1.73467">
        <ele>179.80000305176</ele>
        <time>2014-05-25T14:58:05.000Z</time>
      </trkpt>
      <trkpt lat="48.67878" lon="1.73473">
        <ele>179.80000305176</ele>
        <time>2014-05-25T14:58:09.000Z</time>
      </trkpt>
      <trkpt lat="48.67885" lon="1.73485">
        <ele>179.80000305176</ele>
        <time>2014-05-25T14:58:16.000Z</time>
      </trkpt>
      <trkpt lat="48.67891" lon="1.73492">
        <ele>179.60000610352</ele>
        <time>2014-05-25T14:58:20.000Z</time>
      </trkpt>
      <trkpt lat="48.679" lon="1.73507">
        <ele>179.60000610352</ele>
        <time>2014-05-25T14:58:27.000Z</time>
      </trkpt>
      <trkpt lat="48.67909" lon="1.73519">
        <ele>179.39999389648</ele>
        <time>2014-05-25T14:58:34.000Z</time>
      </trkpt>
      <trkpt lat="48.6791" lon="1.73522">
        <ele>179.39999389648</ele>
        <time>2014-05-25T14:58:36.000Z</time>
      </trkpt>
      <trkpt lat="48.67915" lon="1.73532">
        <ele>179.19999694824</ele>
        <time>2014-05-25T14:58:42.000Z</time>
      </trkpt>
      <trkpt lat="48.67916" lon="1.73537">
        <ele>179.39999389648</ele>
        <time>2014-05-25T14:58:49.000Z</time>
      </trkpt>
      <trkpt lat="48.67918" lon="1.73539">
        <ele>179.19999694824</ele>
        <time>2014-05-25T14:58:56.000Z</time>
      </trkpt>
      <trkpt lat="48.67923" lon="1.73545">
        <ele>179.19999694824</ele>
        <time>2014-05-25T14:59:02.000Z</time>
      </trkpt>
      <trkpt lat="48.67929" lon="1.73558">
        <ele>179.19999694824</ele>
        <time>2014-05-25T14:59:07.000Z</time>
      </trkpt>
      <trkpt lat="48.6794" lon="1.73571">
        <ele>179</ele>
        <time>2014-05-25T14:59:12.000Z</time>
      </trkpt>
      <trkpt lat="48.67949" lon="1.73589">
        <ele>178.80000305176</ele>
        <time>2014-05-25T14:59:18.000Z</time>
      </trkpt>
      <trkpt lat="48.67961" lon="1.73609">
        <ele>178.60000610352</ele>
        <time>2014-05-25T14:59:25.000Z</time>
      </trkpt>
      <trkpt lat="48.67978" lon="1.73628">
        <ele>178.19999694824</ele>
        <time>2014-05-25T14:59:31.000Z</time>
      </trkpt>
      <trkpt lat="48.67988" lon="1.73641">
        <ele>178</ele>
        <time>2014-05-25T14:59:36.000Z</time>
      </trkpt>
      <trkpt lat="48.68009" lon="1.73667">
        <ele>177.39999389648</ele>
        <time>2014-05-25T14:59:44.000Z</time>
      </trkpt>
      <trkpt lat="48.6802" lon="1.7368">
        <ele>177</ele>
        <time>2014-05-25T14:59:49.000Z</time>
      </trkpt>
      <trkpt lat="48.68025" lon="1.73684">
        <ele>176.60000610352</ele>
        <time>2014-05-25T14:59:54.000Z</time>
      </trkpt>
      <trkpt lat="48.6803" lon="1.73693">
        <ele>176.39999389648</ele>
        <time>2014-05-25T15:00:00.000Z</time>
      </trkpt>
      <trkpt lat="48.68035" lon="1.73699">
        <ele>176</ele>
        <time>2014-05-25T15:00:04.000Z</time>
      </trkpt>
      <trkpt lat="48.68039" lon="1.73707">
        <ele>175.80000305176</ele>
        <time>2014-05-25T15:00:08.000Z</time>
      </trkpt>
      <trkpt lat="48.68048" lon="1.7372">
        <ele>175.39999389648</ele>
        <time>2014-05-25T15:00:16.000Z</time>
      </trkpt>
      <trkpt lat="48.68054" lon="1.73732">
        <ele>175</ele>
        <time>2014-05-25T15:00:22.000Z</time>
      </trkpt>
      <trkpt lat="48.68066" lon="1.73747">
        <ele>174.19999694824</ele>
        <time>2014-05-25T15:00:28.000Z</time>
      </trkpt>
      <trkpt lat="48.68072" lon="1.7376">
        <ele>173.60000610352</ele>
        <time>2014-05-25T15:00:34.000Z</time>
      </trkpt>
      <trkpt lat="48.68081" lon="1.73771">
        <ele>173</ele>
        <time>2014-05-25T15:00:39.000Z</time>
      </trkpt>
      <trkpt lat="48.68089" lon="1.73785">
        <ele>172.19999694824</ele>
        <time>2014-05-25T15:00:44.000Z</time>
      </trkpt>
      <trkpt lat="48.68101" lon="1.738">
        <ele>171.39999389648</ele>
        <time>2014-05-25T15:00:49.000Z</time>
      </trkpt>
      <trkpt lat="48.68109" lon="1.73816">
        <ele>171</ele>
        <time>2014-05-25T15:00:54.000Z</time>
      </trkpt>
      <trkpt lat="48.68122" lon="1.73836">
        <ele>170.19999694824</ele>
        <time>2014-05-25T15:01:00.000Z</time>
      </trkpt>
      <trkpt lat="48.6814" lon="1.73855">
        <ele>169.19999694824</ele>
        <time>2014-05-25T15:01:05.000Z</time>
      </trkpt>
      <trkpt lat="48.68153" lon="1.73872">
        <ele>168.60000610352</ele>
        <time>2014-05-25T15:01:10.000Z</time>
      </trkpt>
      <trkpt lat="48.68163" lon="1.73887">
        <ele>168.19999694824</ele>
        <time>2014-05-25T15:01:15.000Z</time>
      </trkpt>
      <trkpt lat="48.68174" lon="1.73905">
        <ele>167.60000610352</ele>
        <time>2014-05-25T15:01:20.000Z</time>
      </trkpt>
      <trkpt lat="48.68187" lon="1.73928">
        <ele>167</ele>
        <time>2014-05-25T15:01:26.000Z</time>
      </trkpt>
      <trkpt lat="48.68198" lon="1.73945">
        <ele>166.80000305176</ele>
        <time>2014-05-25T15:01:31.000Z</time>
      </trkpt>
      <trkpt lat="48.682" lon="1.73948">
        <ele>166.60000610352</ele>
        <time>2014-05-25T15:01:32.000Z</time>
      </trkpt>
      <trkpt lat="48.68205" lon="1.73964">
        <ele>166.60000610352</ele>
        <time>2014-05-25T15:01:36.000Z</time>
      </trkpt>
      <trkpt lat="48.68209" lon="1.73998">
        <ele>166.39999389648</ele>
        <time>2014-05-25T15:01:43.000Z</time>
      </trkpt>
      <trkpt lat="48.68218" lon="1.74036">
        <ele>165.60000610352</ele>
        <time>2014-05-25T15:01:50.000Z</time>
      </trkpt>
      <trkpt lat="48.68225" lon="1.74064">
        <ele>165.19999694824</ele>
        <time>2014-05-25T15:01:55.000Z</time>
      </trkpt>
      <trkpt lat="48.68227" lon="1.74084">
        <ele>164.80000305176</ele>
        <time>2014-05-25T15:01:59.000Z</time>
      </trkpt>
      <trkpt lat="48.68234" lon="1.74108">
        <ele>164</ele>
        <time>2014-05-25T15:02:04.000Z</time>
      </trkpt>
      <trkpt lat="48.68244" lon="1.74141">
        <ele>163.19999694824</ele>
        <time>2014-05-25T15:02:10.000Z</time>
      </trkpt>
      <trkpt lat="48.68248" lon="1.74165">
        <ele>163</ele>
        <time>2014-05-25T15:02:15.000Z</time>
      </trkpt>
      <trkpt lat="48.68248" lon="1.74173">
        <ele>163</ele>
        <time>2014-05-25T15:02:17.000Z</time>
      </trkpt>
      <trkpt lat="48.68251" lon="1.7419">
        <ele>162.80000305176</ele>
        <time>2014-05-25T15:02:23.000Z</time>
      </trkpt>
      <trkpt lat="48.68252" lon="1.74204">
        <ele>162.80000305176</ele>
        <time>2014-05-25T15:02:29.000Z</time>
      </trkpt>
      <trkpt lat="48.68256" lon="1.74218">
        <ele>162.60000610352</ele>
        <time>2014-05-25T15:02:35.000Z</time>
      </trkpt>
      <trkpt lat="48.68258" lon="1.7423">
        <ele>162.60000610352</ele>
        <time>2014-05-25T15:02:40.000Z</time>
      </trkpt>
      <trkpt lat="48.68265" lon="1.74244">
        <ele>162.39999389648</ele>
        <time>2014-05-25T15:02:47.000Z</time>
      </trkpt>
      <trkpt lat="48.68269" lon="1.74256">
        <ele>162.39999389648</ele>
        <time>2014-05-25T15:02:52.000Z</time>
      </trkpt>
      <trkpt lat="48.68273" lon="1.74273">
        <ele>162.80000305176</ele>
        <time>2014-05-25T15:02:59.000Z</time>
      </trkpt>
      <trkpt lat="48.68274" lon="1.74284">
        <ele>163</ele>
        <time>2014-05-25T15:03:05.000Z</time>
      </trkpt>
      <trkpt lat="48.68276" lon="1.74294">
        <ele>163.19999694824</ele>
        <time>2014-05-25T15:03:10.000Z</time>
      </trkpt>
      <trkpt lat="48.68277" lon="1.74305">
        <ele>163.39999389648</ele>
        <time>2014-05-25T15:03:16.000Z</time>
      </trkpt>
      <trkpt lat="48.68277" lon="1.74307">
        <ele>163.39999389648</ele>
        <time>2014-05-25T15:03:17.000Z</time>
      </trkpt>
      <trkpt lat="48.6828" lon="1.74324">
        <ele>163.60000610352</ele>
        <time>2014-05-25T15:03:24.000Z</time>
      </trkpt>
      <trkpt lat="48.68283" lon="1.7434">
        <ele>163.60000610352</ele>
        <time>2014-05-25T15:03:31.000Z</time>
      </trkpt>
      <trkpt lat="48.68286" lon="1.74352">
        <ele>163.39999389648</ele>
        <time>2014-05-25T15:03:37.000Z</time>
      </trkpt>
      <trkpt lat="48.68287" lon="1.74366">
        <ele>163.39999389648</ele>
        <time>2014-05-25T15:03:44.000Z</time>
      </trkpt>
      <trkpt lat="48.68286" lon="1.74373">
        <ele>163.39999389648</ele>
        <time>2014-05-25T15:03:47.000Z</time>
      </trkpt>
      <trkpt lat="48.68289" lon="1.74389">
        <ele>163.39999389648</ele>
        <time>2014-05-25T15:03:55.000Z</time>
      </trkpt>
      <trkpt lat="48.68291" lon="1.74397">
        <ele>163.19999694824</ele>
        <time>2014-05-25T15:03:58.000Z</time>
      </trkpt>
      <trkpt lat="48.68292" lon="1.74411">
        <ele>163</ele>
        <time>2014-05-25T15:04:05.000Z</time>
      </trkpt>
      <trkpt lat="48.68296" lon="1.7442">
        <ele>162.39999389648</ele>
        <time>2014-05-25T15:04:10.000Z</time>
      </trkpt>
      <trkpt lat="48.68297" lon="1.74432">
        <ele>162</ele>
        <time>2014-05-25T15:04:16.000Z</time>
      </trkpt>
      <trkpt lat="48.68299" lon="1.74439">
        <ele>162</ele>
        <time>2014-05-25T15:04:21.000Z</time>
      </trkpt>
      <trkpt lat="48.68302" lon="1.7445">
        <ele>161.80000305176</ele>
        <time>2014-05-25T15:04:28.000Z</time>
      </trkpt>
      <trkpt lat="48.68304" lon="1.74456">
        <ele>161.80000305176</ele>
        <time>2014-05-25T15:04:32.000Z</time>
      </trkpt>
      <trkpt lat="48.68303" lon="1.74464">
        <ele>162</ele>
        <time>2014-05-25T15:04:37.000Z</time>
      </trkpt>
      <trkpt lat="48.68301" lon="1.74475">
        <ele>162.19999694824</ele>
        <time>2014-05-25T15:04:42.000Z</time>
      </trkpt>
      <trkpt lat="48.68301" lon="1.74492">
        <ele>162.19999694824</ele>
        <time>2014-05-25T15:04:51.000Z</time>
      </trkpt>
      <trkpt lat="48.68302" lon="1.74493">
        <ele>162</ele>
        <time>2014-05-25T15:04:52.000Z</time>
      </trkpt>
      <trkpt lat="48.68305" lon="1.74503">
        <ele>161.39999389648</ele>
        <time>2014-05-25T15:04:58.000Z</time>
      </trkpt>
      <trkpt lat="48.68308" lon="1.7451">
        <ele>160.60000610352</ele>
        <time>2014-05-25T15:05:04.000Z</time>
      </trkpt>
      <trkpt lat="48.68314" lon="1.74515">
        <ele>160</ele>
        <time>2014-05-25T15:05:08.000Z</time>
      </trkpt>
      <trkpt lat="48.6832" lon="1.74522">
        <ele>159.19999694824</ele>
        <time>2014-05-25T15:05:13.000Z</time>
      </trkpt>
      <trkpt lat="48.68327" lon="1.74531">
        <ele>158</ele>
        <time>2014-05-25T15:05:19.000Z</time>
      </trkpt>
      <trkpt lat="48.68331" lon="1.74537">
        <ele>157.39999389648</ele>
        <time>2014-05-25T15:05:23.000Z</time>
      </trkpt>
      <trkpt lat="48.68339" lon="1.74546">
        <ele>156.39999389648</ele>
        <time>2014-05-25T15:05:30.000Z</time>
      </trkpt>
      <trkpt lat="48.68342" lon="1.74549">
        <ele>156</ele>
        <time>2014-05-25T15:05:33.000Z</time>
      </trkpt>
      <trkpt lat="48.68348" lon="1.74554">
        <ele>155.19999694824</ele>
        <time>2014-05-25T15:05:38.000Z</time>
      </trkpt>
      <trkpt lat="48.68356" lon="1.74561">
        <ele>154.39999389648</ele>
        <time>2014-05-25T15:05:44.000Z</time>
      </trkpt>
      <trkpt lat="48.68358" lon="1.74564">
        <ele>154.39999389648</ele>
        <time>2014-05-25T15:05:46.000Z</time>
      </trkpt>
      <trkpt lat="48.68367" lon="1.74575">
        <ele>154.19999694824</ele>
        <time>2014-05-25T15:05:53.000Z</time>
      </trkpt>
      <trkpt lat="48.68372" lon="1.74595">
        <ele>155</ele>
        <time>2014-05-25T15:06:01.000Z</time>
      </trkpt>
      <trkpt lat="48.6837" lon="1.74609">
        <ele>154.80000305176</ele>
        <time>2014-05-25T15:06:07.000Z</time>
      </trkpt>
      <trkpt lat="48.68363" lon="1.74626">
        <ele>154</ele>
        <time>2014-05-25T15:06:15.000Z</time>
      </trkpt>
      <trkpt lat="48.68363" lon="1.74628">
        <ele>154</ele>
        <time>2014-05-25T15:06:16.000Z</time>
      </trkpt>
      <trkpt lat="48.68361" lon="1.74635">
        <ele>153.80000305176</ele>
        <time>2014-05-25T15:06:20.000Z</time>
      </trkpt>
      <trkpt lat="48.68357" lon="1.74642">
        <ele>153.39999389648</ele>
        <time>2014-05-25T15:06:25.000Z</time>
      </trkpt>
      <trkpt lat="48.68351" lon="1.7465">
        <ele>153.19999694824</ele>
        <time>2014-05-25T15:06:30.000Z</time>
      </trkpt>
      <trkpt lat="48.68345" lon="1.74661">
        <ele>153.80000305176</ele>
        <time>2014-05-25T15:06:37.000Z</time>
      </trkpt>
      <trkpt lat="48.68342" lon="1.74669">
        <ele>154.39999389648</ele>
        <time>2014-05-25T15:06:41.000Z</time>
      </trkpt>
      <trkpt lat="48.68338" lon="1.74679">
        <ele>155</ele>
        <time>2014-05-25T15:06:47.000Z</time>
      </trkpt>
      <trkpt lat="48.68333" lon="1.74692">
        <ele>155.80000305176</ele>
        <time>2014-05-25T15:06:53.000Z</time>
      </trkpt>
      <trkpt lat="48.68329" lon="1.74704">
        <ele>156.60000610352</ele>
        <time>2014-05-25T15:06:59.000Z</time>
      </trkpt>
      <trkpt lat="48.68326" lon="1.7471">
        <ele>157</ele>
        <time>2014-05-25T15:07:03.000Z</time>
      </trkpt>
      <trkpt lat="48.68323" lon="1.7472">
        <ele>156.19999694824</ele>
        <time>2014-05-25T15:07:10.000Z</time>
      </trkpt>
      <trkpt lat="48.68315" lon="1.74728">
        <ele>155.60000610352</ele>
        <time>2014-05-25T15:07:17.000Z</time>
      </trkpt>
      <trkpt lat="48.68309" lon="1.7474">
        <ele>155</ele>
        <time>2014-05-25T15:07:23.000Z</time>
      </trkpt>
      <trkpt lat="48.683" lon="1.74754">
        <ele>155.60000610352</ele>
        <time>2014-05-25T15:07:28.000Z</time>
      </trkpt>
      <trkpt lat="48.68293" lon="1.74766">
        <ele>155.60000610352</ele>
        <time>2014-05-25T15:07:33.000Z</time>
      </trkpt>
      <trkpt lat="48.68283" lon="1.74787">
        <ele>154.19999694824</ele>
        <time>2014-05-25T15:07:38.000Z</time>
      </trkpt>
      <trkpt lat="48.68271" lon="1.74815">
        <ele>152.19999694824</ele>
        <time>2014-05-25T15:07:45.000Z</time>
      </trkpt>
      <trkpt lat="48.68258" lon="1.74839">
        <ele>152.60000610352</ele>
        <time>2014-05-25T15:07:51.000Z</time>
      </trkpt>
      <trkpt lat="48.6825" lon="1.74858">
        <ele>153.19999694824</ele>
        <time>2014-05-25T15:07:57.000Z</time>
      </trkpt>
      <trkpt lat="48.68241" lon="1.74879">
        <ele>153.39999389648</ele>
        <time>2014-05-25T15:08:03.000Z</time>
      </trkpt>
      <trkpt lat="48.68232" lon="1.74903">
        <ele>151.60000610352</ele>
        <time>2014-05-25T15:08:08.000Z</time>
      </trkpt>
      <trkpt lat="48.68221" lon="1.7493">
        <ele>153</ele>
        <time>2014-05-25T15:08:13.000Z</time>
      </trkpt>
      <trkpt lat="48.68216" lon="1.74949">
        <ele>153</ele>
        <time>2014-05-25T15:08:18.000Z</time>
      </trkpt>
      <trkpt lat="48.68215" lon="1.74967">
        <ele>152.60000610352</ele>
        <time>2014-05-25T15:08:22.000Z</time>
      </trkpt>
      <trkpt lat="48.68215" lon="1.74978">
        <ele>152.60000610352</ele>
        <time>2014-05-25T15:08:27.000Z</time>
      </trkpt>
      <trkpt lat="48.68213" lon="1.74987">
        <ele>152.19999694824</ele>
        <time>2014-05-25T15:08:32.000Z</time>
      </trkpt>
      <trkpt lat="48.68207" lon="1.75003">
        <ele>152.60000610352</ele>
        <time>2014-05-25T15:08:39.000Z</time>
      </trkpt>
      <trkpt lat="48.68204" lon="1.75008">
        <ele>152.60000610352</ele>
        <time>2014-05-25T15:08:41.000Z</time>
      </trkpt>
      <trkpt lat="48.682" lon="1.7502">
        <ele>152.19999694824</ele>
        <time>2014-05-25T15:08:48.000Z</time>
      </trkpt>
      <trkpt lat="48.68199" lon="1.75031">
        <ele>152.19999694824</ele>
        <time>2014-05-25T15:08:55.000Z</time>
      </trkpt>
      <trkpt lat="48.68197" lon="1.75039">
        <ele>152</ele>
        <time>2014-05-25T15:09:00.000Z</time>
      </trkpt>
      <trkpt lat="48.68196" lon="1.75045">
        <ele>152</ele>
        <time>2014-05-25T15:09:03.000Z</time>
      </trkpt>
      <trkpt lat="48.68193" lon="1.75057">
        <ele>151.60000610352</ele>
        <time>2014-05-25T15:09:09.000Z</time>
      </trkpt>
      <trkpt lat="48.68188" lon="1.75065">
        <ele>151.19999694824</ele>
        <time>2014-05-25T15:09:14.000Z</time>
      </trkpt>
      <trkpt lat="48.68186" lon="1.75072">
        <ele>151</ele>
        <time>2014-05-25T15:09:17.000Z</time>
      </trkpt>
      <trkpt lat="48.68179" lon="1.75085">
        <ele>151.39999389648</ele>
        <time>2014-05-25T15:09:25.000Z</time>
      </trkpt>
      <trkpt lat="48.68178" lon="1.75086">
        <ele>151.39999389648</ele>
        <time>2014-05-25T15:09:26.000Z</time>
      </trkpt>
      <trkpt lat="48.6817" lon="1.75099">
        <ele>151.80000305176</ele>
        <time>2014-05-25T15:09:34.000Z</time>
      </trkpt>
      <trkpt lat="48.68166" lon="1.75109">
        <ele>152</ele>
        <time>2014-05-25T15:09:40.000Z</time>
      </trkpt>
      <trkpt lat="48.68156" lon="1.75122">
        <ele>152.19999694824</ele>
        <time>2014-05-25T15:09:48.000Z</time>
      </trkpt>
      <trkpt lat="48.68154" lon="1.75126">
        <ele>152.19999694824</ele>
        <time>2014-05-25T15:09:50.000Z</time>
      </trkpt>
      <trkpt lat="48.68147" lon="1.75139">
        <ele>151.80000305176</ele>
        <time>2014-05-25T15:09:57.000Z</time>
      </trkpt>
      <trkpt lat="48.68142" lon="1.75149">
        <ele>151.60000610352</ele>
        <time>2014-05-25T15:10:02.000Z</time>
      </trkpt>
      <trkpt lat="48.68132" lon="1.75162">
        <ele>150.80000305176</ele>
        <time>2014-05-25T15:10:11.000Z</time>
      </trkpt>
      <trkpt lat="48.6813" lon="1.75164">
        <ele>150.60000610352</ele>
        <time>2014-05-25T15:10:12.000Z</time>
      </trkpt>
      <trkpt lat="48.68122" lon="1.75178">
        <ele>150</ele>
        <time>2014-05-25T15:10:21.000Z</time>
      </trkpt>
      <trkpt lat="48.68115" lon="1.75186">
        <ele>149.80000305176</ele>
        <time>2014-05-25T15:10:28.000Z</time>
      </trkpt>
      <trkpt lat="48.68109" lon="1.75196">
        <ele>149.80000305176</ele>
        <time>2014-05-25T15:10:35.000Z</time>
      </trkpt>
      <trkpt lat="48.68104" lon="1.75204">
        <ele>149.80000305176</ele>
        <time>2014-05-25T15:10:40.000Z</time>
      </trkpt>
      <trkpt lat="48.68099" lon="1.75214">
        <ele>150.19999694824</ele>
        <time>2014-05-25T15:10:48.000Z</time>
      </trkpt>
      <trkpt lat="48.68092" lon="1.75225">
        <ele>150.39999389648</ele>
        <time>2014-05-25T15:10:55.000Z</time>
      </trkpt>
      <trkpt lat="48.6809" lon="1.75233">
        <ele>150.39999389648</ele>
        <time>2014-05-25T15:11:01.000Z</time>
      </trkpt>
      <trkpt lat="48.68088" lon="1.75237">
        <ele>150.19999694824</ele>
        <time>2014-05-25T15:11:04.000Z</time>
      </trkpt>
      <trkpt lat="48.68085" lon="1.75252">
        <ele>150.19999694824</ele>
        <time>2014-05-25T15:11:12.000Z</time>
      </trkpt>
      <trkpt lat="48.68084" lon="1.75253">
        <ele>150</ele>
        <time>2014-05-25T15:11:13.000Z</time>
      </trkpt>
      <trkpt lat="48.68082" lon="1.75259">
        <ele>150</ele>
        <time>2014-05-25T15:11:17.000Z</time>
      </trkpt>
      <trkpt lat="48.6808" lon="1.75275">
        <ele>149.80000305176</ele>
        <time>2014-05-25T15:11:25.000Z</time>
      </trkpt>
      <trkpt lat="48.68077" lon="1.75289">
        <ele>149.80000305176</ele>
        <time>2014-05-25T15:11:32.000Z</time>
      </trkpt>
      <trkpt lat="48.68074" lon="1.75302">
        <ele>149.80000305176</ele>
        <time>2014-05-25T15:11:39.000Z</time>
      </trkpt>
      <trkpt lat="48.68071" lon="1.75319">
        <ele>149.80000305176</ele>
        <time>2014-05-25T15:11:46.000Z</time>
      </trkpt>
      <trkpt lat="48.68071" lon="1.7533">
        <ele>149.80000305176</ele>
        <time>2014-05-25T15:11:52.000Z</time>
      </trkpt>
      <trkpt lat="48.68069" lon="1.75336">
        <ele>149.60000610352</ele>
        <time>2014-05-25T15:11:55.000Z</time>
      </trkpt>
      <trkpt lat="48.68069" lon="1.75351">
        <ele>149.39999389648</ele>
        <time>2014-05-25T15:12:03.000Z</time>
      </trkpt>
      <trkpt lat="48.68068" lon="1.75364">
        <ele>149.19999694824</ele>
        <time>2014-05-25T15:12:10.000Z</time>
      </trkpt>
      <trkpt lat="48.68066" lon="1.75378">
        <ele>149.19999694824</ele>
        <time>2014-05-25T15:12:16.000Z</time>
      </trkpt>
      <trkpt lat="48.68064" lon="1.75389">
        <ele>149</ele>
        <time>2014-05-25T15:12:21.000Z</time>
      </trkpt>
      <trkpt lat="48.68062" lon="1.75401">
        <ele>149</ele>
        <time>2014-05-25T15:12:27.000Z</time>
      </trkpt>
      <trkpt lat="48.68058" lon="1.7542">
        <ele>149</ele>
        <time>2014-05-25T15:12:36.000Z</time>
      </trkpt>
      <trkpt lat="48.68055" lon="1.75436">
        <ele>148.80000305176</ele>
        <time>2014-05-25T15:12:44.000Z</time>
      </trkpt>
      <trkpt lat="48.68052" lon="1.75454">
        <ele>148.39999389648</ele>
        <time>2014-05-25T15:12:53.000Z</time>
      </trkpt>
      <trkpt lat="48.6805" lon="1.75472">
        <ele>147.80000305176</ele>
        <time>2014-05-25T15:13:01.000Z</time>
      </trkpt>
      <trkpt lat="48.68047" lon="1.75494">
        <ele>147.39999389648</ele>
        <time>2014-05-25T15:13:11.000Z</time>
      </trkpt>
      <trkpt lat="48.68047" lon="1.7551">
        <ele>147.19999694824</ele>
        <time>2014-05-25T15:13:18.000Z</time>
      </trkpt>
      <trkpt lat="48.68052" lon="1.75518">
        <ele>147.60000610352</ele>
        <time>2014-05-25T15:13:23.000Z</time>
      </trkpt>
      <trkpt lat="48.68059" lon="1.75523">
        <ele>147.80000305176</ele>
        <time>2014-05-25T15:13:29.000Z</time>
      </trkpt>
      <trkpt lat="48.68068" lon="1.75529">
        <ele>148.39999389648</ele>
        <time>2014-05-25T15:13:36.000Z</time>
      </trkpt>
      <trkpt lat="48.68073" lon="1.75532">
        <ele>148.60000610352</ele>
        <time>2014-05-25T15:13:40.000Z</time>
      </trkpt>
      <trkpt lat="48.68085" lon="1.7554">
        <ele>149.19999694824</ele>
        <time>2014-05-25T15:13:49.000Z</time>
      </trkpt>
      <trkpt lat="48.6809" lon="1.75545">
        <ele>149.39999389648</ele>
        <time>2014-05-25T15:13:54.000Z</time>
      </trkpt>
      <trkpt lat="48.68098" lon="1.75552">
        <ele>149.80000305176</ele>
        <time>2014-05-25T15:14:01.000Z</time>
      </trkpt>
      <trkpt lat="48.68109" lon="1.75562">
        <ele>150.19999694824</ele>
        <time>2014-05-25T15:14:09.000Z</time>
      </trkpt>
      <trkpt lat="48.68118" lon="1.75569">
        <ele>150.39999389648</ele>
        <time>2014-05-25T15:14:16.000Z</time>
      </trkpt>
      <trkpt lat="48.68127" lon="1.75577">
        <ele>150.60000610352</ele>
        <time>2014-05-25T15:14:24.000Z</time>
      </trkpt>
      <trkpt lat="48.68132" lon="1.7558">
        <ele>150.60000610352</ele>
        <time>2014-05-25T15:14:28.000Z</time>
      </trkpt>
      <trkpt lat="48.68143" lon="1.75586">
        <ele>151</ele>
        <time>2014-05-25T15:14:37.000Z</time>
      </trkpt>
      <trkpt lat="48.68156" lon="1.75593">
        <ele>151.19999694824</ele>
        <time>2014-05-25T15:14:47.000Z</time>
      </trkpt>
      <trkpt lat="48.68172" lon="1.756">
        <ele>151.60000610352</ele>
        <time>2014-05-25T15:14:58.000Z</time>
      </trkpt>
      <trkpt lat="48.68183" lon="1.75605">
        <ele>152</ele>
        <time>2014-05-25T15:15:07.000Z</time>
      </trkpt>
      <trkpt lat="48.68196" lon="1.75608">
        <ele>152.19999694824</ele>
        <time>2014-05-25T15:15:16.000Z</time>
      </trkpt>
      <trkpt lat="48.68205" lon="1.75613">
        <ele>152.19999694824</ele>
        <time>2014-05-25T15:15:22.000Z</time>
      </trkpt>
      <trkpt lat="48.68213" lon="1.75616">
        <ele>152.39999389648</ele>
        <time>2014-05-25T15:15:28.000Z</time>
      </trkpt>
      <trkpt lat="48.68226" lon="1.75623">
        <ele>152.39999389648</ele>
        <time>2014-05-25T15:15:38.000Z</time>
      </trkpt>
      <trkpt lat="48.68237" lon="1.75626">
        <ele>152.60000610352</ele>
        <time>2014-05-25T15:15:46.000Z</time>
      </trkpt>
      <trkpt lat="48.68248" lon="1.75629">
        <ele>152.80000305176</ele>
        <time>2014-05-25T15:15:54.000Z</time>
      </trkpt>
      <trkpt lat="48.68256" lon="1.75631">
        <ele>152.80000305176</ele>
        <time>2014-05-25T15:16:00.000Z</time>
      </trkpt>
      <trkpt lat="48.68268" lon="1.75634">
        <ele>153</ele>
        <time>2014-05-25T15:16:08.000Z</time>
      </trkpt>
      <trkpt lat="48.68279" lon="1.75637">
        <ele>152.80000305176</ele>
        <time>2014-05-25T15:16:16.000Z</time>
      </trkpt>
      <trkpt lat="48.68287" lon="1.75638">
        <ele>152.80000305176</ele>
        <time>2014-05-25T15:16:22.000Z</time>
      </trkpt>
      <trkpt lat="48.68295" lon="1.7564">
        <ele>152.60000610352</ele>
        <time>2014-05-25T15:16:28.000Z</time>
      </trkpt>
      <trkpt lat="48.68306" lon="1.75642">
        <ele>152.60000610352</ele>
        <time>2014-05-25T15:16:36.000Z</time>
      </trkpt>
      <trkpt lat="48.68318" lon="1.75638">
        <ele>152.39999389648</ele>
        <time>2014-05-25T15:16:44.000Z</time>
      </trkpt>
      <trkpt lat="48.68327" lon="1.75636">
        <ele>152.39999389648</ele>
        <time>2014-05-25T15:16:50.000Z</time>
      </trkpt>
      <trkpt lat="48.68336" lon="1.75633">
        <ele>152.19999694824</ele>
        <time>2014-05-25T15:16:58.000Z</time>
      </trkpt>
      <trkpt lat="48.68337" lon="1.75632">
        <ele>152.19999694824</ele>
        <time>2014-05-25T15:16:59.000Z</time>
      </trkpt>
      <trkpt lat="48.68346" lon="1.75627">
        <ele>152.39999389648</ele>
        <time>2014-05-25T15:17:06.000Z</time>
      </trkpt>
      <trkpt lat="48.68353" lon="1.75619">
        <ele>152.39999389648</ele>
        <time>2014-05-25T15:17:12.000Z</time>
      </trkpt>
      <trkpt lat="48.68356" lon="1.75617">
        <ele>152.60000610352</ele>
        <time>2014-05-25T15:17:14.000Z</time>
      </trkpt>
      <trkpt lat="48.68362" lon="1.75614">
        <ele>152.60000610352</ele>
        <time>2014-05-25T15:17:19.000Z</time>
      </trkpt>
      <trkpt lat="48.68371" lon="1.75606">
        <ele>153</ele>
        <time>2014-05-25T15:17:28.000Z</time>
      </trkpt>
      <trkpt lat="48.6838" lon="1.75599">
        <ele>153.39999389648</ele>
        <time>2014-05-25T15:17:36.000Z</time>
      </trkpt>
      <trkpt lat="48.6839" lon="1.75593">
        <ele>153.60000610352</ele>
        <time>2014-05-25T15:17:44.000Z</time>
      </trkpt>
      <trkpt lat="48.68402" lon="1.75589">
        <ele>154</ele>
        <time>2014-05-25T15:17:52.000Z</time>
      </trkpt>
      <trkpt lat="48.68412" lon="1.75584">
        <ele>154.19999694824</ele>
        <time>2014-05-25T15:17:59.000Z</time>
      </trkpt>
      <trkpt lat="48.68421" lon="1.75581">
        <ele>154.60000610352</ele>
        <time>2014-05-25T15:18:06.000Z</time>
      </trkpt>
      <trkpt lat="48.68422" lon="1.7558">
        <ele>154.60000610352</ele>
        <time>2014-05-25T15:18:07.000Z</time>
      </trkpt>
      <trkpt lat="48.68424" lon="1.75579">
        <ele>154.60000610352</ele>
        <time>2014-05-25T15:18:09.000Z</time>
      </trkpt>
      <trkpt lat="48.6843" lon="1.75575">
        <ele>154.80000305176</ele>
        <time>2014-05-25T15:18:13.000Z</time>
      </trkpt>
      <trkpt lat="48.68442" lon="1.75568">
        <ele>155.19999694824</ele>
        <time>2014-05-25T15:18:23.000Z</time>
      </trkpt>
      <trkpt lat="48.68453" lon="1.75562">
        <ele>155.60000610352</ele>
        <time>2014-05-25T15:18:31.000Z</time>
      </trkpt>
      <trkpt lat="48.68462" lon="1.7556">
        <ele>155.80000305176</ele>
        <time>2014-05-25T15:18:38.000Z</time>
      </trkpt>
      <trkpt lat="48.68468" lon="1.75556">
        <ele>156</ele>
        <time>2014-05-25T15:18:42.000Z</time>
      </trkpt>
      <trkpt lat="48.68477" lon="1.7555">
        <ele>156.39999389648</ele>
        <time>2014-05-25T15:18:49.000Z</time>
      </trkpt>
      <trkpt lat="48.6848" lon="1.75549">
        <ele>156.60000610352</ele>
        <time>2014-05-25T15:18:51.000Z</time>
      </trkpt>
      <trkpt lat="48.6849" lon="1.75544">
        <ele>157</ele>
        <time>2014-05-25T15:18:57.000Z</time>
      </trkpt>
      <trkpt lat="48.685" lon="1.7554">
        <ele>157</ele>
        <time>2014-05-25T15:19:04.000Z</time>
      </trkpt>
      <trkpt lat="48.68501" lon="1.75539">
        <ele>157</ele>
        <time>2014-05-25T15:19:05.000Z</time>
      </trkpt>
      <trkpt lat="48.68513" lon="1.75532">
        <ele>157</ele>
        <time>2014-05-25T15:19:13.000Z</time>
      </trkpt>
      <trkpt lat="48.68514" lon="1.75532">
        <ele>157</ele>
        <time>2014-05-25T15:19:14.000Z</time>
      </trkpt>
      <trkpt lat="48.68522" lon="1.75527">
        <ele>157.19999694824</ele>
        <time>2014-05-25T15:19:20.000Z</time>
      </trkpt>
      <trkpt lat="48.68529" lon="1.75523">
        <ele>157.80000305176</ele>
        <time>2014-05-25T15:19:24.000Z</time>
      </trkpt>
      <trkpt lat="48.68533" lon="1.7552">
        <ele>158</ele>
        <time>2014-05-25T15:19:27.000Z</time>
      </trkpt>
      <trkpt lat="48.68546" lon="1.75513">
        <ele>159</ele>
        <time>2014-05-25T15:19:35.000Z</time>
      </trkpt>
      <trkpt lat="48.68547" lon="1.75513">
        <ele>159</ele>
        <time>2014-05-25T15:19:36.000Z</time>
      </trkpt>
      <trkpt lat="48.68552" lon="1.75512">
        <ele>159</ele>
        <time>2014-05-25T15:19:40.000Z</time>
      </trkpt>
      <trkpt lat="48.68563" lon="1.75506">
        <ele>159</ele>
        <time>2014-05-25T15:19:47.000Z</time>
      </trkpt>
      <trkpt lat="48.68571" lon="1.755">
        <ele>159</ele>
        <time>2014-05-25T15:19:53.000Z</time>
      </trkpt>
      <trkpt lat="48.68573" lon="1.755">
        <ele>159</ele>
        <time>2014-05-25T15:19:55.000Z</time>
      </trkpt>
      <trkpt lat="48.68579" lon="1.75498">
        <ele>159</ele>
        <time>2014-05-25T15:20:00.000Z</time>
      </trkpt>
      <trkpt lat="48.68591" lon="1.75487">
        <ele>159</ele>
        <time>2014-05-25T15:20:08.000Z</time>
      </trkpt>
      <trkpt lat="48.68602" lon="1.75482">
        <ele>159.19999694824</ele>
        <time>2014-05-25T15:20:15.000Z</time>
      </trkpt>
      <trkpt lat="48.68613" lon="1.75475">
        <ele>159.19999694824</ele>
        <time>2014-05-25T15:20:23.000Z</time>
      </trkpt>
      <trkpt lat="48.68624" lon="1.7547">
        <ele>159.39999389648</ele>
        <time>2014-05-25T15:20:30.000Z</time>
      </trkpt>
      <trkpt lat="48.68635" lon="1.75466">
        <ele>159.60000610352</ele>
        <time>2014-05-25T15:20:38.000Z</time>
      </trkpt>
      <trkpt lat="48.68644" lon="1.75463">
        <ele>159.80000305176</ele>
        <time>2014-05-25T15:20:45.000Z</time>
      </trkpt>
      <trkpt lat="48.6865" lon="1.75461">
        <ele>159.80000305176</ele>
        <time>2014-05-25T15:20:50.000Z</time>
      </trkpt>
      <trkpt lat="48.68658" lon="1.75459">
        <ele>160</ele>
        <time>2014-05-25T15:20:55.000Z</time>
      </trkpt>
      <trkpt lat="48.68665" lon="1.75457">
        <ele>159.60000610352</ele>
        <time>2014-05-25T15:21:01.000Z</time>
      </trkpt>
      <trkpt lat="48.68675" lon="1.75451">
        <ele>159.19999694824</ele>
        <time>2014-05-25T15:21:08.000Z</time>
      </trkpt>
      <trkpt lat="48.68686" lon="1.75444">
        <ele>158.39999389648</ele>
        <time>2014-05-25T15:21:17.000Z</time>
      </trkpt>
      <trkpt lat="48.68698" lon="1.75437">
        <ele>158</ele>
        <time>2014-05-25T15:21:26.000Z</time>
      </trkpt>
      <trkpt lat="48.68708" lon="1.7543">
        <ele>157.60000610352</ele>
        <time>2014-05-25T15:21:34.000Z</time>
      </trkpt>
      <trkpt lat="48.68719" lon="1.75424">
        <ele>157.39999389648</ele>
        <time>2014-05-25T15:21:42.000Z</time>
      </trkpt>
      <trkpt lat="48.68731" lon="1.75417">
        <ele>157.39999389648</ele>
        <time>2014-05-25T15:21:52.000Z</time>
      </trkpt>
      <trkpt lat="48.68742" lon="1.75411">
        <ele>157.19999694824</ele>
        <time>2014-05-25T15:22:01.000Z</time>
      </trkpt>
      <trkpt lat="48.68752" lon="1.75408">
        <ele>157</ele>
        <time>2014-05-25T15:22:08.000Z</time>
      </trkpt>
      <trkpt lat="48.68768" lon="1.75399">
        <ele>156.80000305176</ele>
        <time>2014-05-25T15:22:19.000Z</time>
      </trkpt>
      <trkpt lat="48.6878" lon="1.75393">
        <ele>156.80000305176</ele>
        <time>2014-05-25T15:22:27.000Z</time>
      </trkpt>
      <trkpt lat="48.68794" lon="1.75385">
        <ele>156.80000305176</ele>
        <time>2014-05-25T15:22:36.000Z</time>
      </trkpt>
      <trkpt lat="48.68803" lon="1.75379">
        <ele>156.80000305176</ele>
        <time>2014-05-25T15:22:42.000Z</time>
      </trkpt>
      <trkpt lat="48.68806" lon="1.75375">
        <ele>156.80000305176</ele>
        <time>2014-05-25T15:22:45.000Z</time>
      </trkpt>
      <trkpt lat="48.68814" lon="1.75371">
        <ele>156.80000305176</ele>
        <time>2014-05-25T15:22:50.000Z</time>
      </trkpt>
      <trkpt lat="48.68818" lon="1.7537">
        <ele>156.80000305176</ele>
        <time>2014-05-25T15:22:53.000Z</time>
      </trkpt>
      <trkpt lat="48.68828" lon="1.75363">
        <ele>156.60000610352</ele>
        <time>2014-05-25T15:23:00.000Z</time>
      </trkpt>
      <trkpt lat="48.68838" lon="1.75357">
        <ele>156.19999694824</ele>
        <time>2014-05-25T15:23:07.000Z</time>
      </trkpt>
      <trkpt lat="48.68845" lon="1.75349">
        <ele>156</ele>
        <time>2014-05-25T15:23:12.000Z</time>
      </trkpt>
      <trkpt lat="48.68851" lon="1.75345">
        <ele>155.80000305176</ele>
        <time>2014-05-25T15:23:16.000Z</time>
      </trkpt>
      <trkpt lat="48.68858" lon="1.75342">
        <ele>155.80000305176</ele>
        <time>2014-05-25T15:23:21.000Z</time>
      </trkpt>
      <trkpt lat="48.6886" lon="1.75342">
        <ele>155.60000610352</ele>
        <time>2014-05-25T15:23:22.000Z</time>
      </trkpt>
      <trkpt lat="48.68869" lon="1.75338">
        <ele>155.39999389648</ele>
        <time>2014-05-25T15:23:29.000Z</time>
      </trkpt>
      <trkpt lat="48.68875" lon="1.75333">
        <ele>155.19999694824</ele>
        <time>2014-05-25T15:23:33.000Z</time>
      </trkpt>
      <trkpt lat="48.68888" lon="1.75327">
        <ele>154.80000305176</ele>
        <time>2014-05-25T15:23:41.000Z</time>
      </trkpt>
      <trkpt lat="48.68894" lon="1.75323">
        <ele>154.60000610352</ele>
        <time>2014-05-25T15:23:46.000Z</time>
      </trkpt>
      <trkpt lat="48.68894" lon="1.75323">
        <ele>154.60000610352</ele>
        <time>2014-05-25T15:23:47.000Z</time>
      </trkpt>
      <trkpt lat="48.689" lon="1.75321">
        <ele>154.39999389648</ele>
        <time>2014-05-25T15:23:54.000Z</time>
      </trkpt>
      <trkpt lat="48.68901" lon="1.75319">
        <ele>154.39999389648</ele>
        <time>2014-05-25T15:23:55.000Z</time>
      </trkpt>
      <trkpt lat="48.68911" lon="1.75312">
        <ele>154.19999694824</ele>
        <time>2014-05-25T15:24:01.000Z</time>
      </trkpt>
      <trkpt lat="48.68923" lon="1.75309">
        <ele>154</ele>
        <time>2014-05-25T15:24:08.000Z</time>
      </trkpt>
      <trkpt lat="48.68934" lon="1.75303">
        <ele>153.80000305176</ele>
        <time>2014-05-25T15:24:16.000Z</time>
      </trkpt>
      <trkpt lat="48.68944" lon="1.75297">
        <ele>154</ele>
        <time>2014-05-25T15:24:24.000Z</time>
      </trkpt>
      <trkpt lat="48.68959" lon="1.75289">
        <ele>154.39999389648</ele>
        <time>2014-05-25T15:24:32.000Z</time>
      </trkpt>
      <trkpt lat="48.68967" lon="1.75296">
        <ele>154.80000305176</ele>
        <time>2014-05-25T15:24:38.000Z</time>
      </trkpt>
      <trkpt lat="48.68976" lon="1.75308">
        <ele>155.19999694824</ele>
        <time>2014-05-25T15:24:43.000Z</time>
      </trkpt>
      <trkpt lat="48.68985" lon="1.75328">
        <ele>155.80000305176</ele>
        <time>2014-05-25T15:24:48.000Z</time>
      </trkpt>
      <trkpt lat="48.68999" lon="1.7535">
        <ele>156.60000610352</ele>
        <time>2014-05-25T15:24:52.000Z</time>
      </trkpt>
      <trkpt lat="48.69017" lon="1.75382">
        <ele>157.60000610352</ele>
        <time>2014-05-25T15:24:57.000Z</time>
      </trkpt>
      <trkpt lat="48.69037" lon="1.75415">
        <ele>157.80000305176</ele>
        <time>2014-05-25T15:25:02.000Z</time>
      </trkpt>
      <trkpt lat="48.69048" lon="1.75436">
        <ele>157.80000305176</ele>
        <time>2014-05-25T15:25:05.000Z</time>
      </trkpt>
      <trkpt lat="48.69059" lon="1.75453">
        <ele>157.80000305176</ele>
        <time>2014-05-25T15:25:07.000Z</time>
      </trkpt>
      <trkpt lat="48.69068" lon="1.75466">
        <ele>158</ele>
        <time>2014-05-25T15:25:09.000Z</time>
      </trkpt>
      <trkpt lat="48.69088" lon="1.75501">
        <ele>158.39999389648</ele>
        <time>2014-05-25T15:25:15.000Z</time>
      </trkpt>
      <trkpt lat="48.69096" lon="1.75517">
        <ele>158.80000305176</ele>
        <time>2014-05-25T15:25:18.000Z</time>
      </trkpt>
      <trkpt lat="48.69106" lon="1.75536">
        <ele>159.19999694824</ele>
        <time>2014-05-25T15:25:22.000Z</time>
      </trkpt>
      <trkpt lat="48.69121" lon="1.75559">
        <ele>159.39999389648</ele>
        <time>2014-05-25T15:25:28.000Z</time>
      </trkpt>
      <trkpt lat="48.69128" lon="1.75573">
        <ele>159.60000610352</ele>
        <time>2014-05-25T15:25:32.000Z</time>
      </trkpt>
      <trkpt lat="48.6914" lon="1.75592">
        <ele>160.19999694824</ele>
        <time>2014-05-25T15:25:37.000Z</time>
      </trkpt>
      <trkpt lat="48.6915" lon="1.75604">
        <ele>160.60000610352</ele>
        <time>2014-05-25T15:25:43.000Z</time>
      </trkpt>
      <trkpt lat="48.69158" lon="1.75619">
        <ele>161.19999694824</ele>
        <time>2014-05-25T15:25:51.000Z</time>
      </trkpt>
      <trkpt lat="48.69164" lon="1.75628">
        <ele>161.39999389648</ele>
        <time>2014-05-25T15:25:57.000Z</time>
      </trkpt>
      <trkpt lat="48.6917" lon="1.75638">
        <ele>161.80000305176</ele>
        <time>2014-05-25T15:26:03.000Z</time>
      </trkpt>
      <trkpt lat="48.69177" lon="1.75648">
        <ele>162</ele>
        <time>2014-05-25T15:26:09.000Z</time>
      </trkpt>
      <trkpt lat="48.69187" lon="1.75665">
        <ele>162.39999389648</ele>
        <time>2014-05-25T15:26:14.000Z</time>
      </trkpt>
      <trkpt lat="48.692" lon="1.75691">
        <ele>162.60000610352</ele>
        <time>2014-05-25T15:26:19.000Z</time>
      </trkpt>
      <trkpt lat="48.69207" lon="1.75708">
        <ele>163</ele>
        <time>2014-05-25T15:26:22.000Z</time>
      </trkpt>
      <trkpt lat="48.69218" lon="1.75726">
        <ele>163</ele>
        <time>2014-05-25T15:26:25.000Z</time>
      </trkpt>
      <trkpt lat="48.69237" lon="1.75755">
        <ele>163.19999694824</ele>
        <time>2014-05-25T15:26:30.000Z</time>
      </trkpt>
      <trkpt lat="48.69244" lon="1.75767">
        <ele>163.19999694824</ele>
        <time>2014-05-25T15:26:32.000Z</time>
      </trkpt>
      <trkpt lat="48.69252" lon="1.75778">
        <ele>163.39999389648</ele>
        <time>2014-05-25T15:26:34.000Z</time>
      </trkpt>
      <trkpt lat="48.69261" lon="1.75793">
        <ele>163.39999389648</ele>
        <time>2014-05-25T15:26:37.000Z</time>
      </trkpt>
      <trkpt lat="48.69266" lon="1.75802">
        <ele>163.39999389648</ele>
        <time>2014-05-25T15:26:39.000Z</time>
      </trkpt>
      <trkpt lat="48.69271" lon="1.75813">
        <ele>163.80000305176</ele>
        <time>2014-05-25T15:26:41.000Z</time>
      </trkpt>
      <trkpt lat="48.69276" lon="1.75819">
        <ele>164</ele>
        <time>2014-05-25T15:26:43.000Z</time>
      </trkpt>
      <trkpt lat="48.69297" lon="1.75819">
        <ele>164.19999694824</ele>
        <time>2014-05-25T15:26:49.000Z</time>
      </trkpt>
      <trkpt lat="48.6932" lon="1.75823">
        <ele>164.60000610352</ele>
        <time>2014-05-25T15:26:54.000Z</time>
      </trkpt>
      <trkpt lat="48.69333" lon="1.75823">
        <ele>164.80000305176</ele>
        <time>2014-05-25T15:26:57.000Z</time>
      </trkpt>
      <trkpt lat="48.69344" lon="1.75826">
        <ele>165</ele>
        <time>2014-05-25T15:27:00.000Z</time>
      </trkpt>
      <trkpt lat="48.6936" lon="1.75829">
        <ele>165.39999389648</ele>
        <time>2014-05-25T15:27:04.000Z</time>
      </trkpt>
      <trkpt lat="48.69378" lon="1.75833">
        <ele>165.80000305176</ele>
        <time>2014-05-25T15:27:09.000Z</time>
      </trkpt>
      <trkpt lat="48.69396" lon="1.7584">
        <ele>166.39999389648</ele>
        <time>2014-05-25T15:27:15.000Z</time>
      </trkpt>
      <trkpt lat="48.69414" lon="1.75846">
        <ele>167</ele>
        <time>2014-05-25T15:27:21.000Z</time>
      </trkpt>
      <trkpt lat="48.69433" lon="1.75852">
        <ele>167.60000610352</ele>
        <time>2014-05-25T15:27:26.000Z</time>
      </trkpt>
      <trkpt lat="48.69449" lon="1.75854">
        <ele>168.19999694824</ele>
        <time>2014-05-25T15:27:30.000Z</time>
      </trkpt>
      <trkpt lat="48.69473" lon="1.75854">
        <ele>168.39999389648</ele>
        <time>2014-05-25T15:27:36.000Z</time>
      </trkpt>
      <trkpt lat="48.69493" lon="1.75853">
        <ele>167.60000610352</ele>
        <time>2014-05-25T15:27:41.000Z</time>
      </trkpt>
      <trkpt lat="48.6951" lon="1.75853">
        <ele>167</ele>
        <time>2014-05-25T15:27:46.000Z</time>
      </trkpt>
      <trkpt lat="48.69529" lon="1.75853">
        <ele>166.39999389648</ele>
        <time>2014-05-25T15:27:52.000Z</time>
      </trkpt>
      <trkpt lat="48.69551" lon="1.75851">
        <ele>165.80000305176</ele>
        <time>2014-05-25T15:27:58.000Z</time>
      </trkpt>
      <trkpt lat="48.69565" lon="1.7585">
        <ele>166.19999694824</ele>
        <time>2014-05-25T15:28:03.000Z</time>
      </trkpt>
      <trkpt lat="48.69581" lon="1.75852">
        <ele>166.60000610352</ele>
        <time>2014-05-25T15:28:08.000Z</time>
      </trkpt>
      <trkpt lat="48.69597" lon="1.75858">
        <ele>167.19999694824</ele>
        <time>2014-05-25T15:28:13.000Z</time>
      </trkpt>
      <trkpt lat="48.69605" lon="1.75862">
        <ele>167.39999389648</ele>
        <time>2014-05-25T15:28:17.000Z</time>
      </trkpt>
      <trkpt lat="48.69617" lon="1.75868">
        <ele>167.39999389648</ele>
        <time>2014-05-25T15:28:21.000Z</time>
      </trkpt>
      <trkpt lat="48.69628" lon="1.75873">
        <ele>167.19999694824</ele>
        <time>2014-05-25T15:28:26.000Z</time>
      </trkpt>
      <trkpt lat="48.69634" lon="1.75884">
        <ele>167.60000610352</ele>
        <time>2014-05-25T15:28:30.000Z</time>
      </trkpt>
      <trkpt lat="48.69645" lon="1.75891">
        <ele>167.60000610352</ele>
        <time>2014-05-25T15:28:34.000Z</time>
      </trkpt>
      <trkpt lat="48.69651" lon="1.75893">
        <ele>167.39999389648</ele>
        <time>2014-05-25T15:28:35.000Z</time>
      </trkpt>
      <trkpt lat="48.69674" lon="1.75905">
        <ele>167.39999389648</ele>
        <time>2014-05-25T15:28:40.000Z</time>
      </trkpt>
      <trkpt lat="48.69699" lon="1.75921">
        <ele>167.80000305176</ele>
        <time>2014-05-25T15:28:45.000Z</time>
      </trkpt>
      <trkpt lat="48.69729" lon="1.75933">
        <ele>167.80000305176</ele>
        <time>2014-05-25T15:28:49.000Z</time>
      </trkpt>
      <trkpt lat="48.69746" lon="1.75938">
        <ele>167.80000305176</ele>
        <time>2014-05-25T15:28:52.000Z</time>
      </trkpt>
      <trkpt lat="48.69757" lon="1.75945">
        <ele>168.19999694824</ele>
        <time>2014-05-25T15:28:54.000Z</time>
      </trkpt>
      <trkpt lat="48.69773" lon="1.75955">
        <ele>168.39999389648</ele>
        <time>2014-05-25T15:28:57.000Z</time>
      </trkpt>
      <trkpt lat="48.69788" lon="1.75967">
        <ele>168.39999389648</ele>
        <time>2014-05-25T15:29:00.000Z</time>
      </trkpt>
      <trkpt lat="48.69799" lon="1.75973">
        <ele>168.19999694824</ele>
        <time>2014-05-25T15:29:02.000Z</time>
      </trkpt>
      <trkpt lat="48.69821" lon="1.75982">
        <ele>167.80000305176</ele>
        <time>2014-05-25T15:29:07.000Z</time>
      </trkpt>
      <trkpt lat="48.69829" lon="1.7599">
        <ele>168</ele>
        <time>2014-05-25T15:29:10.000Z</time>
      </trkpt>
      <trkpt lat="48.69841" lon="1.75999">
        <ele>168</ele>
        <time>2014-05-25T15:29:14.000Z</time>
      </trkpt>
      <trkpt lat="48.69861" lon="1.76011">
        <ele>167.80000305176</ele>
        <time>2014-05-25T15:29:19.000Z</time>
      </trkpt>
      <trkpt lat="48.69885" lon="1.76027">
        <ele>167</ele>
        <time>2014-05-25T15:29:26.000Z</time>
      </trkpt>
      <trkpt lat="48.69892" lon="1.76034">
        <ele>167</ele>
        <time>2014-05-25T15:29:29.000Z</time>
      </trkpt>
      <trkpt lat="48.69904" lon="1.7606">
        <ele>167.80000305176</ele>
        <time>2014-05-25T15:29:35.000Z</time>
      </trkpt>
      <trkpt lat="48.69919" lon="1.76075">
        <ele>167.39999389648</ele>
        <time>2014-05-25T15:29:41.000Z</time>
      </trkpt>
      <trkpt lat="48.69933" lon="1.76083">
        <ele>166.80000305176</ele>
        <time>2014-05-25T15:29:46.000Z</time>
      </trkpt>
      <trkpt lat="48.69946" lon="1.76097">
        <ele>166.80000305176</ele>
        <time>2014-05-25T15:29:50.000Z</time>
      </trkpt>
      <trkpt lat="48.69961" lon="1.76115">
        <ele>167</ele>
        <time>2014-05-25T15:29:55.000Z</time>
      </trkpt>
      <trkpt lat="48.69973" lon="1.76138">
        <ele>167.39999389648</ele>
        <time>2014-05-25T15:30:00.000Z</time>
      </trkpt>
      <trkpt lat="48.69984" lon="1.76166">
        <ele>168</ele>
        <time>2014-05-25T15:30:06.000Z</time>
      </trkpt>
      <trkpt lat="48.69996" lon="1.76181">
        <ele>167.80000305176</ele>
        <time>2014-05-25T15:30:10.000Z</time>
      </trkpt>
      <trkpt lat="48.70013" lon="1.76195">
        <ele>167.39999389648</ele>
        <time>2014-05-25T15:30:15.000Z</time>
      </trkpt>
      <trkpt lat="48.70031" lon="1.76209">
        <ele>167.39999389648</ele>
        <time>2014-05-25T15:30:20.000Z</time>
      </trkpt>
      <trkpt lat="48.70045" lon="1.76218">
        <ele>167.60000610352</ele>
        <time>2014-05-25T15:30:25.000Z</time>
      </trkpt>
      <trkpt lat="48.70062" lon="1.76231">
        <ele>167.80000305176</ele>
        <time>2014-05-25T15:30:30.000Z</time>
      </trkpt>
      <trkpt lat="48.7008" lon="1.76249">
        <ele>168.19999694824</ele>
        <time>2014-05-25T15:30:36.000Z</time>
      </trkpt>
      <trkpt lat="48.70093" lon="1.76272">
        <ele>168.39999389648</ele>
        <time>2014-05-25T15:30:42.000Z</time>
      </trkpt>
      <trkpt lat="48.70101" lon="1.76293">
        <ele>168.60000610352</ele>
        <time>2014-05-25T15:30:47.000Z</time>
      </trkpt>
      <trkpt lat="48.70112" lon="1.7631">
        <ele>169</ele>
        <time>2014-05-25T15:30:52.000Z</time>
      </trkpt>
      <trkpt lat="48.70122" lon="1.76319">
        <ele>169.19999694824</ele>
        <time>2014-05-25T15:30:57.000Z</time>
      </trkpt>
      <trkpt lat="48.70131" lon="1.76326">
        <ele>169.60000610352</ele>
        <time>2014-05-25T15:31:02.000Z</time>
      </trkpt>
      <trkpt lat="48.70142" lon="1.76326">
        <ele>169.60000610352</ele>
        <time>2014-05-25T15:31:09.000Z</time>
      </trkpt>
      <trkpt lat="48.70144" lon="1.76326">
        <ele>169.60000610352</ele>
        <time>2014-05-25T15:31:10.000Z</time>
      </trkpt>
      <trkpt lat="48.7015" lon="1.7633">
        <ele>169.80000305176</ele>
        <time>2014-05-25T15:31:14.000Z</time>
      </trkpt>
      <trkpt lat="48.70152" lon="1.76332">
        <ele>170</ele>
        <time>2014-05-25T15:31:16.000Z</time>
      </trkpt>
      <trkpt lat="48.70159" lon="1.76337">
        <ele>170.19999694824</ele>
        <time>2014-05-25T15:31:20.000Z</time>
      </trkpt>
      <trkpt lat="48.70171" lon="1.76339">
        <ele>170.39999389648</ele>
        <time>2014-05-25T15:31:28.000Z</time>
      </trkpt>
      <trkpt lat="48.70177" lon="1.76338">
        <ele>170.60000610352</ele>
        <time>2014-05-25T15:31:31.000Z</time>
      </trkpt>
      <trkpt lat="48.70186" lon="1.76346">
        <ele>170.80000305176</ele>
        <time>2014-05-25T15:31:38.000Z</time>
      </trkpt>
      <trkpt lat="48.70194" lon="1.76351">
        <ele>171</ele>
        <time>2014-05-25T15:31:44.000Z</time>
      </trkpt>
      <trkpt lat="48.70197" lon="1.76351">
        <ele>171</ele>
        <time>2014-05-25T15:31:47.000Z</time>
      </trkpt>
      <trkpt lat="48.70207" lon="1.76355">
        <ele>171.19999694824</ele>
        <time>2014-05-25T15:31:54.000Z</time>
      </trkpt>
      <trkpt lat="48.70216" lon="1.76357">
        <ele>171.39999389648</ele>
        <time>2014-05-25T15:32:00.000Z</time>
      </trkpt>
      <trkpt lat="48.70224" lon="1.76362">
        <ele>171.39999389648</ele>
        <time>2014-05-25T15:32:05.000Z</time>
      </trkpt>
      <trkpt lat="48.70225" lon="1.76369">
        <ele>171.80000305176</ele>
        <time>2014-05-25T15:32:10.000Z</time>
      </trkpt>
      <trkpt lat="48.70226" lon="1.76371">
        <ele>171.80000305176</ele>
        <time>2014-05-25T15:32:12.000Z</time>
      </trkpt>
      <trkpt lat="48.70229" lon="1.76376">
        <ele>172</ele>
        <time>2014-05-25T15:32:15.000Z</time>
      </trkpt>
      <trkpt lat="48.70236" lon="1.7639">
        <ele>172.39999389648</ele>
        <time>2014-05-25T15:32:23.000Z</time>
      </trkpt>
      <trkpt lat="48.70239" lon="1.76392">
        <ele>172.60000610352</ele>
        <time>2014-05-25T15:32:25.000Z</time>
      </trkpt>
      <trkpt lat="48.70248" lon="1.76404">
        <ele>173</ele>
        <time>2014-05-25T15:32:33.000Z</time>
      </trkpt>
      <trkpt lat="48.70258" lon="1.7641">
        <ele>173.19999694824</ele>
        <time>2014-05-25T15:32:42.000Z</time>
      </trkpt>
      <trkpt lat="48.70265" lon="1.76419">
        <ele>173.60000610352</ele>
        <time>2014-05-25T15:32:49.000Z</time>
      </trkpt>
      <trkpt lat="48.70267" lon="1.7642">
        <ele>173.60000610352</ele>
        <time>2014-05-25T15:32:51.000Z</time>
      </trkpt>
      <trkpt lat="48.70278" lon="1.76424">
        <ele>173.80000305176</ele>
        <time>2014-05-25T15:32:58.000Z</time>
      </trkpt>
      <trkpt lat="48.70285" lon="1.76426">
        <ele>174.19999694824</ele>
        <time>2014-05-25T15:33:03.000Z</time>
      </trkpt>
      <trkpt lat="48.70287" lon="1.76426">
        <ele>174.19999694824</ele>
        <time>2014-05-25T15:33:05.000Z</time>
      </trkpt>
      <trkpt lat="48.70295" lon="1.76423">
        <ele>174.19999694824</ele>
        <time>2014-05-25T15:33:12.000Z</time>
      </trkpt>
      <trkpt lat="48.70304" lon="1.76427">
        <ele>174.60000610352</ele>
        <time>2014-05-25T15:33:17.000Z</time>
      </trkpt>
      <trkpt lat="48.70311" lon="1.76431">
        <ele>175</ele>
        <time>2014-05-25T15:33:22.000Z</time>
      </trkpt>
      <trkpt lat="48.70316" lon="1.76429">
        <ele>175</ele>
        <time>2014-05-25T15:33:25.000Z</time>
      </trkpt>
      <trkpt lat="48.70323" lon="1.7642">
        <ele>174.80000305176</ele>
        <time>2014-05-25T15:33:32.000Z</time>
      </trkpt>
      <trkpt lat="48.7033" lon="1.76416">
        <ele>174.80000305176</ele>
        <time>2014-05-25T15:33:37.000Z</time>
      </trkpt>
      <trkpt lat="48.70334" lon="1.76413">
        <ele>174.80000305176</ele>
        <time>2014-05-25T15:33:40.000Z</time>
      </trkpt>
      <trkpt lat="48.70342" lon="1.7641">
        <ele>175</ele>
        <time>2014-05-25T15:33:46.000Z</time>
      </trkpt>
      <trkpt lat="48.70351" lon="1.76405">
        <ele>175</ele>
        <time>2014-05-25T15:33:52.000Z</time>
      </trkpt>
      <trkpt lat="48.70354" lon="1.76405">
        <ele>175</ele>
        <time>2014-05-25T15:33:54.000Z</time>
      </trkpt>
      <trkpt lat="48.70358" lon="1.76405">
        <ele>175.19999694824</ele>
        <time>2014-05-25T15:33:58.000Z</time>
      </trkpt>
      <trkpt lat="48.70365" lon="1.76407">
        <ele>175.60000610352</ele>
        <time>2014-05-25T15:34:03.000Z</time>
      </trkpt>
      <trkpt lat="48.70376" lon="1.76407">
        <ele>176</ele>
        <time>2014-05-25T15:34:11.000Z</time>
      </trkpt>
      <trkpt lat="48.70379" lon="1.76406">
        <ele>176</ele>
        <time>2014-05-25T15:34:15.000Z</time>
      </trkpt>
      <trkpt lat="48.7039" lon="1.76399">
        <ele>176</ele>
        <time>2014-05-25T15:34:23.000Z</time>
      </trkpt>
      <trkpt lat="48.70398" lon="1.76396">
        <ele>176.19999694824</ele>
        <time>2014-05-25T15:34:29.000Z</time>
      </trkpt>
      <trkpt lat="48.70406" lon="1.76393">
        <ele>176.39999389648</ele>
        <time>2014-05-25T15:34:35.000Z</time>
      </trkpt>
      <trkpt lat="48.70416" lon="1.76389">
        <ele>176.60000610352</ele>
        <time>2014-05-25T15:34:41.000Z</time>
      </trkpt>
      <trkpt lat="48.70417" lon="1.76387">
        <ele>176.39999389648</ele>
        <time>2014-05-25T15:34:42.000Z</time>
      </trkpt>
      <trkpt lat="48.70427" lon="1.7638">
        <ele>176.39999389648</ele>
        <time>2014-05-25T15:34:49.000Z</time>
      </trkpt>
      <trkpt lat="48.70435" lon="1.76375">
        <ele>176.60000610352</ele>
        <time>2014-05-25T15:34:54.000Z</time>
      </trkpt>
      <trkpt lat="48.70442" lon="1.76369">
        <ele>176.19999694824</ele>
        <time>2014-05-25T15:35:01.000Z</time>
      </trkpt>
      <trkpt lat="48.70447" lon="1.76364">
        <ele>175.60000610352</ele>
        <time>2014-05-25T15:35:05.000Z</time>
      </trkpt>
      <trkpt lat="48.70447" lon="1.76355">
        <ele>175.19999694824</ele>
        <time>2014-05-25T15:35:13.000Z</time>
      </trkpt>
      <trkpt lat="48.70448" lon="1.76349">
        <ele>175</ele>
        <time>2014-05-25T15:35:18.000Z</time>
      </trkpt>
      <trkpt lat="48.70448" lon="1.76337">
        <ele>174.39999389648</ele>
        <time>2014-05-25T15:35:24.000Z</time>
      </trkpt>
      <trkpt lat="48.70445" lon="1.76327">
        <ele>174</ele>
        <time>2014-05-25T15:35:30.000Z</time>
      </trkpt>
      <trkpt lat="48.70445" lon="1.76319">
        <ele>173.80000305176</ele>
        <time>2014-05-25T15:35:35.000Z</time>
      </trkpt>
      <trkpt lat="48.70445" lon="1.76314">
        <ele>173.60000610352</ele>
        <time>2014-05-25T15:35:37.000Z</time>
      </trkpt>
      <trkpt lat="48.70446" lon="1.763">
        <ele>173.60000610352</ele>
        <time>2014-05-25T15:35:43.000Z</time>
      </trkpt>
      <trkpt lat="48.70444" lon="1.76288">
        <ele>173.80000305176</ele>
        <time>2014-05-25T15:35:48.000Z</time>
      </trkpt>
      <trkpt lat="48.70447" lon="1.7627">
        <ele>173.60000610352</ele>
        <time>2014-05-25T15:35:55.000Z</time>
      </trkpt>
      <trkpt lat="48.70448" lon="1.76265">
        <ele>173.60000610352</ele>
        <time>2014-05-25T15:35:57.000Z</time>
      </trkpt>
      <trkpt lat="48.70454" lon="1.76249">
        <ele>173.19999694824</ele>
        <time>2014-05-25T15:36:04.000Z</time>
      </trkpt>
      <trkpt lat="48.70457" lon="1.76245">
        <ele>173</ele>
        <time>2014-05-25T15:36:06.000Z</time>
      </trkpt>
      <trkpt lat="48.7046" lon="1.76229">
        <ele>172.80000305176</ele>
        <time>2014-05-25T15:36:14.000Z</time>
      </trkpt>
      <trkpt lat="48.7046" lon="1.76226">
        <ele>172.80000305176</ele>
        <time>2014-05-25T15:36:15.000Z</time>
      </trkpt>
      <trkpt lat="48.70463" lon="1.76215">
        <ele>173</ele>
        <time>2014-05-25T15:36:22.000Z</time>
      </trkpt>
      <trkpt lat="48.70462" lon="1.76206">
        <ele>173.19999694824</ele>
        <time>2014-05-25T15:36:26.000Z</time>
      </trkpt>
      <trkpt lat="48.7046" lon="1.76197">
        <ele>173.60000610352</ele>
        <time>2014-05-25T15:36:30.000Z</time>
      </trkpt>
      <trkpt lat="48.70454" lon="1.76182">
        <ele>174.19999694824</ele>
        <time>2014-05-25T15:36:39.000Z</time>
      </trkpt>
      <trkpt lat="48.70454" lon="1.76169">
        <ele>174.60000610352</ele>
        <time>2014-05-25T15:36:45.000Z</time>
      </trkpt>
      <trkpt lat="48.70455" lon="1.76154">
        <ele>175.19999694824</ele>
        <time>2014-05-25T15:36:51.000Z</time>
      </trkpt>
      <trkpt lat="48.70452" lon="1.76144">
        <ele>175.39999389648</ele>
        <time>2014-05-25T15:36:58.000Z</time>
      </trkpt>
      <trkpt lat="48.70454" lon="1.76135">
        <ele>175.39999389648</ele>
        <time>2014-05-25T15:37:03.000Z</time>
      </trkpt>
      <trkpt lat="48.70458" lon="1.76125">
        <ele>175.39999389648</ele>
        <time>2014-05-25T15:37:09.000Z</time>
      </trkpt>
      <trkpt lat="48.70459" lon="1.76121">
        <ele>175.39999389648</ele>
        <time>2014-05-25T15:37:11.000Z</time>
      </trkpt>
      <trkpt lat="48.70462" lon="1.76112">
        <ele>175.39999389648</ele>
        <time>2014-05-25T15:37:16.000Z</time>
      </trkpt>
      <trkpt lat="48.70464" lon="1.76106">
        <ele>175.19999694824</ele>
        <time>2014-05-25T15:37:19.000Z</time>
      </trkpt>
      <trkpt lat="48.70467" lon="1.76101">
        <ele>175.19999694824</ele>
        <time>2014-05-25T15:37:22.000Z</time>
      </trkpt>
      <trkpt lat="48.7047" lon="1.76088">
        <ele>175.19999694824</ele>
        <time>2014-05-25T15:37:29.000Z</time>
      </trkpt>
      <trkpt lat="48.70471" lon="1.76087">
        <ele>175.19999694824</ele>
        <time>2014-05-25T15:37:30.000Z</time>
      </trkpt>
      <trkpt lat="48.70474" lon="1.76077">
        <ele>175.19999694824</ele>
        <time>2014-05-25T15:37:38.000Z</time>
      </trkpt>
      <trkpt lat="48.70474" lon="1.76075">
        <ele>175.19999694824</ele>
        <time>2014-05-25T15:37:39.000Z</time>
      </trkpt>
      <trkpt lat="48.70474" lon="1.76067">
        <ele>175.39999389648</ele>
        <time>2014-05-25T15:37:42.000Z</time>
      </trkpt>
      <trkpt lat="48.70472" lon="1.76057">
        <ele>176</ele>
        <time>2014-05-25T15:37:46.000Z</time>
      </trkpt>
      <trkpt lat="48.70475" lon="1.76043">
        <ele>176.60000610352</ele>
        <time>2014-05-25T15:37:54.000Z</time>
      </trkpt>
      <trkpt lat="48.70478" lon="1.76037">
        <ele>176.60000610352</ele>
        <time>2014-05-25T15:37:58.000Z</time>
      </trkpt>
      <trkpt lat="48.7048" lon="1.76029">
        <ele>177</ele>
        <time>2014-05-25T15:38:02.000Z</time>
      </trkpt>
      <trkpt lat="48.70483" lon="1.76021">
        <ele>177.39999389648</ele>
        <time>2014-05-25T15:38:07.000Z</time>
      </trkpt>
      <trkpt lat="48.70489" lon="1.75994">
        <ele>178.80000305176</ele>
        <time>2014-05-25T15:38:14.000Z</time>
      </trkpt>
      <trkpt lat="48.70495" lon="1.75972">
        <ele>179.19999694824</ele>
        <time>2014-05-25T15:38:22.000Z</time>
      </trkpt>
      <trkpt lat="48.70501" lon="1.75961">
        <ele>179.19999694824</ele>
        <time>2014-05-25T15:38:29.000Z</time>
      </trkpt>
      <trkpt lat="48.70506" lon="1.75952">
        <ele>179.80000305176</ele>
        <time>2014-05-25T15:38:35.000Z</time>
      </trkpt>
      <trkpt lat="48.70511" lon="1.75943">
        <ele>180.19999694824</ele>
        <time>2014-05-25T15:38:41.000Z</time>
      </trkpt>
      <trkpt lat="48.70518" lon="1.75931">
        <ele>180.80000305176</ele>
        <time>2014-05-25T15:38:47.000Z</time>
      </trkpt>
      <trkpt lat="48.7052" lon="1.75928">
        <ele>180.80000305176</ele>
        <time>2014-05-25T15:38:49.000Z</time>
      </trkpt>
      <trkpt lat="48.70526" lon="1.7592">
        <ele>180.80000305176</ele>
        <time>2014-05-25T15:38:55.000Z</time>
      </trkpt>
      <trkpt lat="48.70531" lon="1.75908">
        <ele>181.19999694824</ele>
        <time>2014-05-25T15:39:02.000Z</time>
      </trkpt>
      <trkpt lat="48.70534" lon="1.75897">
        <ele>181.19999694824</ele>
        <time>2014-05-25T15:39:08.000Z</time>
      </trkpt>
      <trkpt lat="48.7054" lon="1.7589">
        <ele>180.80000305176</ele>
        <time>2014-05-25T15:39:15.000Z</time>
      </trkpt>
      <trkpt lat="48.70543" lon="1.75881">
        <ele>181</ele>
        <time>2014-05-25T15:39:20.000Z</time>
      </trkpt>
      <trkpt lat="48.70547" lon="1.75868">
        <ele>181</ele>
        <time>2014-05-25T15:39:28.000Z</time>
      </trkpt>
      <trkpt lat="48.7055" lon="1.75858">
        <ele>181</ele>
        <time>2014-05-25T15:39:35.000Z</time>
      </trkpt>
      <trkpt lat="48.70555" lon="1.75845">
        <ele>180.39999389648</ele>
        <time>2014-05-25T15:39:42.000Z</time>
      </trkpt>
      <trkpt lat="48.7056" lon="1.75836">
        <ele>179.80000305176</ele>
        <time>2014-05-25T15:39:48.000Z</time>
      </trkpt>
      <trkpt lat="48.70567" lon="1.75825">
        <ele>179</ele>
        <time>2014-05-25T15:39:55.000Z</time>
      </trkpt>
      <trkpt lat="48.70567" lon="1.75824">
        <ele>179</ele>
        <time>2014-05-25T15:39:56.000Z</time>
      </trkpt>
      <trkpt lat="48.70571" lon="1.75821">
        <ele>178.39999389648</ele>
        <time>2014-05-25T15:39:58.000Z</time>
      </trkpt>
      <trkpt lat="48.70574" lon="1.75818">
        <ele>178.19999694824</ele>
        <time>2014-05-25T15:40:00.000Z</time>
      </trkpt>
      <trkpt lat="48.7058" lon="1.75807">
        <ele>177.60000610352</ele>
        <time>2014-05-25T15:40:08.000Z</time>
      </trkpt>
      <trkpt lat="48.70582" lon="1.75804">
        <ele>177.60000610352</ele>
        <time>2014-05-25T15:40:10.000Z</time>
      </trkpt>
      <trkpt lat="48.70588" lon="1.75792">
        <ele>177.60000610352</ele>
        <time>2014-05-25T15:40:16.000Z</time>
      </trkpt>
      <trkpt lat="48.70594" lon="1.75785">
        <ele>177.39999389648</ele>
        <time>2014-05-25T15:40:23.000Z</time>
      </trkpt>
      <trkpt lat="48.70594" lon="1.75785">
        <ele>177.39999389648</ele>
        <time>2014-05-25T15:40:24.000Z</time>
      </trkpt>
      <trkpt lat="48.70611" lon="1.75757">
        <ele>177.80000305176</ele>
        <time>2014-05-25T15:41:57.000Z</time>
      </trkpt>
      <trkpt lat="48.70614" lon="1.75754">
        <ele>177.80000305176</ele>
        <time>2014-05-25T15:42:00.000Z</time>
      </trkpt>
      <trkpt lat="48.7062" lon="1.75744">
        <ele>177.80000305176</ele>
        <time>2014-05-25T15:42:08.000Z</time>
      </trkpt>
      <trkpt lat="48.7062" lon="1.75744">
        <ele>177.80000305176</ele>
        <time>2014-05-25T15:42:09.000Z</time>
      </trkpt>
      <trkpt lat="48.70623" lon="1.75729">
        <ele>178.39999389648</ele>
        <time>2014-05-25T15:42:41.000Z</time>
      </trkpt>
      <trkpt lat="48.70628" lon="1.75721">
        <ele>178.60000610352</ele>
        <time>2014-05-25T15:42:46.000Z</time>
      </trkpt>
      <trkpt lat="48.70629" lon="1.7572">
        <ele>178.80000305176</ele>
        <time>2014-05-25T15:42:47.000Z</time>
      </trkpt>
      <trkpt lat="48.7063" lon="1.75713">
        <ele>179.19999694824</ele>
        <time>2014-05-25T15:42:51.000Z</time>
      </trkpt>
      <trkpt lat="48.70635" lon="1.75704">
        <ele>179.60000610352</ele>
        <time>2014-05-25T15:42:58.000Z</time>
      </trkpt>
      <trkpt lat="48.70638" lon="1.75698">
        <ele>179.80000305176</ele>
        <time>2014-05-25T15:43:03.000Z</time>
      </trkpt>
      <trkpt lat="48.70639" lon="1.75694">
        <ele>180</ele>
        <time>2014-05-25T15:43:07.000Z</time>
      </trkpt>
      <trkpt lat="48.70639" lon="1.75685">
        <ele>180.39999389648</ele>
        <time>2014-05-25T15:43:12.000Z</time>
      </trkpt>
      <trkpt lat="48.70641" lon="1.75678">
        <ele>180.19999694824</ele>
        <time>2014-05-25T15:43:17.000Z</time>
      </trkpt>
      <trkpt lat="48.70642" lon="1.75675">
        <ele>180.19999694824</ele>
        <time>2014-05-25T15:43:19.000Z</time>
      </trkpt>
      <trkpt lat="48.70642" lon="1.75671">
        <ele>180.19999694824</ele>
        <time>2014-05-25T15:43:21.000Z</time>
      </trkpt>
      <trkpt lat="48.70638" lon="1.75661">
        <ele>180.80000305176</ele>
        <time>2014-05-25T15:43:27.000Z</time>
      </trkpt>
      <trkpt lat="48.70635" lon="1.7565">
        <ele>181.19999694824</ele>
        <time>2014-05-25T15:43:33.000Z</time>
      </trkpt>
      <trkpt lat="48.70635" lon="1.75636">
        <ele>180.80000305176</ele>
        <time>2014-05-25T15:43:40.000Z</time>
      </trkpt>
      <trkpt lat="48.7064" lon="1.75622">
        <ele>179.80000305176</ele>
        <time>2014-05-25T15:43:47.000Z</time>
      </trkpt>
      <trkpt lat="48.70642" lon="1.75615">
        <ele>179.39999389648</ele>
        <time>2014-05-25T15:43:50.000Z</time>
      </trkpt>
      <trkpt lat="48.70645" lon="1.75602">
        <ele>179</ele>
        <time>2014-05-25T15:43:56.000Z</time>
      </trkpt>
      <trkpt lat="48.70646" lon="1.756">
        <ele>178.80000305176</ele>
        <time>2014-05-25T15:43:59.000Z</time>
      </trkpt>
      <trkpt lat="48.70647" lon="1.75597">
        <ele>178.80000305176</ele>
        <time>2014-05-25T15:44:02.000Z</time>
      </trkpt>
      <trkpt lat="48.70648" lon="1.75595">
        <ele>178.80000305176</ele>
        <time>2014-05-25T15:44:03.000Z</time>
      </trkpt>
      <trkpt lat="48.7065" lon="1.75594">
        <ele>178.60000610352</ele>
        <time>2014-05-25T15:44:04.000Z</time>
      </trkpt>
      <trkpt lat="48.70654" lon="1.75588">
        <ele>178.19999694824</ele>
        <time>2014-05-25T15:44:08.000Z</time>
      </trkpt>
      <trkpt lat="48.70657" lon="1.75581">
        <ele>178</ele>
        <time>2014-05-25T15:44:12.000Z</time>
      </trkpt>
      <trkpt lat="48.70663" lon="1.7557">
        <ele>177.19999694824</ele>
        <time>2014-05-25T15:44:19.000Z</time>
      </trkpt>
      <trkpt lat="48.70669" lon="1.75563">
        <ele>175.80000305176</ele>
        <time>2014-05-25T15:44:25.000Z</time>
      </trkpt>
      <trkpt lat="48.70673" lon="1.75556">
        <ele>174.80000305176</ele>
        <time>2014-05-25T15:44:30.000Z</time>
      </trkpt>
      <trkpt lat="48.70675" lon="1.7555">
        <ele>174.60000610352</ele>
        <time>2014-05-25T15:44:34.000Z</time>
      </trkpt>
      <trkpt lat="48.70679" lon="1.75543">
        <ele>174.39999389648</ele>
        <time>2014-05-25T15:44:39.000Z</time>
      </trkpt>
      <trkpt lat="48.70682" lon="1.75536">
        <ele>174.19999694824</ele>
        <time>2014-05-25T15:44:44.000Z</time>
      </trkpt>
      <trkpt lat="48.70684" lon="1.75531">
        <ele>174</ele>
        <time>2014-05-25T15:44:47.000Z</time>
      </trkpt>
      <trkpt lat="48.70687" lon="1.75525">
        <ele>173.80000305176</ele>
        <time>2014-05-25T15:44:51.000Z</time>
      </trkpt>
      <trkpt lat="48.70691" lon="1.75515">
        <ele>173.39999389648</ele>
        <time>2014-05-25T15:44:58.000Z</time>
      </trkpt>
      <trkpt lat="48.70695" lon="1.75506">
        <ele>173</ele>
        <time>2014-05-25T15:45:04.000Z</time>
      </trkpt>
      <trkpt lat="48.70696" lon="1.75503">
        <ele>173</ele>
        <time>2014-05-25T15:45:06.000Z</time>
      </trkpt>
      <trkpt lat="48.70699" lon="1.75491">
        <ele>172.80000305176</ele>
        <time>2014-05-25T15:45:13.000Z</time>
      </trkpt>
      <trkpt lat="48.707" lon="1.75487">
        <ele>172.60000610352</ele>
        <time>2014-05-25T15:45:18.000Z</time>
      </trkpt>
      <trkpt lat="48.707" lon="1.75484">
        <ele>172.60000610352</ele>
        <time>2014-05-25T15:45:22.000Z</time>
      </trkpt>
      <trkpt lat="48.707" lon="1.7548">
        <ele>172.60000610352</ele>
        <time>2014-05-25T15:45:37.000Z</time>
      </trkpt>
      <trkpt lat="48.70698" lon="1.75484">
        <ele>172.60000610352</ele>
        <time>2014-05-25T15:45:40.000Z</time>
      </trkpt>
      <trkpt lat="48.70695" lon="1.75483">
        <ele>172.60000610352</ele>
        <time>2014-05-25T15:45:45.000Z</time>
      </trkpt>
      <trkpt lat="48.70694" lon="1.75481">
        <ele>172.60000610352</ele>
        <time>2014-05-25T15:45:49.000Z</time>
      </trkpt>
    </trkseg>
  </trk>
</gpx>